[[{"header":{"parameterUnit":"m.s-1","parameterCategory":1,"la1":30.6,"la2":29.2853,"lo1":-89.7004,"lo2":-87.6739,"dy":0.0162,"dx":0.0183,"nx":112,"ny":82,"refTime":"2026-03-26T12:00:00:Z","depth":0,"parameterNumber":2,"parameterNumberName":"U-component_of_WINDS"},"data":[0.0,0.0,0.0,0.0,0.0,0.0,0.0,0.0,0.0,0.0,0.0,0.0,0.0,0.0,0.0,0.0,0.0,0.0,0.0,0.0,0.0,0.0,0.0,0.0,0.0,0.0,0.0,0.0,0.0,0.0,0.0,0.0,0.0,0.0,0.0,0.0,0.0,0.0,0.0,0.0,0.0,0.0,0.0,0.0,0.0,0.0,0.0,0.0,0.0,0.0,0.0,0.0,0.0,0.0,0.0,0.0,0.0,0.0,0.0,0.0,0.0,0.0,0.0,0.0,0.0,0.0,0.0,0.0,0.0,0.0,0.0,0.0,0.0,0.0,0.0,0.0,0.0,0.0,0.0,0.0,0.0,0.0,0.0,0.0,0.0,0.0,0.0,0.0,0.0,0.0,4.5303,4.8777,5.3628,5.6893,5.7619,5.5988,5.2564,4.6991,0.0,0.0,0.0,0.0,0.0,0.0,0.0,0.0,0.0,0.0,0.0,0.0,0.0,0.0,0.0,0.0,0.0,0.0,0.0,0.0,0.0,0.0,0.0,0.0,0.0,0.0,0.0,0.0,0.0,0.0,0.0,0.0,0.0,0.0,0.0,0.0,0.0,0.0,0.0,0.0,0.0,0.0,0.0,0.0,0.0,0.0,0.0,0.0,0.0,0.0,0.0,0.0,0.0,0.0,0.0,0.0,0.0,0.0,0.0,0.0,0.0,0.0,0.0,0.0,0.0,0.0,0.0,0.0,0.0,0.0,0.0,0.0,0.0,0.0,0.0,0.0,0.0,0.0,0.0,0.0,0.0,0.0,0.0,0.0,0.0,0.0,0.0,0.0,0.0,0.0,0.0,0.0,0.0,0.0,0.0,0.0,0.0,0.0,0.0,0.0,0.0,0.0,0.0,0.0,4.5931,5.3441,5.5658,5.6625,5.6778,5.4313,5.1174,4.7504,0.0,0.0,0.0,0.0,0.0,0.0,0.0,0.0,0.0,0.0,0.0,0.0,0.0,0.0,0.0,0.0,0.0,0.0,0.0,0.0,0.0,0.0,0.0,0.0,0.0,0.0,0.0,0.0,0.0,0.0,0.0,0.0,0.0,0.0,0.0,0.0,0.0,0.0,0.0,0.0,0.0,0.0,0.0,0.0,0.0,0.0,0.0,0.0,0.0,0.0,0.0,0.0,0.0,0.0,0.0,0.0,0.0,0.0,0.0,0.0,0.0,0.0,0.0,0.0,0.0,0.0,0.0,0.0,0.0,0.0,0.0,0.0,0.0,0.0,0.0,0.0,0.0,0.0,0.0,0.0,0.0,0.0,0.0,0.0,0.0,0.0,0.0,0.0,0.0,0.0,0.0,0.0,0.0,0.0,0.0,0.0,0.0,0.0,0.0,0.0,0.0,0.0,0.0,4.4592,4.8067,5.4677,5.5747,5.6038,5.6293,5.3832,5.0619,4.6728,4.285,0.0,0.0,0.0,0.0,0.0,0.0,0.0,0.0,0.0,0.0,0.0,0.0,0.0,0.0,0.0,0.0,0.0,0.0,0.0,0.0,0.0,0.0,0.0,0.0,0.0,0.0,0.0,0.0,0.0,0.0,0.0,0.0,0.0,0.0,0.0,0.0,0.0,0.0,0.0,0.0,0.0,0.0,0.0,0.0,0.0,0.0,0.0,0.0,0.0,0.0,0.0,0.0,0.0,0.0,0.0,0.0,0.0,0.0,0.0,0.0,0.0,0.0,0.0,0.0,0.0,0.0,0.0,0.0,0.0,0.0,0.0,0.0,0.0,0.0,0.0,0.0,0.0,0.0,0.0,0.0,0.0,0.0,0.0,0.0,0.0,0.0,0.0,0.0,0.0,0.0,0.0,0.0,0.0,0.0,0.0,0.0,0.0,0.0,0.0,0.0,0.0,0.0,4.8057,5.0418,5.4802,5.526,5.5407,5.5746,5.3072,4.9683,4.5827,4.0933,0.0,0.0,0.0,0.0,0.0,0.0,0.0,0.0,0.0,0.0,0.0,0.0,0.0,0.0,0.0,0.0,0.0,0.0,0.0,0.0,0.0,0.0,0.0,0.0,0.0,0.0,0.0,0.0,0.0,0.0,0.0,0.0,0.0,0.0,0.0,0.0,0.0,0.0,0.0,0.0,0.0,0.0,0.0,0.0,0.0,0.0,0.0,0.0,0.0,0.0,0.0,0.0,0.0,0.0,0.0,0.0,0.0,0.0,0.0,0.0,0.0,0.0,0.0,0.0,0.0,0.0,0.0,0.0,0.0,0.0,0.0,0.0,0.0,0.0,0.0,0.0,0.0,0.0,0.0,0.0,0.0,0.0,0.0,0.0,0.0,0.0,0.0,0.0,0.0,0.0,0.0,0.0,0.0,0.0,0.0,0.0,0.0,0.0,0.0,0.0,0.0,0.0,4.8767,5.2385,5.4617,5.4836,5.4874,5.4882,5.0967,4.7575,4.5482,3.9032,0.0,0.0,0.0,0.0,0.0,0.0,0.0,0.0,0.0,0.0,0.0,0.0,0.0,0.0,0.0,0.0,0.0,0.0,0.0,0.0,0.0,0.0,0.0,0.0,0.0,0.0,0.0,0.0,0.0,0.0,0.0,0.0,0.0,0.0,0.0,0.0,0.0,0.0,0.0,0.0,0.0,0.0,0.0,0.0,0.0,0.0,0.0,0.0,0.0,0.0,0.0,0.0,0.0,0.0,0.0,0.0,0.0,0.0,0.0,0.0,0.0,0.0,0.0,0.0,0.0,0.0,0.0,0.0,0.0,0.0,0.0,0.0,0.0,0.0,0.0,0.0,0.0,0.0,0.0,0.0,0.0,0.0,0.0,0.0,0.0,0.0,0.0,0.0,0.0,0.0,0.0,0.0,0.0,0.0,0.0,0.0,0.0,0.0,0.0,0.0,0.0,0.0,4.7417,5.0729,0.0,5.4495,5.4397,5.4121,5.166,4.833,4.4156,0.0,0.0,0.0,0.0,0.0,0.0,0.0,0.0,0.0,0.0,0.0,0.0,0.0,0.0,0.0,0.0,0.0,0.0,0.0,0.0,0.0,0.0,0.0,0.0,0.0,0.0,0.0,0.0,0.0,0.0,0.0,0.0,0.0,0.0,0.0,0.0,0.0,0.0,0.0,0.0,0.0,0.0,0.0,0.0,0.0,0.0,0.0,0.0,0.0,0.0,0.0,0.0,0.0,0.0,0.0,0.0,0.0,0.0,0.0,0.0,0.0,0.0,0.0,0.0,0.0,0.0,0.0,0.0,0.0,0.0,0.0,0.0,0.0,0.0,0.0,0.0,0.0,0.0,0.0,0.0,0.0,0.0,0.0,0.0,0.0,0.0,0.0,0.0,0.0,0.0,0.0,0.0,0.0,0.0,0.0,0.0,0.0,0.0,0.0,0.0,0.0,0.0,4.3605,4.6967,5.0328,0.0,5.4128,5.387,5.3822,5.1265,4.7572,4.27,0.0,0.0,0.0,0.0,0.0,0.0,0.0,0.0,0.0,0.0,0.0,0.0,0.0,0.0,0.0,0.0,0.0,0.0,0.0,0.0,0.0,0.0,0.0,0.0,0.0,0.0,0.0,0.0,0.0,0.0,0.0,0.0,0.0,0.0,0.0,0.0,0.0,0.0,0.0,0.0,0.0,0.0,0.0,0.0,0.0,0.0,0.0,0.0,0.0,0.0,0.0,0.0,0.0,0.0,0.0,0.0,0.0,0.0,0.0,0.0,0.0,0.0,0.0,0.0,0.0,0.0,0.0,0.0,0.0,0.0,0.0,0.0,0.0,0.0,0.0,0.0,0.0,0.0,0.0,0.0,0.0,0.0,0.0,0.0,0.0,0.0,0.0,0.0,0.0,0.0,0.0,0.0,0.0,0.0,0.0,0.0,0.0,0.0,0.0,0.0,0.0,0.0,4.3341,4.7942,5.1845,5.457,5.3695,5.3219,5.4032,4.9185,4.4674,0.0,0.0,0.0,0.0,0.0,0.0,0.0,0.0,0.0,0.0,0.0,0.0,0.0,0.0,0.0,0.0,0.0,0.0,0.0,0.0,0.0,0.0,0.0,0.0,0.0,0.0,0.0,0.0,0.0,0.0,0.0,0.0,0.0,0.0,0.0,0.0,0.0,0.0,0.0,0.0,0.0,0.0,0.0,0.0,0.0,0.0,0.0,0.0,0.0,0.0,0.0,0.0,0.0,0.0,0.0,0.0,0.0,0.0,0.0,0.0,0.0,0.0,0.0,0.0,0.0,0.0,0.0,0.0,0.0,0.0,0.0,0.0,0.0,0.0,0.0,0.0,0.0,0.0,0.0,0.0,0.0,0.0,0.0,0.0,0.0,0.0,0.0,0.0,0.0,0.0,0.0,0.0,0.0,0.0,0.0,0.0,0.0,0.0,0.0,0.0,0.0,0.0,0.0,4.3251,4.7759,5.1225,5.3135,5.2954,5.2654,5.233,4.9395,4.5587,4.1002,0.0,0.0,0.0,0.0,0.0,0.0,0.0,0.0,0.0,0.0,0.0,0.0,0.0,0.0,0.0,0.0,0.0,0.0,0.0,0.0,0.0,0.0,0.0,0.0,0.0,0.0,0.0,0.0,0.0,0.0,0.0,0.0,0.0,0.0,0.0,0.0,0.0,0.0,0.0,0.0,0.0,0.0,0.0,0.0,0.0,0.0,0.0,0.0,0.0,0.0,0.0,0.0,0.0,0.0,0.0,0.0,0.0,0.0,0.0,0.0,0.0,0.0,0.0,0.0,0.0,0.0,0.0,0.0,0.0,0.0,0.0,0.0,0.0,0.0,0.0,0.0,0.0,0.0,0.0,0.0,0.0,0.0,0.0,0.0,0.0,0.0,0.0,0.0,0.0,0.0,0.0,0.0,0.0,0.0,0.0,0.0,0.0,0.0,0.0,0.0,0.0,0.0,4.257,4.7088,5.0673,5.2564,5.2287,5.1882,5.1792,4.9392,4.5738,4.0526,0.0,0.0,0.0,0.0,0.0,0.0,0.0,0.0,0.0,0.0,0.0,0.0,0.0,0.0,0.0,0.0,0.0,0.0,0.0,0.0,0.0,0.0,0.0,0.0,0.0,0.0,0.0,0.0,0.0,0.0,0.0,0.0,0.0,0.0,0.0,0.0,0.0,0.0,0.0,0.0,0.0,0.0,0.0,0.0,0.0,0.0,0.0,0.0,0.0,0.0,0.0,0.0,0.0,0.0,0.0,0.0,0.0,0.0,0.0,0.0,0.0,0.0,0.0,0.0,0.0,0.0,0.0,0.0,0.0,0.0,0.0,0.0,0.0,0.0,0.0,0.0,0.0,0.0,0.0,0.0,0.0,0.0,0.0,0.0,0.0,0.0,0.0,0.0,0.0,0.0,0.0,0.0,0.0,0.0,0.0,0.0,0.0,0.0,0.0,0.0,0.0,0.0,4.1635,4.629,5.0062,5.2426,5.1564,5.1134,5.1786,4.9208,4.5389,4.0203,0.0,0.0,0.0,0.0,0.0,0.0,0.0,0.0,0.0,0.0,0.0,0.0,0.0,0.0,0.0,0.0,0.0,0.0,0.0,0.0,0.0,0.0,0.0,0.0,0.0,0.0,0.0,0.0,0.0,0.0,0.0,0.0,0.0,0.0,0.0,0.0,0.0,0.0,0.0,0.0,0.0,0.0,0.0,0.0,0.0,0.0,0.0,0.0,0.0,0.0,0.0,0.0,0.0,0.0,0.0,0.0,0.0,0.0,0.0,0.0,4.8011,0.0,0.0,0.0,0.0,0.0,0.0,0.0,0.0,0.0,0.0,0.0,0.0,0.0,0.0,0.0,0.0,0.0,0.0,0.0,0.0,0.0,0.0,0.0,0.0,0.0,0.0,0.0,0.0,0.0,0.0,0.0,0.0,0.0,0.0,0.0,0.0,0.0,0.0,0.0,0.0,0.0,4.1745,4.6219,4.9576,5.128,5.1234,5.0841,5.0483,4.8204,4.5161,4.1289,3.6956,0.0,0.0,0.0,0.0,0.0,0.0,0.0,0.0,0.0,0.0,0.0,0.0,0.0,0.0,0.0,0.0,0.0,0.0,0.0,0.0,0.0,0.0,0.0,0.0,0.0,0.0,0.0,0.0,0.0,0.0,0.0,0.0,0.0,0.0,0.0,0.0,0.0,0.0,0.0,0.0,0.0,0.0,0.0,0.0,0.0,0.0,0.0,0.0,0.0,0.0,0.0,0.0,0.0,0.0,0.0,0.0,0.0,0.0,0.0,0.0,4.8578,0.0,0.0,0.0,0.0,0.0,0.0,0.0,0.0,0.0,0.0,0.0,0.0,0.0,0.0,0.0,0.0,0.0,0.0,0.0,0.0,0.0,0.0,0.0,0.0,0.0,0.0,0.0,0.0,0.0,0.0,0.0,0.0,0.0,0.0,0.0,0.0,0.0,0.0,0.0,0.0,4.1603,4.577,4.8872,5.0424,5.0385,5.0001,4.9624,4.767,4.5173,4.2227,3.8216,0.0,0.0,0.0,0.0,0.0,0.0,0.0,0.0,0.0,0.0,0.0,0.0,0.0,0.0,0.0,0.0,0.0,0.0,0.0,0.0,0.0,0.0,0.0,0.0,0.0,0.0,0.0,0.0,0.0,0.0,0.0,0.0,0.0,0.0,0.0,0.0,0.0,0.0,0.0,0.0,0.0,0.0,0.0,0.0,0.0,0.0,0.0,0.0,0.0,0.0,0.0,0.0,0.0,5.5638,5.6307,5.6191,5.7636,5.7949,5.7162,5.4986,5.29,5.09,0.0,0.0,0.0,0.0,0.0,0.0,0.0,0.0,0.0,0.0,0.0,0.0,0.0,0.0,0.0,0.0,0.0,0.0,0.0,0.0,0.0,0.0,0.0,0.0,0.0,4.3828,4.3406,0.0,0.0,0.0,0.0,0.0,0.0,0.0,0.0,0.0,0.0,0.0,0.0,4.14,4.526,4.8198,4.9605,4.9316,4.904,4.904,4.7423,4.5477,4.3231,3.9901,3.6638,0.0,0.0,0.0,0.0,0.0,0.0,0.0,0.0,0.0,0.0,0.0,0.0,0.0,0.0,0.0,0.0,0.0,0.0,0.0,0.0,0.0,0.0,0.0,0.0,0.0,0.0,0.0,0.0,0.0,0.0,0.0,0.0,4.2421,4.2692,0.0,0.0,0.0,0.0,0.0,0.0,0.0,0.0,0.0,0.0,0.0,0.0,0.0,0.0,5.2188,5.7206,5.9039,5.7749,6.1879,6.3464,6.2749,6.3013,6.3426,6.3952,6.2937,0.0,5.3168,5.393,0.0,0.0,0.0,0.0,0.0,0.0,0.0,0.0,0.0,0.0,0.0,0.0,0.0,0.0,0.0,0.0,0.0,0.0,0.0,0.0,0.0,0.0,4.8411,4.7983,4.8017,4.7755,0.0,4.1995,3.7595,3.5428,0.0,0.0,0.0,0.0,0.0,0.0,0.0,0.0,4.1359,4.5052,4.7698,4.8505,4.8543,4.8543,4.8543,4.7646,4.6324,4.4429,4.2022,3.9489,3.6799,3.3405,0.0,0.0,0.0,0.0,0.0,0.0,0.0,0.0,0.0,0.0,0.0,0.0,0.0,0.0,0.0,0.0,0.0,0.0,0.0,0.0,0.0,0.0,0.0,0.0,0.0,0.0,0.0,0.0,0.0,4.1262,4.3888,4.2398,4.3803,4.3345,0.0,0.0,0.0,0.0,0.0,0.0,0.0,0.0,0.0,5.3762,5.508,5.6374,5.7716,6.1051,6.2561,6.2297,6.4813,6.6083,6.6158,6.6158,6.6345,6.6683,6.6045,6.3504,5.9589,5.7116,5.3624,4.9671,0.0,0.0,0.0,0.0,0.0,4.6726,4.8119,0.0,0.0,0.0,0.0,0.0,0.0,0.0,0.0,0.0,0.0,0.0,0.0,0.0,0.0,4.9127,4.9146,4.8753,4.7708,4.4988,4.19,0.0,3.7737,3.5822,3.1128,0.0,0.0,0.0,0.0,3.9428,4.2635,4.5511,4.7613,4.8316,4.8161,4.8,4.8,4.6715,4.5536,4.4722,4.2664,4.0717,3.9153,3.6075,3.308,0.0,0.0,0.0,0.0,0.0,0.0,0.0,0.0,0.0,0.0,0.0,0.0,0.0,0.0,0.0,0.0,0.0,0.0,0.0,0.0,0.0,0.0,0.0,0.0,0.0,0.0,0.0,0.0,4.2641,4.5072,4.2775,4.4919,4.5004,0.0,0.0,0.0,0.0,0.0,0.0,5.0048,5.2145,5.4886,5.8353,5.9252,6.0527,6.2216,6.4009,6.509,6.5464,6.6425,6.7203,6.7755,6.7626,6.7496,6.7496,6.669,6.5713,6.4304,5.9961,5.6667,5.4129,5.1751,5.0749,5.0636,5.0585,5.0794,5.1357,5.2893,5.3381,5.2944,5.1327,0.0,4.6825,4.336,0.0,0.0,0.0,0.0,4.378,4.5862,0.0,4.8669,4.9614,4.9708,4.9289,4.8111,4.7345,4.5664,0.0,4.1422,3.9935,3.4464,0.0,0.0,0.0,0.0,4.1156,4.3853,4.5943,4.7369,4.7965,4.7671,4.7504,4.7504,4.6026,4.4982,4.4787,4.3103,4.1649,4.0562,3.813,3.5439,3.251,0.0,0.0,0.0,0.0,0.0,0.0,0.0,0.0,0.0,0.0,0.0,0.0,0.0,0.0,0.0,0.0,0.0,0.0,0.0,0.0,0.0,0.0,0.0,0.0,0.0,0.0,0.0,0.0,0.0,4.5295,4.8115,0.0,0.0,0.0,0.0,4.6345,4.9444,5.2735,5.5993,5.8503,6.1014,6.3641,6.4507,6.4619,6.3984,6.6031,6.6658,6.5868,6.7082,6.7684,6.7667,6.7045,6.678,6.6685,6.5202,6.4501,6.4312,6.3017,6.0812,5.8048,5.6234,5.5265,5.4692,5.3835,5.353,5.3655,5.4474,5.4794,5.4901,5.5596,5.2981,4.9205,4.7215,4.5048,0.0,0.0,4.5183,4.7149,4.8048,4.932,5.0491,5.0592,5.0592,5.0391,4.9653,4.8852,4.7412,0.0,4.318,4.1744,3.8587,0.0,3.8977,3.8635,4.0484,4.2687,4.4529,4.5988,4.6896,4.6929,4.6961,4.6961,4.6961,4.618,4.5467,4.482,4.4043,4.2623,4.061,3.9123,3.6742,3.3223,3.0091,0.0,0.0,0.0,0.0,0.0,0.0,0.0,0.0,0.0,0.0,0.0,0.0,0.0,0.0,0.0,0.0,0.0,0.0,0.0,0.0,0.0,0.0,0.0,0.0,0.0,0.0,0.0,0.0,4.7928,5.1287,0.0,4.8633,4.9314,5.0263,5.1082,5.4688,5.7509,5.8998,6.1113,6.2658,6.3406,6.3736,6.3804,6.3566,6.431,6.4779,6.4939,6.538,6.5839,6.6307,6.6125,6.6002,6.6002,6.543,6.4912,6.4376,6.398,6.2326,5.9943,5.8752,5.7872,5.7227,5.6524,5.6588,5.6987,5.6877,5.6858,5.6655,5.5577,5.3529,5.1226,4.967,4.8308,4.7234,4.6882,4.7383,4.8089,4.8497,4.926,4.9792,4.9085,4.8859,4.8564,4.7965,4.7636,4.6946,4.5472,4.4476,4.3086,4.082,4.1056,4.1232,4.0658,4.2447,4.4204,4.5305,4.6277,4.6892,4.6892,4.6892,4.6698,4.6245,4.5094,4.4118,4.3416,4.1873,4.0661,3.9862,3.8138,3.6374,3.4695,3.1545,2.8165,0.0,0.0,0.0,0.0,0.0,0.0,0.0,0.0,0.0,0.0,0.0,0.0,0.0,0.0,0.0,0.0,0.0,0.0,0.0,0.0,0.0,0.0,0.0,0.0,0.0,0.0,5.065,5.0492,5.3682,5.4799,5.2196,5.3117,5.4128,5.481,5.7859,5.9942,6.0529,6.2077,6.2923,6.2831,6.3026,6.3046,6.2913,6.3413,6.3948,6.4385,6.4634,6.509,6.559,6.5368,6.5303,6.5202,6.5039,6.4623,6.4164,6.4164,6.2864,6.096,6.0432,5.9678,5.8945,5.8367,5.8462,5.8816,5.8186,5.781,5.7261,5.5415,5.3957,5.2708,5.1427,5.0691,5.0124,4.9525,4.9159,4.8927,4.8849,4.8956,4.886,4.7879,4.7318,4.6929,4.6582,4.6301,4.5929,4.5451,4.5303,4.4591,4.2648,4.2877,4.3136,4.2391,4.3525,4.4613,4.5287,4.5993,4.6442,4.6512,4.6442,4.6153,4.5484,4.3939,4.2673,4.1915,4.0168,3.897,3.8488,3.6814,3.531,3.4188,3.0924,2.8074,2.5727,0.0,0.0,0.0,0.0,0.0,0.0,0.0,0.0,0.0,0.0,0.0,0.0,0.0,0.0,0.0,0.0,0.0,0.0,0.0,0.0,0.0,0.0,0.0,4.5065,4.8742,5.1565,5.2858,5.5295,5.6429,5.5341,5.6246,5.7,5.7382,5.8772,5.9998,6.0867,6.17,6.2164,6.2128,6.2877,6.2852,6.2103,6.3538,6.4322,6.4357,6.5169,6.5526,6.5526,6.4838,6.4601,6.4532,6.3895,6.36,6.36,6.36,6.2668,6.1291,6.1145,6.0639,5.9873,5.9182,5.8944,5.8875,5.8246,5.7556,5.6772,5.5458,5.4506,5.3699,5.2395,5.202,5.1842,5.1285,5.0617,4.9831,4.9119,4.8472,4.7761,4.7017,4.6262,4.5728,4.5697,4.5036,4.451,4.451,4.5769,4.6144,4.4107,4.4301,4.4527,4.3848,4.3635,0.0,4.452,4.507,4.5478,4.5593,4.5447,4.5132,4.4622,4.2669,4.1124,4.0516,3.9123,3.7816,3.655,3.5228,3.3565,3.1526,2.8251,2.6242,2.5638,0.0,0.0,0.0,0.0,0.0,0.0,0.0,0.0,0.0,0.0,0.0,0.0,0.0,0.0,0.0,0.0,0.0,0.0,0.0,0.0,0.0,4.2109,4.527,4.6176,4.924,5.2354,5.499,5.6969,5.8215,5.8393,5.8699,5.8912,5.9002,6.0532,6.127,6.0915,6.17,6.1732,6.067,6.1312,6.1616,6.1534,6.2544,6.3311,6.3868,6.4042,6.4147,6.4147,6.3967,6.3823,6.3823,6.3639,6.36,6.36,6.3083,6.1968,6.0677,6.1118,6.0427,5.9182,5.8562,5.8031,5.7668,5.752,5.6976,5.6264,5.5472,5.4684,5.3808,5.2562,5.1782,5.1294,5.0626,4.9395,4.8338,4.8147,4.7473,4.6701,4.5984,4.5646,4.537,4.4905,4.4662,4.451,4.451,4.4887,4.4997,4.4362,4.3987,4.3894,4.4206,4.4278,0.0,4.4502,4.4688,4.4595,4.4173,4.4037,4.3572,4.2435,4.0903,3.9647,3.8983,3.682,3.5583,3.5673,3.4002,3.2557,3.1368,2.9088,2.7508,0.0,0.0,0.0,0.0,0.0,0.0,0.0,0.0,0.0,0.0,0.0,0.0,0.0,0.0,0.0,0.0,0.0,0.0,0.0,0.0,0.0,0.0,4.5214,4.8161,4.9138,5.1687,5.4403,5.6898,5.8289,5.9264,5.9785,6.006,6.0,5.9487,6.0583,6.0963,6.0156,6.0579,6.0458,5.9582,6.0628,6.1224,6.1289,6.2393,6.3186,6.36,6.36,6.36,6.36,6.3343,6.3158,0.0,6.2931,6.2779,6.2779,6.2358,6.1491,0.0,0.0,0.0,0.0,0.0,5.752,5.7147,5.692,5.6578,5.5961,5.4865,5.3909,5.2967,5.1655,5.0657,5.0009,4.9519,4.8576,4.7575,4.7575,4.7043,4.6339,4.5909,4.5367,4.4825,4.4461,4.3874,4.3457,4.3457,0.0,0.0,4.3457,4.3472,4.342,4.3574,4.3594,4.3548,4.3548,4.3714,4.3745,4.3503,4.3366,4.2743,4.1553,4.0127,0.0,0.0,0.0,3.4486,3.379,3.2164,0.0,0.0,0.0,0.0,0.0,0.0,0.0,0.0,2.6384,2.6469,0.0,0.0,0.0,0.0,0.0,0.0,0.0,0.0,0.0,0.0,0.0,0.0,0.0,0.0,0.0,0.0,4.7904,5.0369,5.2625,5.4697,5.6524,5.8188,5.897,5.9512,5.9867,6.0371,6.0184,5.9081,5.9582,5.9648,5.9012,0.0,0.0,0.0,0.0,6.1289,6.1218,6.2733,6.3417,6.3343,6.3343,6.3343,6.3343,6.2779,6.2513,6.2436,6.1883,6.1676,6.1676,6.1494,6.0879,5.9964,5.9455,5.8351,5.7072,5.7072,5.7072,0.0,0.0,0.0,0.0,5.3837,5.2637,5.1701,5.0199,4.9197,4.8512,4.8512,4.7999,4.7487,4.7487,4.6895,4.6325,4.6264,4.5212,4.4273,4.4124,4.3054,4.2179,4.2121,4.2092,4.2092,4.2092,4.2712,4.3074,4.245,4.2242,0.0,4.2168,4.2624,4.2951,4.3021,0.0,0.0,4.1368,3.9941,3.8376,3.6751,3.5967,3.4457,3.1898,3.0768,3.0329,3.0668,3.0449,3.0479,3.0665,3.0539,3.0272,2.9943,2.8003,2.7961,0.0,0.0,0.0,0.0,0.0,0.0,0.0,0.0,0.0,0.0,0.0,0.0,0.0,0.0,0.0,4.635,4.8687,5.0735,5.234,5.3647,5.5142,5.6958,5.7265,5.7825,5.9078,5.9317,5.9249,5.9012,5.9149,5.9149,5.9012,5.9012,0.0,5.9012,6.0496,6.1074,6.0563,6.2029,6.2513,6.2076,0.0,0.0,6.2076,6.1917,6.1883,6.1917,6.1756,6.1676,6.1609,6.0439,5.8922,5.7364,5.8208,5.7686,5.6459,5.6459,5.6179,5.5701,5.5653,5.5572,5.5231,5.3004,5.2118,5.1619,4.9439,4.8677,0.0,4.8512,4.792,4.7267,4.7267,4.6604,4.5874,4.5316,4.4937,4.4471,4.3449,4.3073,4.2673,4.2179,4.2092,4.2092,4.2092,4.2222,4.232,4.2203,4.2129,4.2135,4.2135,4.2252,4.2106,4.158,4.1522,4.12,4.0383,3.9121,3.8463,3.8638,3.7416,3.5712,3.3436,3.3636,3.3539,3.2936,3.2194,3.1744,3.1703,3.1453,3.1289,3.1189,2.9869,2.9607,0.0,0.0,0.0,0.0,0.0,0.0,0.0,0.0,0.0,0.0,0.0,3.8824,4.0358,0.0,4.5644,4.7899,4.982,5.136,5.2472,5.3075,5.4018,5.5722,5.6267,5.6913,5.8001,5.8103,5.8103,5.8103,5.8103,5.8103,5.8103,5.8103,5.8103,5.8103,5.9565,6.0197,5.9895,6.1379,6.1963,6.1676,6.1676,6.1676,6.1676,6.135,6.1185,6.1185,6.0853,6.0685,6.0652,5.9559,5.8079,5.6478,5.6661,5.6368,5.5861,5.5861,5.5377,5.4685,5.4685,5.4348,5.3765,5.2269,5.1196,5.0273,4.8834,4.7804,4.7189,4.7189,4.6872,4.655,4.655,4.6225,4.5808,4.5459,4.514,4.4705,4.4066,4.3427,4.2905,4.2615,4.2295,4.2092,4.2092,4.2092,4.2092,4.2092,4.2092,4.2092,4.2092,4.2092,4.1976,4.1628,4.1599,4.1337,4.0641,3.9054,3.7825,3.7414,3.5996,3.4668,3.3441,3.334,3.3293,3.3145,3.267,3.214,3.1629,3.1523,3.1407,3.1198,3.0648,3.0683,0.0,0.0,0.0,0.0,0.0,0.0,0.0,0.0,3.6488,3.8134,3.9558,4.1085,4.3168,4.5183,4.722,4.9387,5.0727,5.176,5.2527,5.2557,5.2986,5.4283,5.5202,5.6084,5.6921,5.7022,5.7055,5.7189,5.7222,5.7222,5.7222,5.7222,5.7222,5.7222,5.8495,5.9187,5.9276,6.0612,6.1265,6.135,6.135,6.135,6.1268,6.0769,6.0548,6.0463,5.9946,5.9652,5.9457,5.8539,5.7388,5.6143,5.5011,5.4686,5.4883,5.4883,5.4348,5.3719,5.3719,5.3196,5.2483,5.1539,5.0334,4.9045,4.8149,4.6991,4.5895,4.5895,4.5895,4.5895,4.5895,4.5895,4.5895,4.5895,4.5488,4.5053,4.4908,4.4066,4.3197,4.2767,4.2334,4.1875,4.1564,4.1564,4.1647,4.2009,4.2092,4.2092,4.2092,4.2092,4.2092,4.2092,4.2092,4.1749,4.0809,3.9218,3.7522,3.5664,3.458,3.3765,3.3225,3.262,3.2542,3.2908,3.2774,3.229,3.1662,3.144,3.1318,3.1192,3.1192,3.1552,3.6526,3.463,3.4324,3.5747,3.6006,3.6889,0.0,0.0,4.0487,4.2381,4.3652,4.4633,4.563,4.7111,4.8654,5.0225,5.0788,5.1234,5.196,5.1655,5.1685,5.2433,5.3566,5.4778,5.6151,5.6285,5.6553,5.7156,5.7222,5.7222,5.7222,5.7222,5.7222,5.7222,5.8026,5.8564,5.8591,5.9465,5.9858,5.9946,5.9946,5.9946,5.9946,5.9892,5.9804,5.9804,5.9716,5.936,5.8594,5.7037,5.5954,5.5106,5.3481,5.2846,5.2962,5.2962,5.2874,5.2785,5.2785,5.2695,5.2303,5.0849,4.9824,4.8955,4.7457,4.6479,4.5895,4.5895,4.5895,4.5895,4.5895,4.5895,4.5895,4.5895,4.5837,4.5605,4.5024,4.4763,4.4065,4.2134,4.1677,4.1191,3.976,3.9563,4.0114,4.1814,4.2092,4.2092,4.2092,4.2092,4.2092,4.2092,4.2092,4.1389,3.9648,3.9562,3.8413,3.5557,3.5849,3.5468,3.4245,3.4058,3.4058,3.411,3.3385,3.2877,3.2792,3.2068,3.1858,3.2322,3.2322,3.2147,3.9295,3.7793,3.7461,3.8329,3.9258,4.0308,4.1749,4.2291,4.2888,4.4158,4.519,4.595,4.6311,4.7342,4.8319,0.0,4.9296,4.9888,5.0442,5.0141,4.986,5.0069,5.0606,5.1922,5.4306,5.4897,5.5259,5.5554,5.5949,5.6179,5.6179,5.6179,5.6179,5.6179,5.6901,5.7346,5.7347,5.8032,5.8613,5.9069,5.9069,5.9295,5.9716,5.9716,5.9331,5.876,5.7769,5.6987,5.6203,5.5121,5.4255,5.3543,5.2246,5.1758,5.1758,5.2426,5.2215,5.1758,5.1758,5.1419,5.0828,5.0088,4.9228,4.8253,4.7556,4.6679,4.5895,4.5895,4.5895,4.5895,4.5895,4.5384,4.4989,4.4989,4.4527,4.3975,4.3696,4.3361,4.2851,4.1865,4.1113,4.0474,3.9753,3.9427,3.9475,4.0287,4.0374,4.0374,4.0374,4.0374,4.0374,4.0173,4.0173,3.9664,3.8342,3.827,3.7395,3.5295,3.4992,3.4564,3.3731,3.3408,3.3233,3.3233,3.2906,3.2754,3.2754,3.2309,3.2418,3.2971,3.2971,3.2827,3.9872,3.9589,4.0017,4.0227,4.1915,4.3382,4.2814,4.3723,4.4863,4.5396,4.5763,4.6092,4.622,4.6717,4.7139,4.7321,4.7965,4.8655,4.9184,4.8764,4.8435,4.8357,4.8247,4.9126,5.1502,5.2573,5.3277,5.3579,5.4058,5.4409,5.4601,5.4633,5.4633,5.4633,5.5144,5.5496,5.5655,5.6285,5.6901,5.7796,5.7796,5.8147,5.885,5.885,5.8455,5.7684,5.6495,5.553,5.4853,5.3867,5.3101,5.2398,5.1199,5.0763,5.0857,5.1512,5.1326,5.0763,5.0763,5.0316,4.9669,4.9669,4.8943,4.8014,4.784,4.6813,4.5734,4.5533,4.5293,4.5018,4.5018,4.4434,4.3937,4.3937,4.3368,4.2792,4.2792,4.2439,4.1964,4.1516,4.0696,3.9987,3.9548,3.9176,3.8884,3.8884,3.8884,3.8959,3.9149,3.921,3.9094,3.8801,3.8738,3.8282,3.7322,3.7052,3.6251,3.4719,3.4164,3.3728,3.3284,3.2923,3.2731,3.2731,3.2731,3.2731,3.2731,3.2731,3.2996,3.3501,3.3501,3.3573,3.6679,3.8425,4.0686,4.112,4.3389,4.551,4.5452,4.6118,4.6711,4.6744,4.5726,4.4953,4.5611,4.5153,4.5094,4.6343,4.7176,4.7854,4.8419,4.8039,4.7639,4.7639,4.7022,4.6978,0.0,4.8986,5.0314,5.1611,5.1734,5.1955,5.2664,5.2695,5.2695,5.2695,5.2726,5.3034,5.3651,5.3682,5.4391,5.5842,5.5842,5.6056,5.6673,5.6673,5.6673,5.6673,5.6577,5.6207,5.5561,5.3839,5.2792,5.2007,5.0359,4.9766,4.9766,4.9766,4.9766,4.9766,4.9766,4.9766,4.9669,4.9669,4.9233,4.8566,4.7956,4.6633,4.5222,4.4481,4.3654,4.2889,4.2889,4.2889,4.2889,4.2889,4.2792,4.2792,4.2792,4.2765,4.2312,4.0755,4.0428,3.9855,3.8361,3.8063,3.8063,3.8063,3.8063,3.8313,3.9078,3.921,3.9094,3.8801,3.8675,3.8017,3.6701,3.6445,3.568,3.4125,3.4006,3.3789,3.3308,3.326,3.326,3.326,3.326,3.326,3.326,3.326,3.3525,3.4006,3.4006,3.4294,3.9549,4.0925,4.2189,4.4057,4.5563,4.6495,4.6127,4.6283,4.6136,4.5101,4.4134,4.3403,4.3012,4.2767,4.2836,4.3576,4.4648,4.5716,4.6635,4.6689,4.6388,4.5966,4.5777,0.0,0.0,0.0,0.0,5.0229,5.1123,5.1739,5.1898,5.2359,5.2606,5.2606,5.2606,5.2698,5.2914,5.2944,5.3375,5.4268,5.5285,5.584,5.5961,5.5287,5.5137,5.5469,5.3486,5.2773,5.2862,5.0964,5.0367,5.0485,4.9484,4.9059,4.9059,4.9059,4.8355,4.7612,4.9155,4.9407,4.9021,4.8709,4.8127,4.7461,4.6544,4.5548,4.4546,4.4041,4.3557,4.328,4.29,4.2306,4.1716,4.1716,4.1246,4.0769,4.0769,4.0769,4.0591,4.0032,3.9701,3.927,3.8718,3.8266,3.8015,3.8015,3.7688,3.7602,3.7861,3.7407,3.6964,3.6684,3.6496,3.6023,3.5451,3.5379,3.5114,3.4583,3.4246,3.3958,3.3789,3.3477,3.3284,3.3284,3.3284,3.3452,3.3789,3.3789,3.4054,3.4559,3.4559,3.4655,4.1239,4.2683,4.3912,4.5857,4.6676,4.6881,4.6592,4.6007,4.5271,4.3934,4.2447,4.1208,4.0607,3.9868,3.9847,4.1288,4.2376,4.3708,4.5312,4.5457,4.5161,4.4663,4.4482,4.4192,0.0,0.0,0.0,4.8192,4.9491,5.0336,5.0548,5.1212,5.1604,5.1604,5.1604,5.1604,5.1604,5.1604,5.1937,5.2601,5.3718,5.4231,5.4231,5.3575,5.3414,5.374,5.1829,5.0975,5.0859,4.9161,4.8517,4.8333,4.7612,4.7275,4.7275,4.7275,4.6461,4.5581,4.7698,4.8052,4.7476,4.7242,4.6939,4.6671,4.5711,4.4873,4.4006,4.3306,4.2791,4.2356,4.1776,4.1145,4.0642,4.0642,4.016,3.9697,3.9697,3.9697,3.9697,3.9697,3.9396,3.917,3.917,3.8843,3.8617,3.8617,3.814,3.7638,3.7139,3.6596,3.6106,3.5549,3.5307,3.5114,3.4823,3.4823,3.4823,3.4823,3.4511,3.4318,3.4318,3.4006,3.3837,3.3837,3.3837,3.4006,3.4318,3.4318,3.4487,3.4823,3.4823,3.4823,4.172,4.3605,4.5484,4.664,4.6814,4.6726,4.6625,4.5451,4.4015,4.3122,4.0624,3.8491,0.0,0.0,3.6315,3.9392,4.0583,4.1976,4.4472,4.4385,4.4037,0.0,0.0,0.0,0.0,0.0,0.0,4.5779,0.0,4.8043,4.8653,4.932,4.9669,4.9669,4.9669,4.9669,4.9669,4.9669,4.9988,5.0627,5.1265,5.1556,5.1556,5.1556,5.1585,5.1614,5.1454,5.0759,4.956,4.8496,4.7235,4.607,4.5029,4.4602,4.4602,4.4602,4.4221,4.3813,4.5344,4.5757,4.5397,4.5478,4.5754,4.6134,4.5461,4.4545,4.3492,4.2423,4.1388,4.0425,3.9873,3.9722,3.9697,3.9697,3.9697,3.9697,3.9697,3.9697,3.9697,3.9697,3.9697,3.9697,3.9697,3.9697,3.9697,3.9697,3.9245,3.8417,3.7095,3.6848,3.643,3.5357,3.5284,3.5163,3.4871,3.4847,3.4823,3.4823,3.4823,3.4823,3.4823,3.4823,3.4823,3.4823,3.4823,3.4823,3.4823,3.4823,3.4823,3.4823,3.4823,3.4823,4.4465,4.5355,4.5734,4.6613,4.6421,4.5683,4.4601,4.3583,4.2191,3.9757,3.7347,3.5347,3.4208,3.4359,0.0,3.6983,3.9421,0.0,4.3921,4.4472,0.0,4.4647,0.0,4.4298,4.4008,4.4531,0.0,0.0,4.6795,4.784,4.8014,4.9059,4.9669,4.9669,4.9669,4.9669,4.9669,4.9669,4.9756,4.993,5.0598,5.0917,5.0917,5.0917,5.1178,5.1454,4.9636,4.9019,4.9019,4.6505,4.5605,4.5532,4.443,4.4004,4.4004,4.4004,4.303,4.1855,4.2286,4.3506,4.4834,4.489,4.4969,4.4967,4.3971,4.3398,4.3026,4.2341,4.1645,4.1003,4.045,3.9998,3.9697,3.9697,3.9697,3.9697,3.9697,3.9697,3.9697,3.9697,3.9697,3.9697,3.9697,3.9697,3.9697,3.9697,3.9469,3.8913,3.809,3.7443,3.6972,3.6427,3.5864,3.5523,3.5425,3.5064,3.4823,3.4823,3.4823,3.4823,3.4823,3.4823,3.4823,3.4823,3.4823,3.4823,3.4823,3.4823,3.4823,3.4823,3.4823,3.4823,4.5557,4.6127,4.6241,4.6282,4.5516,4.4393,4.2994,4.1362,3.9174,3.6104,3.4142,3.2378,3.0135,3.1358,3.3173,0.0,0.0,0.0,4.2847,4.3921,4.4501,0.0,4.4734,0.0,4.4414,4.4966,4.5314,0.0,4.6853,4.7782,4.7782,4.8972,4.9669,4.9669,4.9669,4.9669,4.9669,4.9669,4.9473,4.8951,4.9323,4.9294,4.8759,4.8759,4.8929,4.9239,0.0,4.7335,4.7177,4.4867,4.3899,4.3873,4.2462,4.1918,4.1918,4.1918,4.1305,4.0618,4.1132,4.2112,4.3153,4.3196,4.3547,4.3823,4.3184,4.2986,4.2861,4.2308,4.1932,4.158,4.1028,4.0475,4.0049,4.0049,3.9873,3.9697,3.9697,3.9697,3.9697,3.9697,3.9697,3.9697,3.9697,3.9697,3.9697,3.9594,3.9362,3.903,3.8502,3.7804,3.7185,3.6638,3.6247,3.5954,3.5954,3.5689,3.5425,3.5184,3.5184,3.5064,3.4847,3.4823,3.4823,3.4823,3.4823,3.4823,3.4823,3.4823,3.4823,3.4823,3.4311,3.4233,4.5726,4.6132,4.6436,4.5697,4.4371,4.2886,4.1607,3.8922,3.576,3.2651,3.1,2.9318,2.6574,2.8361,3.0721,3.2235,0.0,3.8784,4.155,4.2824,4.3661,4.4095,4.4559,4.4818,4.4818,4.5457,4.5776,4.5504,4.6964,4.7782,4.7782,4.8972,4.9669,4.9669,4.9669,4.9669,4.9669,4.9669,4.9149,4.8021,4.8021,4.7383,4.6319,4.6238,4.6265,4.6319,0.0,0.0,4.5196,4.3519,4.2502,4.1983,4.0438,3.9798,3.9798,3.9722,3.9747,3.9948,4.0902,4.1329,4.1455,4.1455,4.2082,4.2861,4.2861,4.2861,4.2785,4.2384,4.2208,4.2057,4.158,4.0978,4.0526,4.0526,4.0099,3.9697,3.9697,3.9697,3.9697,3.9697,3.9569,3.9465,3.9362,3.9258,3.9025,3.8816,3.8712,3.8502,3.7974,3.767,3.7211,3.6446,3.6121,3.6074,3.6074,3.6026,3.5788,3.5236,3.5189,3.4975,3.4454,3.443,3.4382,3.4409,3.4531,3.4628,3.4628,3.4798,3.4944,3.4822,3.3884,3.349,4.5556,4.554,4.5494,4.4664,4.3092,4.14,3.9931,3.6684,3.3325,3.0955,2.8161,2.5993,2.5408,2.6923,2.903,3.1172,3.3817,3.6837,4.0491,4.0928,4.1826,0.0,4.4538,4.4422,4.4422,4.5326,0.0,0.0,0.0,4.7782,4.7782,4.8972,4.9669,4.9669,4.9669,4.9669,4.9669,4.9669,4.9149,4.8021,4.8021,4.7383,4.6319,4.5831,4.5858,4.6161,0.0,0.0,4.4649,4.246,4.1853,4.2081,4.0883,4.0375,4.0325,3.9848,3.9973,4.04,4.0601,4.1254,4.2007,4.2007,4.2133,4.2308,4.2308,4.2308,4.2359,4.2735,4.2509,4.2133,4.2032,4.1279,4.0526,4.0526,4.0099,3.9697,3.9697,3.9697,3.9697,3.9697,3.8921,3.8161,3.7902,3.7026,3.6271,3.6054,3.5859,3.564,3.553,3.6225,3.6694,3.6302,3.4922,3.4114,3.4114,3.3759,3.3493,3.3404,3.3404,3.3182,3.2694,3.2672,3.2494,3.2196,3.3001,3.3499,3.3499,3.4861,3.5473,3.5497,3.4667,3.4257,4.4837,4.4726,4.4356,4.3175,4.1756,3.9876,3.7151,3.3964,3.0716,2.7388,2.5355,2.3825,2.2564,2.4818,2.7115,2.8029,3.1004,3.4245,3.7368,3.8388,3.9843,4.2502,4.2981,4.32,4.3531,4.4434,4.4434,0.0,0.0,4.6652,4.6938,4.8682,4.9669,4.9669,4.9149,4.8852,4.8852,4.8223,4.7383,4.6242,4.6242,4.5714,4.4535,4.4068,4.4121,4.4509,4.3141,0.0,4.3661,4.2301,4.1907,4.2082,4.1254,4.0777,4.0526,4.0551,4.0526,4.0601,4.1178,4.1706,4.2158,4.2158,4.2158,4.2158,4.2158,4.2158,4.2208,4.2484,4.2359,4.2082,4.1806,4.1354,4.0664,3.9808,3.8761,3.8267,3.9465,3.8712,3.8056,3.8607,3.7713,3.6727,3.6595,3.5945,3.5398,3.5068,3.498,3.4869,3.4648,3.4536,3.4781,3.5223,3.456,3.3965,3.3965,3.3769,3.353,3.3269,3.3247,3.3051,3.2572,3.255,3.2441,3.2328,3.2745,3.2922,3.2654,3.3685,3.4108,3.3833,3.2922,3.2528,4.3822,4.3862,4.3536,4.1972,4.0536,3.8444,3.4871,3.1575,2.8215,2.4361,2.3018,2.2034,2.0321,2.2795,2.5132,0.0,2.8292,3.1604,3.4329,3.606,3.8027,4.0567,4.1275,0.0,4.2447,4.3368,0.0,0.0,0.0,0.0,4.6014,4.79,4.8951,4.8951,4.8122,4.7615,4.7615,4.6764,4.5714,4.467,4.467,4.4152,4.2961,4.2409,4.2459,4.2936,4.2258,0.0,0.0,4.2384,4.2233,4.2283,4.1731,4.1254,4.0902,4.1229,4.1153,4.0978,4.1856,4.2123,4.1953,4.1853,4.2023,4.2133,4.2007,4.1982,4.1982,4.1982,4.1848,4.1529,4.1106,4.069,4.0011,3.8563,3.7247,3.6727,3.8582,3.7501,3.6402,3.7287,3.6294,3.5288,3.5178,3.4736,3.4314,3.409,3.409,3.4,3.3663,3.2913,3.2685,3.3551,3.3663,3.3663,3.3663,3.3663,3.3514,3.2997,3.2976,3.2763,3.2317,3.2295,3.2253,3.2146,3.247,3.234,3.1866,3.2553,3.2637,3.218,3.1232,3.0884,4.282,4.313,4.333,4.177,3.9706,3.7357,3.4462,3.0171,2.613,2.3867,2.1637,2.0243,2.0567,2.1302,0.0,0.0,0.0,2.9138,3.3224,3.4513,3.6302,3.9816,4.0467,4.0788,4.1267,4.2306,0.0,0.0,0.0,0.0,4.5391,4.6174,4.6632,4.6632,4.6528,4.6424,4.6424,4.6319,4.5714,4.467,4.467,4.4152,4.2961,4.2409,4.2459,4.2911,0.0,0.0,0.0,4.2384,4.2459,4.2836,4.2308,4.2057,4.1957,4.1505,4.163,4.2007,4.2108,4.1793,4.107,4.0588,4.1225,4.2057,4.1555,4.1404,4.1404,4.1404,4.0621,3.9806,3.9757,3.8603,3.7206,3.6587,3.634,3.6294,3.6511,3.6294,3.6185,3.5945,3.498,3.4,3.3417,3.2436,3.1556,3.1344,3.1228,3.1228,3.1228,3.1112,3.1112,3.1228,3.1228,3.1228,3.1228,3.1228,3.1208,3.1169,3.1169,3.0952,3.0497,3.0478,3.028,2.9905,3.086,3.1158,3.0722,3.2233,3.2743,3.2411,3.1677,3.1137,4.1536,4.1982,4.1791,4.0297,3.8093,3.541,3.1928,2.8302,2.4967,2.2721,2.0955,1.9861,2.0112,2.0614,2.1468,0.0,0.0,0.0,2.8959,3.0416,3.2592,3.6392,3.7577,0.0,0.0,0.0,0.0,0.0,0.0,0.0,4.245,4.4567,4.5804,4.5804,4.5527,4.5289,4.5289,4.467,4.4126,4.3713,4.3713,4.3406,4.2961,4.2409,4.2459,4.2936,0.0,0.0,0.0,4.2735,4.2785,4.2961,4.2735,4.2459,4.2158,4.2283,4.1792,4.1052,4.1482,4.0793,3.9849,3.9426,3.9604,3.9873,3.9324,3.8966,3.8704,3.8704,3.8351,3.795,3.7645,3.6535,3.5647,3.6512,3.5335,3.4469,3.5859,3.498,3.4,3.4536,3.3438,3.2342,3.2092,3.1441,3.0995,3.0898,3.0898,3.0898,3.0898,3.0898,3.0898,3.0898,3.0898,3.0898,3.0898,3.0898,3.0898,3.0898,3.0898,3.082,3.0625,3.0605,3.0527,3.0371,3.0809,3.0678,2.9959,3.0933,3.099,3.0294,2.9848,2.952,3.9787,4.04,4.0158,3.8936,3.6452,3.3439,2.9954,2.6775,2.3942,2.1711,2.0489,1.9811,1.9811,2.0137,2.0639,0.0,0.0,2.3904,2.6206,2.7896,3.0131,3.3345,0.0,3.6433,0.0,0.0,0.0,0.0,0.0,0.0,0.0,4.2658,4.4093,4.4253,4.3857,4.3738,4.4002,4.3153,4.2811,4.2986,4.2986,4.2986,4.2961,4.2585,4.261,4.2961,0.0,0.0,0.0,4.24,4.2263,4.1923,4.1923,4.1678,4.1408,4.1776,4.1087,4.0026,4.0382,3.9593,3.8354,3.7992,3.7559,3.692,3.6563,3.6658,3.7031,3.6759,3.6493,3.6092,3.5312,3.458,3.4242,3.5446,3.4167,3.3161,3.467,3.3572,3.2477,3.3119,3.2227,3.1208,3.1228,3.0995,3.0898,3.0898,3.0898,3.0898,3.0898,3.0898,3.0898,3.0898,3.0898,3.0898,3.0898,3.0898,3.0898,3.0898,3.0898,3.0898,3.0898,3.0762,3.0762,3.0898,3.0762,3.0312,2.9458,2.975,2.9346,2.8404,2.8314,2.8282,3.7529,3.8488,3.8746,3.8098,3.5065,3.1639,2.9167,2.5906,2.2897,2.1053,2.0213,1.9811,1.9811,1.9811,2.0188,2.1317,2.2422,0.0,2.6206,2.7896,2.9553,0.0,0.0,3.4575,3.6232,0.0,0.0,0.0,0.0,0.0,0.0,4.0224,4.0777,4.1329,4.1354,4.1605,4.2267,4.2158,4.2434,4.2986,4.2986,4.2986,4.2986,4.2961,4.2961,0.0,0.0,0.0,0.0,4.11,4.0384,3.9216,3.9216,3.9216,3.9216,3.9216,3.9216,3.9216,3.9216,3.8073,3.6631,3.661,3.5157,3.3505,3.3505,3.5168,3.6828,3.6346,3.5443,3.4267,3.3069,3.2727,3.2727,3.2727,3.2727,3.2612,3.2363,3.2363,3.2133,3.1441,3.1325,3.1208,3.0995,3.0898,3.0898,3.0898,3.0898,3.0898,3.0898,3.0898,3.0898,3.0898,3.0898,3.0898,3.0898,3.0898,3.0898,3.0898,3.0898,3.0898,3.0898,3.0449,3.043,3.0879,3.043,2.9886,2.9122,2.9122,2.8477,2.7441,2.7441,2.7649,3.3234,3.4094,3.4278,3.305,3.0905,2.8543,2.6462,2.4249,2.228,2.0945,2.0213,1.9811,1.9811,1.9811,2.0413,2.2297,2.2899,0.0,0.0,0.0,0.0,3.0708,3.4324,3.7211,0.0,0.0,0.0,0.0,0.0,0.0,0.0,3.9848,4.0199,4.0752,4.1153,4.143,4.1605,4.1605,4.1681,4.1856,4.2233,4.2409,4.2434,4.2811,0.0,0.0,0.0,0.0,0.0,4.11,4.0384,3.9216,3.9216,3.9216,3.9216,3.9216,3.8625,3.7865,3.7532,3.6503,3.5233,3.4581,3.3947,3.3327,3.3037,3.3485,3.4011,3.3861,3.3593,3.3161,3.2841,3.2727,3.2612,3.2477,3.2383,3.2363,3.2018,3.1787,3.1556,3.1325,3.1112,3.0995,3.0898,3.0898,3.0996,3.1269,3.1074,3.0996,3.1289,3.1074,3.0898,3.0898,3.0898,3.0898,3.0898,3.0898,3.0898,3.0898,3.0586,3.041,3.041,3.0,2.9731,2.9659,2.9505,2.9122,2.8366,2.8366,2.7971,2.7098,2.7098,2.7213,2.947,3.0729,3.1128,3.0281,2.8281,2.6219,2.4835,2.305,2.1387,2.0271,1.9747,1.95,1.95,1.95,1.9945,2.1329,2.2072,0.0,0.0,0.0,0.0,3.126,0.0,0.0,0.0,0.0,0.0,0.0,0.0,0.0,0.0,3.9697,3.9848,4.0199,4.0551,4.0827,4.1028,4.1028,4.1128,4.1329,4.1681,4.1856,4.1856,4.1743,0.0,0.0,0.0,0.0,0.0,3.9034,3.825,3.7259,3.7259,3.7259,3.7281,3.7458,3.7046,3.6303,3.6024,3.5332,3.4383,3.3617,3.3265,3.3078,3.2809,3.2727,3.2727,3.2727,3.2727,3.2727,3.2727,3.2612,3.2498,3.2363,3.2248,3.2018,3.1672,3.1441,3.1208,3.1228,3.0995,3.0898,3.0898,3.1016,3.1211,3.1484,3.1445,3.1406,3.1504,3.1289,3.1074,3.0918,3.0898,3.0898,3.0898,3.0898,3.082,3.0644,3.0351,3.0137,2.9961,2.9439,2.9191,2.9122,2.8857,2.8423,2.7936,2.7676,2.725,2.6899,2.7048,2.7234,0.0,2.8024,2.8847,2.8821,2.6693,2.4431,2.3879,2.2146,0.0,1.9202,1.8999,1.8946,1.8994,1.9023,1.9047,1.9186,2.0607,0.0,0.0,2.4913,0.0,0.0,3.4248,0.0,0.0,0.0,0.0,0.0,0.0,0.0,0.0,3.9697,3.9697,3.9697,3.9697,3.9948,4.0345,4.0345,4.0489,4.0881,4.1039,4.0931,4.0931,3.9953,0.0,0.0,0.0,0.0,0.0,3.5545,3.4825,3.4072,3.4072,3.4072,3.4113,3.4548,3.4714,3.4714,3.4672,3.4383,3.3948,3.3472,3.3058,3.2612,3.2612,3.2612,3.2727,3.2727,3.2727,3.2727,3.2727,3.2498,3.2248,3.2248,3.2018,3.1672,3.1325,3.1208,3.1228,3.0995,3.0898,3.0898,3.0898,3.1211,3.1484,3.1504,3.1855,3.1992,3.1621,3.1543,3.1367,3.0976,3.0918,3.0898,3.0898,3.0898,3.0703,3.0273,3.0176,2.998,2.959,2.881,2.8641,2.8914,2.8328,2.7788,2.7548,2.6866,2.6591,2.6591,2.6995,2.7398,2.2076,0.0,2.3857,2.3424,2.2824,2.2121,0.0,2.0711,1.9788,1.9148,1.8655,1.8449,1.8788,1.8939,1.9483,2.0973,0.0,2.349,2.379,0.0,0.0,3.5102,0.0,0.0,0.0,0.0,0.0,0.0,0.0,0.0,0.0,3.9697,3.9697,3.9697,3.9697,3.9332,3.8567,3.8461,3.819,3.7425,3.7825,3.8013,3.8037,3.8213,0.0,0.0,0.0,0.0,3.6027,3.5917,3.5125,3.4072,3.4072,3.4072,3.4072,3.4196,3.4238,3.4176,3.3824,3.3637,3.3472,3.2786,3.233,3.2018,3.2018,3.2383,3.2727,3.2727,3.2612,3.2363,3.2363,3.2133,3.1903,3.1556,3.1441,3.1325,3.1112,3.0995,3.0995,3.0898,3.0898,3.0898,3.0898,3.0976,3.1152,3.1465,3.1601,3.1758,3.1992,3.1719,3.1484,3.1387,3.1074,3.0898,3.0898,3.0898,3.084,3.0742,3.0098,2.9556,2.9234,2.841,2.7828,2.7488,2.7085,2.6938,2.6829,2.6628,2.6591,2.6591,2.6995,2.7398,2.0263,2.1267,2.2246,2.1945,2.1669,2.1418,2.1117,2.0207,1.921,1.8448,1.7986,1.7833,1.8405,1.8539,1.9022,0.0,2.1871,0.0,0.0,0.0,3.1674,3.5248,0.0,0.0,0.0,0.0,0.0,0.0,0.0,0.0,0.0,3.8056,3.8056,3.8056,3.8056,3.8056,3.795,3.795,3.7287,3.6185,3.6461,3.6599,3.6599,3.6453,3.6365,0.0,0.0,0.0,3.4338,3.4104,3.3592,3.31,3.31,3.31,3.312,3.3325,3.3407,3.3366,3.312,3.2895,3.2574,3.2214,3.1903,3.1787,3.1787,3.2018,3.2268,3.2268,3.2133,3.2018,3.2018,3.1787,3.1556,3.1325,3.1228,3.1112,3.0898,3.0898,3.0898,3.0898,3.0898,3.0898,3.0898,3.1055,3.125,3.1484,3.1855,3.2109,3.2168,3.2129,3.1953,3.1562,3.1309,3.1094,3.0918,3.0762,3.0568,3.0374,2.9715,2.9138,2.8611,2.7872,2.7314,2.6791,2.6682,2.6591,2.6591,2.6591,2.6683,2.6866,2.727,2.7673,1.9731,2.0932,2.2146,2.1856,2.1531,2.1176,2.102,1.9788,1.846,1.7542,1.7246,1.7344,0.0,1.8111,0.0,0.0,0.0,0.0,2.6907,2.9535,3.1932,0.0,0.0,0.0,0.0,0.0,0.0,0.0,0.0,0.0,0.0,3.5956,3.5956,3.5956,3.5956,3.6386,3.7157,3.7323,3.6858,3.5663,3.5663,3.5663,3.564,3.4692,3.4155,0.0,0.0,0.0,3.2227,3.184,3.1673,3.1787,3.1787,3.1787,3.1848,3.221,3.2311,3.225,3.225,3.2009,3.1592,3.1652,3.1672,3.1672,3.1672,3.1672,3.1672,3.1672,3.1672,3.1672,3.1672,3.1441,3.1208,3.1208,3.1112,3.0898,3.0898,3.0898,3.0898,3.0898,3.0898,3.0898,3.0898,3.1191,3.1426,3.1426,3.2148,3.2559,3.2129,3.25,3.2461,3.1601,3.1465,3.125,3.082,3.0354,3.0045,2.9585,2.9221,2.8687,2.7861,2.7285,2.6791,2.6591,2.6591,2.6591,2.6591,2.6591,2.6793,2.7196,2.7581,2.7985,1.9462,2.0545,2.1281,1.9848,1.9788,1.9824,1.8823,1.8043,1.7468,0.0,0.0,0.0,0.0,1.8483,1.9594,0.0,0.0,2.5271,0.0,0.0,0.0,0.0,0.0,0.0,0.0,0.0,0.0,0.0,0.0,0.0,0.0,0.0,3.5004,3.5004,3.5004,3.4585,3.3866,3.4603,3.4469,3.3275,3.3275,3.3275,3.3275,3.3048,3.282,0.0,0.0,3.2072,3.1903,3.1822,3.1727,3.1787,3.1787,3.1787,3.1787,3.1868,3.1647,3.1325,3.1325,3.1057,3.0963,3.1321,3.1228,3.0995,3.0995,3.0995,3.0995,3.0995,3.1228,3.1325,3.1325,3.1228,3.0995,3.0995,3.0898,3.0898,3.0898,3.0898,3.0898,3.0898,3.0898,3.0898,3.0898,3.0937,3.0996,3.0996,3.1719,3.2109,3.168,3.2305,3.2461,3.1601,3.1191,3.0684,3.0026,2.9526,2.9069,2.8445,2.8597,2.8331,2.7229,2.6828,2.67,2.6591,2.6591,2.6591,2.6591,2.6591,2.6793,2.7196,2.7581,2.7985,1.7903,1.8857,1.9703,1.844,1.9575,2.084,2.0003,1.8873,1.7854,0.0,0.0,0.0,0.0,0.0,2.0207,2.2211,0.0,0.0,0.0,0.0,0.0,0.0,0.0,0.0,0.0,0.0,0.0,0.0,0.0,0.0,0.0,0.0,3.292,3.292,3.292,3.2706,3.221,3.2636,3.2538,3.2002,3.2002,3.2014,3.2128,3.2128,3.2137,3.2018,0.0,3.1787,3.1556,3.1556,3.1441,3.1344,3.1344,3.1344,3.1305,3.1047,3.069,3.0313,3.0313,3.0201,3.0128,3.0325,3.029,3.0215,3.0449,3.0508,3.0566,3.082,3.0995,3.1112,3.1112,3.0995,3.0898,3.0898,3.0898,3.0957,3.1191,3.123,3.1289,3.1543,3.1582,3.1504,3.1269,3.123,3.1152,3.0918,3.1621,3.2012,3.1562,3.2461,3.2715,3.1641,3.1443,3.0953,3.0161,2.9355,2.8577,2.7903,2.7884,2.7512,2.6809,2.67,2.6591,2.6591,2.6591,2.6591,2.6591,2.6591,2.6903,2.749,2.7673,2.8095,1.6683,1.7571,1.8526,1.7759,1.9613,2.1391,2.0997,1.9801,1.8685,1.8542,0.0,0.0,0.0,2.0016,0.0,2.3329,0.0,0.0,0.0,0.0,0.0,0.0,0.0,0.0,0.0,0.0,0.0,0.0,0.0,0.0,0.0,0.0,3.105,3.105,3.105,3.105,3.105,3.105,3.1045,3.1251,3.1251,3.1326,3.1299,3.1299,3.139,3.1371,3.1371,3.1202,3.105,3.105,3.1014,3.0898,3.0898,3.0898,3.082,3.0254,2.9844,2.9551,2.9453,2.9414,2.9434,2.9531,2.957,2.9648,3.0078,3.0195,3.0293,3.0762,3.0898,3.0898,3.0898,3.0898,3.0898,3.0898,3.0957,3.1133,3.1445,3.1601,3.1758,3.2109,3.2168,3.207,3.1719,3.1582,3.1445,3.1211,3.1758,3.2051,3.1719,3.2617,3.2812,3.1521,3.1358,3.0988,2.9794,2.8953,2.8125,2.7382,2.7142,2.6903,2.6591,2.6591,2.6628,2.6719,2.6719,2.6719,2.6719,2.6811,2.7178,2.7765,2.7875,2.8297,1.6776,1.7665,1.862,1.8311,1.9032,1.9727,1.9674,1.9422,1.9447,2.0052,0.0,0.0,0.0,2.22,2.41,2.4927,0.0,0.0,0.0,0.0,0.0,0.0,0.0,0.0,0.0,0.0,0.0,0.0,0.0,0.0,0.0,0.0,0.0,3.0098,3.0098,3.0098,3.0098,2.9867,3.0171,3.0901,3.0901,3.0811,3.0631,3.0631,3.0429,3.0135,3.0135,3.0221,3.0234,3.0234,3.0488,3.0898,3.0898,3.0898,3.0781,2.9922,2.959,2.9512,2.9101,2.8965,2.9023,2.9434,2.957,2.9648,3.0078,3.0195,3.0293,3.0762,3.0898,3.0898,3.0898,3.0898,3.0898,3.0898,3.1191,3.1484,3.1504,3.1836,3.2129,3.2168,3.2168,3.2148,3.2129,3.1777,3.1641,3.2031,3.2129,3.2148,3.2129,3.2539,3.2377,3.1223,3.068,2.9756,2.7977,2.7512,2.7086,2.6664,2.6628,2.6628,2.6591,2.6591,2.6756,2.7123,2.7141,2.7141,2.7141,2.7508,2.771,2.7783,2.8168,2.8572,1.5342,1.5999,1.6939,1.7252,1.8441,1.9549,1.9843,1.9983,2.0318,2.1241,2.1537,0.0,0.0,0.0,2.426,0.0,0.0,0.0,0.0,0.0,0.0,0.0,0.0,0.0,0.0,0.0,0.0,0.0,0.0,0.0,0.0,0.0,0.0,2.9994,2.9889,2.9764,2.9764,2.9448,2.9419,2.9527,2.9742,2.9776,2.9859,2.9859,2.9778,2.9793,2.9793,2.978,2.9805,2.9805,3.0059,3.0488,3.0781,3.0703,3.041,3.0078,2.9785,2.9551,2.9375,2.9141,2.8945,2.9121,2.8984,2.8848,2.9277,2.9394,2.9492,2.9941,3.0078,3.0195,3.0742,3.0898,3.0898,3.0898,3.1211,3.1601,3.1875,3.2246,3.2637,3.2891,3.2734,3.248,3.2207,3.1816,3.1562,3.1738,3.1758,3.1758,3.1758,3.2148,3.1949,3.0719,3.0135,2.9385,2.8233,2.7805,2.738,2.6976,2.6719,2.6591,2.6591,2.6591,2.6774,2.7178,2.694,2.694,2.7178,2.7325,2.7526,2.7783,2.8205,2.8608,1.4767,1.5206,1.6035,1.629,1.7801,1.9381,1.9962,2.0647,2.1517,2.2615,2.2815,2.2998,2.3577,0.0,0.0,0.0,0.0,0.0,0.0,0.0,0.0,0.0,0.0,0.0,0.0,0.0,0.0,0.0,0.0,0.0,0.0,0.0,0.0,0.0,2.9493,2.9387,2.9245,2.9071,2.894,2.8727,2.8814,2.8866,2.9075,2.9075,2.9124,2.916,2.916,2.9238,2.9355,2.9355,2.9609,3.0039,3.0488,3.0469,3.0195,3.0195,3.0019,2.9746,2.9609,2.9375,2.9101,2.8965,2.873,2.8535,2.8828,2.8926,2.9004,2.9453,2.957,2.9707,3.0312,3.0566,3.0703,3.0859,3.1211,3.1601,3.1894,3.2305,3.2715,3.3144,3.2988,3.2695,3.2422,3.2012,3.1719,3.1719,3.1601,3.1562,3.1699,3.1855,3.156,3.0351,2.9686,2.9046,2.8425,2.8132,2.7801,2.7398,2.6995,2.6719,2.6591,2.6701,2.6903,2.7178,2.7031,2.7031,2.7178,2.7435,2.7636,2.7783,2.8315,2.8718,1.5405,1.5722,1.6407,1.5581,0.0,0.0,1.9777,2.1359,2.3078,2.425,2.4183,2.3861,2.3861,2.3939,0.0,0.0,0.0,0.0,0.0,0.0,0.0,0.0,0.0,0.0,0.0,0.0,0.0,0.0,0.0,0.0,0.0,0.0,0.0,0.0,2.889,2.891,2.8488,2.8615,2.8727,2.8727,2.8388,2.8281,2.8301,2.8301,2.8301,2.8301,2.8301,2.8535,2.8906,2.8926,2.918,2.9609,3.0019,3.0195,3.0195,3.0195,3.0195,3.0137,2.9726,2.959,2.9512,2.9062,2.8926,2.8926,2.8926,2.8926,2.9004,2.9434,2.9551,2.9551,2.957,2.9863,3.0293,3.0762,3.1191,3.1504,3.1504,3.1855,3.2285,3.2695,3.2773,3.2773,3.2793,3.2441,3.2148,3.2168,3.1797,3.166,3.2109,3.1777,3.111,2.996,2.9331,2.881,2.8425,2.8388,2.8205,2.7783,2.7398,2.6995,2.6609,2.6958,2.7178,2.7178,2.7563,2.7563,2.7178,2.7985,2.8168,2.7783,2.8608,2.8975,1.5322,1.5648,0.0,1.6392,0.0,0.0,0.0,2.2201,2.3394,0.0,2.5179,2.5057,2.5076,0.0,0.0,0.0,0.0,0.0,0.0,0.0,0.0,0.0,0.0,0.0,0.0,0.0,0.0,0.0,0.0,0.0,0.0,0.0,0.0,0.0,2.7921,2.7819,2.7699,2.753,2.7506,2.7506,2.7402,2.7715,2.8301,2.8301,2.8301,2.8301,2.8301,2.8359,2.8496,2.8789,2.9004,2.916,2.959,2.9766,2.9785,3.0098,3.0195,3.0234,3.043,3.0293,3.0,2.9863,2.9609,2.9316,2.9004,2.8926,2.8887,2.8711,2.8672,2.873,2.9043,2.9199,2.9414,2.9863,3.0293,3.0586,3.0586,3.0937,3.1387,3.1816,3.166,3.1543,3.1836,3.1543,3.1367,3.166,3.1348,3.0996,3.0994,3.0661,3.0173,2.9686,2.8972,2.8517,2.8407,2.7875,2.749,2.7361,2.6976,2.683,2.6995,2.6848,2.6885,2.7178,2.7013,2.7013,2.7178,2.7691,2.7893,2.7783,2.8608,2.8975,1.5696,1.6071,0.0,1.7382,1.8844,2.0644,2.248,0.0,0.0,0.0,2.5486,2.5357,2.5358,0.0,0.0,0.0,0.0,0.0,0.0,0.0,0.0,0.0,0.0,0.0,0.0,0.0,0.0,0.0,0.0,0.0,0.0,0.0,0.0,0.0,2.7219,2.7117,2.696,2.7035,2.7012,2.7012,2.7012,2.7285,2.7793,2.7969,2.8125,2.8301,2.8301,2.8301,2.832,2.8574,2.8672,2.8711,2.9141,2.9316,2.9355,2.9785,2.9941,2.998,3.0273,3.0293,3.0176,3.0,2.9883,2.9746,2.9316,2.9062,2.8867,2.8613,2.8418,2.8359,2.8613,2.8672,2.8828,2.9434,2.9766,2.9941,2.9941,3.0156,3.0488,3.0918,3.0781,3.0703,3.0957,3.0937,3.0918,3.0976,3.0801,3.0568,3.0161,2.9792,2.9367,2.8984,2.851,2.815,2.815,2.7691,2.7416,2.7416,2.7031,2.694,2.716,2.694,2.6866,2.694,2.6866,2.694,2.7178,2.7563,2.7856,2.804,2.8682,2.8975,1.6182,1.6873,1.7714,1.8459,1.9727,0.0,2.3809,2.4687,2.5156,2.5644,0.0,2.5137,2.5137,0.0,0.0,0.0,0.0,0.0,0.0,0.0,0.0,0.0,0.0,0.0,0.0,0.0,0.0,0.0,0.0,0.0,0.0,0.0,0.0,0.0,2.6699,2.6719,2.6328,2.6699,2.6894,0.0,2.6894,2.6914,2.6973,2.7402,2.7832,2.8242,2.8242,2.8262,2.8301,2.8301,2.8301,2.834,2.8711,2.8867,2.8906,2.9355,2.9512,2.9512,2.9551,2.9824,3.0078,2.9687,2.9863,3.0117,2.9687,2.9316,2.9023,2.8945,2.8652,2.834,2.8301,2.8301,2.8496,2.9277,2.9453,2.9453,2.9453,2.9453,2.957,3.0,3.0078,3.0098,3.0137,3.0488,3.0625,3.0195,3.0258,3.0142,2.9757,2.9125,2.8629,2.8257,2.7955,2.771,2.771,2.7673,2.7655,2.7655,2.7325,2.7123,2.7123,2.7123,2.6958,2.6591,2.694,2.7123,2.7123,2.7563,2.7967,2.8352,2.8773,2.8975,1.5769,1.6628,0.0,1.8459,2.0625,2.2812,2.3711,2.4258,2.4785,2.5566,2.5664,2.5586,0.0,0.0,0.0,0.0,0.0,0.0,0.0,0.0,0.0,0.0,0.0,0.0,0.0,0.0,0.0,0.0,0.0,0.0,0.0,0.0,0.0,2.5879,2.5957,2.5977,2.5879,2.5957,2.6016,0.0,2.6016,2.6191,2.6543,2.6953,2.7383,2.7812,2.7812,2.7988,2.8301,2.8301,2.8301,2.8301,2.8398,2.8437,2.8476,2.8906,2.9062,2.9101,2.9453,2.9629,2.9687,2.959,2.9863,3.0117,2.9687,2.9726,2.9785,2.9101,2.8848,2.8711,2.8379,2.8301,2.834,2.8535,2.8574,2.8574,2.8574,2.8574,2.8691,2.9121,2.9199,2.9297,2.9648,2.9785,2.9824,2.9726,2.956,2.924,2.8937,2.8577,2.8217,2.7897,2.7602,2.7306,2.7306,2.7013,2.6848,2.6848,2.6756,2.6719,2.6719,2.6719,2.6683,2.6591,2.6664,2.6719,2.6719,2.7416,2.782,2.7911,2.8645,2.8874,1.5341,0.0,0.0,1.9742,0.0,2.3008,2.3652,2.3965,2.4297,2.4961,2.5098,0.0,0.0,0.0,0.0,0.0,0.0,0.0,0.0,0.0,0.0,0.0,0.0,0.0,0.0,0.0,0.0,0.0,0.0,0.0,0.0,2.5742,2.5742,2.5742,2.5742,2.5742,2.5742,2.5742,2.5742,2.5742,2.5742,2.5859,2.6094,2.6719,2.7129,2.7344,2.7344,2.7598,2.7988,2.7988,2.8105,2.8301,2.8301,2.8301,2.832,2.8535,2.8613,2.8652,2.8887,2.9082,2.9258,2.9258,2.9551,2.9863,2.9629,2.9726,2.9805,2.9355,2.9238,2.9141,2.8711,2.8594,2.8535,2.834,2.8301,2.8301,2.8301,2.8301,2.8359,2.8574,2.8613,2.8691,2.8926,2.9121,2.9336,2.9327,2.9122,2.8709,2.8276,2.7921,2.7641,2.7215,2.7013,2.6885,2.6885,2.6701,2.6591,2.6591,2.6591,2.6591,2.6591,2.6591,2.6591,2.6591,2.6591,2.6683,2.6866,2.7471,2.7875,2.8077,2.8582,2.8636,1.478,0.0,1.8164,2.0957,2.209,0.0,2.3398,2.3633,2.3769,2.4121,0.0,0.0,0.0,0.0,0.0,0.0,0.0,0.0,0.0,0.0,0.0,0.0,0.0,0.0,0.0,0.0,0.0,0.0,0.0,0.0,2.5508,2.5508,2.5508,2.5508,2.5508,2.5508,2.5508,2.5508,2.5508,2.5508,2.5586,2.5664,2.5762,2.6465,2.6836,2.6914,2.6914,2.7148,2.7559,2.7559,2.7754,2.8086,2.8144,2.8184,2.8203,2.8262,2.8301,2.8301,2.8301,2.8516,2.8809,2.8809,2.9101,2.9453,2.9453,2.9512,2.9551,2.9473,2.9512,2.9473,2.9023,2.8965,2.8926,2.8496,2.8398,2.8379,2.8301,2.8301,2.8301,2.8301,2.8301,2.8301,2.8301,2.8574,2.8816,2.8853,2.8687,2.8219,2.753,2.729,2.6958,2.6628,2.6591,2.6591,2.6591,2.6591,2.6591,2.6591,2.6591,2.6591,2.6591,2.6591,2.6591,2.6591,2.6591,2.6756,2.7068,2.7471,2.7724,2.8071,2.831,2.8289,1.3738,0.0,1.8379,0.0,2.1641,2.2539,0.0,0.0,2.3242,0.0,0.0,0.0,0.0,0.0,0.0,0.0,0.0,0.0,0.0,0.0,0.0,0.0,0.0,0.0,0.0,0.0,0.0,0.0,0.0,0.0,2.459,2.459,2.459,2.459,2.459,2.459,2.459,2.459,2.459,2.459,2.498,2.5371,2.5742,2.5859,2.6113,2.6465,2.6465,2.6719,2.7109,2.7109,2.7129,2.7226,2.7598,2.7754,2.7793,2.8164,2.8301,2.8301,2.8301,2.832,2.8379,2.8379,2.8672,2.9004,2.9004,2.9277,2.9492,2.9121,2.9277,2.9473,2.9023,2.9199,2.9375,2.8945,2.8828,2.873,2.8379,2.8301,2.8301,2.8301,2.8301,2.8301,2.8301,2.834,2.8291,2.8114,2.7809,2.7465,2.7082,2.6865,2.6646,2.6591,2.6591,2.6591,2.6591,2.6591,2.6591,2.6591,2.6591,2.6591,2.6591,2.6591,2.6591,2.6591,2.6591,2.6609,2.6664,2.6827,2.6821,2.6893,2.7401,2.7523,1.4132,1.5998,1.8056,0.0,2.0996,2.1543,2.2051,0.0,2.2793,0.0,0.0,0.0,0.0,0.0,0.0,0.0,0.0,0.0,0.0,0.0,0.0,0.0,0.0,0.0,0.0,0.0,0.0,0.0,0.0,2.4414,2.4414,2.4414,2.4414,2.4414,2.4414,2.4414,2.4414,2.4414,2.4414,2.4414,2.4609,2.4805,2.5,2.5254,2.5605,2.6016,2.6016,2.6269,2.666,2.666,2.6797,2.7031,2.7226,2.7461,2.7695,2.7871,2.8086,2.8301,2.8301,2.8301,2.8301,2.8301,2.8418,2.8574,2.8574,2.8867,2.916,2.8965,2.9238,2.9531,2.9336,2.9434,2.9531,2.9336,2.9277,2.9238,2.9043,2.8633,2.8301,2.8301,2.8301,2.8301,2.8301,2.8174,2.796,2.7638,2.7314,2.7098,2.6791,2.67,2.6591,2.6591,2.6591,2.6591,2.6591,2.6591,2.6591,2.6591,2.6591,2.6591,2.6591,2.6591,2.6591,2.6591,2.6591,2.6482,2.6354,2.6625,2.6583,2.6489,2.6946,2.7099,0.0,0.0,1.6876,1.9146,2.0,2.0469,0.0,0.0,0.0,0.0,0.0,0.0,0.0,0.0,0.0,0.0,0.0,0.0,0.0,0.0,0.0,0.0,0.0,0.0,0.0,0.0,0.0,0.0,0.0,2.4082,2.4082,2.4082,2.4141,2.4258,2.4258,2.4316,2.4414,2.4316,2.4258,2.4258,2.4258,2.4316,2.4434,2.4746,2.5137,2.5566,2.5684,2.5918,2.623,2.623,2.6406,2.6699,2.6816,2.7051,2.7363,2.7578,2.7871,2.8125,2.8125,2.8125,2.8125,2.8125,2.8125,2.8164,2.8262,2.8516,2.8769,2.8769,2.9062,2.9394,2.9394,2.9492,2.9551,2.9434,2.9394,2.9394,2.9394,2.8906,2.8418,2.832,2.8301,2.8301,2.8174,2.8067,2.7745,2.7314,2.7098,2.6881,2.6591,2.6591,2.6591,2.6591,2.6591,2.6591,2.6591,2.6591,2.6591,2.6591,2.6591,2.6591,2.6591,2.6591,2.6591,2.6464,2.6464,2.6354,2.6118,2.6295,2.6216,2.601,2.6353,2.6568,0.0,1.3647,0.0,1.6818,1.8317,1.9422,0.0,0.0,0.0,0.0,0.0,0.0,0.0,0.0,0.0,0.0,0.0,0.0,0.0,0.0,0.0,0.0,0.0,0.0,0.0,0.0,0.0,0.0,0.0,2.3203,2.3203,2.3203,2.3398,2.3809,2.3828,2.4004,2.4414,2.4023,2.3828,2.3828,2.3828,2.4023,2.4414,2.4434,2.4687,2.5117,2.5547,2.5742,2.5781,2.5781,2.5781,2.584,2.625,2.6445,2.6543,2.7363,2.7676,2.7695,2.7695,2.7695,2.7695,2.7695,2.7695,2.7773,2.8164,2.8301,2.832,2.832,2.8633,2.8945,2.8945,2.9258,2.9473,2.9043,2.8945,2.8945,2.8945,2.8926,2.8769,2.8379,2.8301,2.8174,2.796,2.796,2.7745,2.7098,2.6989,2.6881,2.6591,2.6591,2.6591,2.6591,2.6591,2.6591,2.6591,2.6591,2.6591,2.6591,2.6591,2.6591,2.6591,2.6591,2.6464,2.6136,2.6136,2.6118,2.6118,2.5586,2.5255,2.5255,2.5466,2.5429,1.1912,0.0,0.0,1.5501,1.6766,1.7839,1.8647,0.0,0.0,0.0,0.0,0.0,0.0,0.0,0.0,0.0,0.0,0.0,0.0,0.0,0.0,0.0,0.0,0.0,0.0,0.0,0.0,0.0,0.0,0.0,2.3144,2.3144,2.3203,2.3379,2.3379,2.3574,2.4004,2.3867,2.3789,2.3789,2.3496,2.3457,2.3613,2.3887,2.4102,2.4277,2.4707,2.5215,2.5742,2.5742,2.5742,2.5762,2.5918,2.6133,2.6426,2.6738,2.7187,2.7617,2.7344,2.7422,2.7676,2.7676,2.7676,2.7754,2.8164,2.8301,2.8301,2.8301,2.8398,2.8574,2.8848,2.9043,2.918,2.9316,2.9336,2.9258,2.8984,2.8711,2.8476,2.832,2.8174,2.796,2.796,2.753,2.7206,2.6989,2.6899,2.6682,2.6591,2.6591,2.6591,2.6591,2.6591,2.6591,2.6591,2.6591,2.6591,2.6591,2.6591,2.6591,2.6591,2.6591,2.6464,2.6136,2.5898,2.5789,2.5569,2.5331,2.5128,2.4923,2.5302,2.5378,1.112,1.2041,0.0,0.0,0.0,1.6179,1.7571,0.0,0.0,0.0,0.0,0.0,0.0,0.0,0.0,0.0,0.0,0.0,0.0,0.0,0.0,0.0,0.0,0.0,0.0,0.0,0.0,0.0,0.0,0.0,2.2715,2.2852,2.293,2.293,2.3066,2.3281,2.3574,2.3574,2.3574,2.3574,2.3281,2.3144,2.3144,2.3437,2.3652,2.3809,2.4082,2.4707,2.5508,2.5508,2.5605,2.5742,2.5742,2.5918,2.6191,2.6328,2.6758,2.7226,2.707,2.7207,2.7441,2.7441,2.7441,2.7519,2.7949,2.8086,2.8105,2.8262,2.8301,2.8359,2.8633,2.8711,2.8789,2.9082,2.9141,2.9062,2.8769,2.8594,2.8457,2.8213,2.8067,2.7853,2.7638,2.7314,2.6989,2.6899,2.6682,2.6591,2.6591,2.6591,2.6591,2.6591,2.6591,2.6591,2.6591,2.6591,2.6591,2.6591,2.6591,2.6591,2.6591,2.6464,2.6245,2.6008,2.5679,2.5348,2.5017,2.5017,2.5017,2.483,2.5069,2.5258,0.0,0.0,0.0,0.0,0.0,0.0,0.0,0.0,0.0,0.0,0.0,0.0,0.0,0.0,0.0,0.0,0.0,0.0,0.0,0.0,0.0,0.0,0.0,0.0,0.0,0.0,0.0,0.0,0.0,2.2363,2.1953,2.2305,2.2519,2.2519,2.293,2.3144,2.3144,2.3125,2.3125,2.3144,2.3125,2.3125,2.3144,2.3144,2.3379,2.3769,2.3769,2.4258,2.5039,2.5059,2.5332,2.5723,2.5742,2.5742,2.5801,2.6211,2.6387,2.6445,2.6836,2.6992,2.7012,2.7012,2.7031,2.7109,2.7559,2.7676,2.7773,2.8184,2.8301,2.8301,2.8301,2.8301,2.8301,2.8301,2.8301,2.8301,2.8301,2.8613,2.8661,2.8037,2.7853,2.7638,2.7098,2.6989,2.6899,2.67,2.6591,2.6591,2.6591,2.6591,2.6591,2.6591,2.6591,2.6591,2.6591,2.6591,2.6591,2.6591,2.6591,2.6591,2.6591,2.6245,2.6008,2.5679,2.5331,2.5017,2.4812,2.4812,2.4812,2.4812,2.4812,2.5018,1.0385,0.0,0.0,0.0,0.0,0.0,0.0,0.0,0.0,0.0,0.0,0.0,0.0,0.0,0.0,0.0,0.0,0.0,0.0,0.0,0.0,0.0,0.0,0.0,0.0,0.0,0.0,0.0,2.2891,2.291,2.2793,2.2617,2.2519,2.2519,2.2637,2.2695,2.2695,2.2695,2.2832,2.3125,2.2832,2.2852,2.3144,2.3144,2.3203,2.332,2.332,2.3633,2.4199,2.4805,2.5137,2.5293,2.5605,2.5742,2.5742,2.5879,2.6113,2.6367,2.6152,2.6504,2.7012,2.7012,2.7226,2.7559,2.7988,2.8125,2.8144,2.8262,2.8301,2.8301,2.8301,2.8301,2.8301,2.8301,2.8301,2.8301,2.8301,2.8272,2.8095,2.7979,2.753,2.7206,2.6989,2.6899,2.67,2.6591,2.6591,2.6591,2.6591,2.6591,2.6591,2.6591,2.6591,2.6591,2.6591,2.6591,2.6591,2.6591,2.6591,2.6464,2.6245,2.6136,2.5898,2.5331,2.5221,2.5017,2.4812,2.4812,2.4812,2.4812,2.4812,2.4881,1.0975,1.1288,1.1755,0.0,0.0,0.0,0.0,1.4016,0.0,0.0,0.0,0.0,0.0,0.0,0.0,0.0,0.0,0.0,0.0,0.0,0.0,0.0,0.0,0.0,0.0,0.0,0.0,2.2637,2.2773,2.2785,2.2717,2.2395,2.2162,2.2078,2.2162,2.2344,2.2519,2.2344,2.2461,2.2871,2.2441,2.248,2.2871,2.2871,2.2969,2.3144,2.3144,2.3281,2.3574,2.4258,2.4746,2.5098,2.5352,2.5566,2.5742,2.5742,2.5898,2.6113,2.6035,2.6328,2.6777,2.6953,2.7187,2.748,2.791,2.8027,2.8066,2.8242,2.8301,2.8301,2.8301,2.8301,2.8301,2.8301,2.8301,2.8301,2.8174,2.7853,2.7638,2.7638,2.7314,2.6989,2.6899,2.6682,2.6591,2.6591,2.6591,2.6591,2.6591,2.6591,2.6591,2.6591,2.6591,2.6591,2.6591,2.6591,2.6591,2.6354,2.6354,2.6245,2.5898,2.5789,2.5569,2.5221,2.5128,2.4923,2.4812,2.4812,2.4812,2.4812,2.4812,2.4812,1.181,1.1865,1.2305,1.2984,1.2104,0.0,1.4139,1.3937,0.0,0.0,0.0,0.0,0.0,0.0,0.0,0.0,0.0,0.0,0.0,0.0,0.0,0.0,0.0,0.0,0.0,2.1659,2.2032,2.1831,2.2181,2.2368,2.2255,2.202,2.1787,2.162,2.1748,2.207,2.2441,2.207,2.207,2.2441,2.207,2.209,2.2441,2.248,2.2715,2.3066,2.3125,2.3144,2.3164,2.3555,2.4199,2.4941,2.5039,2.5312,2.5664,2.5723,2.5645,2.5703,2.6172,2.6248,2.6345,2.6715,2.691,2.7065,2.7435,2.7591,2.7707,2.8077,2.8194,2.8301,2.8194,2.8194,2.8194,2.8194,2.8194,2.8174,2.7853,2.7638,2.7314,2.7314,2.7098,2.6899,2.67,2.6591,2.6591,2.6591,2.6591,2.6591,2.6591,2.6591,2.6591,2.6591,2.6591,2.6591,2.6591,2.6591,2.6354,2.6118,2.6008,2.5898,2.5679,2.5348,2.5221,2.511,2.4923,2.4812,2.4812,2.4812,2.4812,2.4812,2.4812,2.4812,1.2521,1.254,1.2558,1.2411,0.0,0.0,1.2214,1.2507,0.0,0.0,0.0,0.0,0.0,0.0,0.0,0.0,0.0,0.0,0.0,0.0,0.0,0.0,0.0,0.0,0.0,2.1294,2.1351,2.1358,2.1674,2.2054,2.2397,2.2016,2.1873,2.2063,2.1717,2.1748,2.2012,2.1934,2.1934,2.2012,2.1934,2.1934,2.2012,2.2363,2.2559,2.2656,2.2988,2.3144,2.3144,2.3242,2.3574,2.4102,2.4805,2.5117,2.5234,2.5605,2.5547,2.5352,2.5429,2.558,2.5786,2.5863,2.6359,2.6826,2.6902,2.715,2.7435,2.7511,2.7745,2.796,2.7638,2.753,2.753,2.753,2.753,2.753,2.753,2.7314,2.7098,2.7098,2.6899,2.6682,2.6591,2.6591,2.6591,2.6591,2.6591,2.6591,2.6591,2.6591,2.6591,2.6591,2.6591,2.6464,2.6245,2.6245,2.6136,2.5789,2.5789,2.5679,2.5331,2.5221,2.5128,2.4923,2.4812,2.4812,2.4812,2.4812,2.4812,2.4812,2.4812,2.4812,1.3387,1.3277,1.3277,1.3296,0.0,0.0,0.0,0.0,0.0,0.0,0.0,0.0,0.0,0.0,0.0,0.0,0.0,0.0,0.0,0.0,0.0,0.0,0.0,0.0,0.0,2.078,2.1108,2.1191,2.1381,2.1504,2.1644,2.1749,2.1835,2.1816,2.1902,2.1988,2.2178,2.1967,2.187,2.1851,2.1428,2.1414,2.1729,2.1923,2.2201,2.2539,2.2795,2.2969,2.2969,2.2794,2.2909,2.3198,2.4322,2.4789,2.4946,2.5373,2.5333,2.5137,2.5137,2.5172,2.5282,2.549,2.585,2.6229,2.6437,2.6797,2.7176,2.7365,2.753,2.7638,2.7422,2.7422,2.7422,2.7422,2.7422,2.7314,2.7206,2.7098,2.6989,2.6791,2.6682,2.6591,2.6591,2.6591,2.6591,2.6591,2.6591,2.6591,2.6591,2.6591,2.6591,2.6354,2.6354,2.6245,2.5898,2.5898,2.5789,2.5459,2.5459,2.5348,2.5017,2.5017,2.4923,2.4812,2.4812,2.4812,2.4812,2.4812,2.4812,2.4812,2.4812,2.4812,0.0,1.4286,0.0,0.0,0.0,1.291,0.0,0.0,0.0,0.0,0.0,0.0,0.0,0.0,0.0,0.0,0.0,0.0,0.0,0.0,0.0,0.0,0.0,0.0,0.0,1.9795,2.0398,2.0874,2.0768,2.0686,2.0838,2.1259,2.1532,2.1427,2.1926,2.2221,2.2328,2.2082,2.1911,2.1816,2.1135,2.1028,2.146,2.1441,2.1755,2.2368,2.2524,2.2629,2.2706,2.253,2.2441,2.2517,2.3712,2.4291,2.4545,2.4967,2.4963,2.4843,2.4843,2.4843,2.4801,2.5239,2.5409,2.5541,2.5956,2.6371,2.6786,2.6999,2.7257,2.7314,2.7225,2.7225,2.7225,2.7225,2.7149,2.7093,2.6877,2.6714,2.6677,2.6553,2.6463,2.6499,2.6573,2.6591,2.6591,2.6591,2.6591,2.6591,2.6591,2.6591,2.6354,2.6136,2.6008,2.5898,2.5679,2.5569,2.5459,2.5128,2.5128,2.5017,2.4812,2.4812,2.4812,2.4812,2.4812,2.4812,2.4812,2.4812,2.4812,2.4812,2.4812,2.4812,0.0,0.0,0.0,0.0,1.4616,0.0,0.0,0.0,0.0,0.0,0.0,0.0,0.0,0.0,0.0,0.0,0.0,0.0,0.0,0.0,0.0,0.0,0.0,0.0,0.0,0.0,1.8138,1.9942,1.9077,1.9095,2.0448,2.0642,2.0763,2.0932,2.1409,2.172,2.1911,2.2214,2.2195,2.1835,2.1741,2.1532,2.1229,2.1191,2.1503,2.1921,2.1873,2.21,2.2441,2.2441,2.2441,2.2479,2.3043,2.348,2.3898,2.424,2.4425,2.4529,2.4529,2.4449,2.4251,2.4306,2.4583,2.4951,2.5356,2.5971,2.6393,2.6236,2.6602,2.6989,2.6791,2.67,2.67,2.67,2.6406,2.6129,2.6129,2.5853,2.5724,2.5968,2.6041,2.6151,2.6518,2.6591,2.6591,2.6591,2.6591,2.6591,2.6591,2.6354,2.6118,2.6118,2.5898,2.5569,2.5221,2.5221,2.5128,2.4812,2.4812,2.4812,2.4812,2.4812,2.4812,2.4812,2.4812,2.4812,2.4812,2.4812,2.4812,2.4812,2.4812,2.4812,0.0,0.0,0.0,0.0,0.0,0.0,1.3112,0.0,1.2562,0.0,0.0,0.0,0.0,0.0,0.0,0.0,0.0,0.0,0.0,0.0,0.0,0.0,0.0,0.0,0.0,0.0,0.0,0.0,0.0,1.8027,1.9402,1.9696,1.9916,2.0338,2.0726,2.1059,2.1386,2.1553,2.1664,2.1738,2.1497,2.1379,2.1315,2.1381,2.1429,2.1476,2.1795,2.1964,2.1907,2.1994,2.1998,2.2017,2.2184,2.259,2.3223,2.3785,2.4044,2.392,2.4258,2.4251,2.4152,2.4152,2.428,2.45,2.4904,2.5245,2.5533,2.5669,2.6,2.6421,2.6332,2.6408,2.6591,2.6591,2.6444,2.6334,2.6334,2.6188,2.6133,2.6298,2.6334,2.6371,2.6554,2.6591,2.6591,2.6591,2.6591,2.6482,2.6354,2.6245,2.6008,2.5569,2.5459,2.5238,2.5017,2.5017,2.4923,2.4812,2.4812,2.4812,2.4812,2.4812,2.4812,2.4812,2.4812,2.4812,2.4812,2.4812,2.4812,2.4812,2.4812,2.4812,1.6138,0.0,0.0,0.0,0.0,0.0,0.0,0.0,0.0,0.0,0.0,0.0,0.0,0.0,0.0,0.0,0.0,0.0,0.0,0.0,0.0,0.0,0.0,0.0,0.0,0.0,0.0,0.0,0.0,0.0,1.8302,1.876,1.9164,1.9586,2.0099,2.0503,2.0778,2.0998,2.1255,2.1566,2.1365,2.1379,2.1466,2.1423,2.1286,2.1212,2.1547,2.1553,2.1404,2.1526,2.164,2.1731,2.1731,2.2005,2.2537,2.3372,2.3551,2.3602,2.4005,2.4152,2.4152,2.4152,2.4152,2.4207,2.4519,2.4684,2.4849,2.5124,2.5491,2.5803,2.5803,2.6023,2.6261,2.6261,2.6169,2.6096,2.6096,2.6004,2.5949,2.6078,2.6096,2.6133,2.6243,2.6444,2.6591,2.6591,2.6481,2.6191,2.5955,2.5757,2.536,2.4907,2.4902,2.4861,2.4658,2.4761,2.4812,2.4812,2.4812,2.4812,2.4812,2.4812,2.4812,2.4812,2.4812,2.4812,2.4812,2.4812,2.4812,2.4812,2.4812,2.4923,0.0,0.0,0.0,1.5129,0.0,0.0,0.0,0.0,1.3259,0.0,0.0,0.0,0.0,0.0,1.2549,1.168,0.0,0.0,0.0,0.0,0.0,0.0,0.0,0.0,0.0,0.0,0.0,0.0,0.0,0.0,1.7422,1.7935,1.8339,1.8742,1.9531,1.9952,1.9971,2.0723,2.1108,2.1126,2.153,2.1713,2.1695,2.1291,2.1108,2.1071,2.0704,2.0759,2.1108,2.1126,2.1365,2.1731,2.1731,2.175,2.186,2.2667,2.3217,2.3602,2.4005,2.4152,2.4152,2.4152,2.4152,2.4152,2.427,2.4464,2.4776,2.4794,2.5087,2.5399,2.5399,2.5399,2.5417,2.5417,2.5124,2.4849,2.4849,2.4519,2.4354,2.4757,2.4849,2.4959,2.5344,2.6059,2.6591,2.6591,2.6027,2.5647,2.5647,2.4774,2.4123,2.4123,2.4132,2.4247,2.4247,2.4607,2.4812,2.4812,2.4812,2.4812,2.4812,2.4812,2.4812,2.4812,2.4812,2.4812,2.4812,2.4812,2.4812,2.4812,2.4812,2.5238,0.0,0.0,1.8064,1.6175,0.0,0.0,0.0,0.0,0.0,0.0,0.0,0.0,0.0,0.0,1.2747,1.1777,1.167,0.0,0.0,0.0,0.0,0.0,0.0,0.0,0.0,0.0,0.0,0.0,1.4818,0.0,0.0,1.7752,1.8302,1.8705,1.9237,1.9641,1.9934,2.0191,2.0594,2.1108,2.1255,2.1456,2.1731,2.1585,2.1365,2.1126,2.1255,2.1236,2.1126,2.1401,2.1603,2.1731,2.1731,2.1731,2.1805,2.2337,2.2795,2.3253,2.3914,2.4152,2.4152,2.4152,2.4152,2.4152,2.4152,2.4262,2.4372,2.4372,2.4666,2.4977,2.4977,2.5179,2.5362,2.5362,2.5271,2.5179,2.5179,2.5051,2.4996,2.5142,2.5057,2.5009,2.5136,2.518,2.536,2.5466,2.5234,2.4827,2.4598,2.4281,2.3982,2.3877,2.3891,2.3853,2.3853,2.4213,2.4436,2.4436,2.4675,2.4812,2.4812,2.4812,2.4812,2.4812,2.4812,2.4812,2.4812,2.4812,2.459,2.4256,2.4256,2.4795,1.8155,1.8412,0.0,1.689,1.6321,0.0,1.4102,0.0,0.0,0.0,0.0,0.0,0.0,0.0,1.3784,1.2973,1.2552,1.171,0.0,0.9067,0.0,0.0,0.0,0.0,0.0,0.0,1.2824,1.4355,1.3974,0.0,0.0,0.0,1.7789,1.8485,1.8889,1.9292,1.9696,1.9861,2.0264,2.0906,2.1034,2.1328,2.1731,2.1731,2.1511,2.1126,2.1401,2.1273,2.0924,2.1346,2.1511,2.153,2.1676,2.1731,2.1786,2.2171,2.2685,2.314,2.3749,2.4024,2.4152,2.4152,2.4152,2.4152,2.4152,2.4152,2.4152,2.4152,2.4354,2.4556,2.4556,2.4757,2.4941,2.4941,2.4941,2.4941,2.4941,2.4941,2.4941,2.4838,2.4736,2.453,2.441,2.4204,2.4207,2.4805,2.4524,2.4209,2.4,2.367,2.3479,2.3375,2.3391,2.3528,2.3648,2.3888,2.4025,2.4025,2.4264,2.447,2.4607,2.4607,2.4675,2.4812,2.4812,2.4701,2.4479,2.4344,2.3944,2.3389,2.3037,2.3728]},{"header":{"parameterUnit":"m.s-1","parameterCategory":1,"la1":30.6,"la2":29.2853,"lo1":-89.7004,"lo2":-87.6739,"dy":0.0162,"dx":0.0183,"nx":112,"ny":82,"refTime":"2026-03-26T12:00:00:Z","depth":0,"parameterNumber":3,"parameterNumberName":"V-component_of_WINDS"},"data":[0.0,0.0,0.0,0.0,0.0,0.0,0.0,0.0,0.0,0.0,0.0,0.0,0.0,0.0,0.0,0.0,0.0,0.0,0.0,0.0,0.0,0.0,0.0,0.0,0.0,0.0,0.0,0.0,0.0,0.0,0.0,0.0,0.0,0.0,0.0,0.0,0.0,0.0,0.0,0.0,0.0,0.0,0.0,0.0,0.0,0.0,0.0,0.0,0.0,0.0,0.0,0.0,0.0,0.0,0.0,0.0,0.0,0.0,0.0,0.0,0.0,0.0,0.0,0.0,0.0,0.0,0.0,0.0,0.0,0.0,0.0,0.0,0.0,0.0,0.0,0.0,0.0,0.0,0.0,0.0,0.0,0.0,0.0,0.0,0.0,0.0,0.0,0.0,0.0,0.0,-0.8499,-0.9261,-1.0911,-1.2093,-1.2247,-1.2028,-1.1413,-1.0203,0.0,0.0,0.0,0.0,0.0,0.0,0.0,0.0,0.0,0.0,0.0,0.0,0.0,0.0,0.0,0.0,0.0,0.0,0.0,0.0,0.0,0.0,0.0,0.0,0.0,0.0,0.0,0.0,0.0,0.0,0.0,0.0,0.0,0.0,0.0,0.0,0.0,0.0,0.0,0.0,0.0,0.0,0.0,0.0,0.0,0.0,0.0,0.0,0.0,0.0,0.0,0.0,0.0,0.0,0.0,0.0,0.0,0.0,0.0,0.0,0.0,0.0,0.0,0.0,0.0,0.0,0.0,0.0,0.0,0.0,0.0,0.0,0.0,0.0,0.0,0.0,0.0,0.0,0.0,0.0,0.0,0.0,0.0,0.0,0.0,0.0,0.0,0.0,0.0,0.0,0.0,0.0,0.0,0.0,0.0,0.0,0.0,0.0,0.0,0.0,0.0,0.0,0.0,0.0,-0.9554,-1.1237,-1.1704,-1.2036,-1.2069,-1.2539,-1.2404,-1.1295,0.0,0.0,0.0,0.0,0.0,0.0,0.0,0.0,0.0,0.0,0.0,0.0,0.0,0.0,0.0,0.0,0.0,0.0,0.0,0.0,0.0,0.0,0.0,0.0,0.0,0.0,0.0,0.0,0.0,0.0,0.0,0.0,0.0,0.0,0.0,0.0,0.0,0.0,0.0,0.0,0.0,0.0,0.0,0.0,0.0,0.0,0.0,0.0,0.0,0.0,0.0,0.0,0.0,0.0,0.0,0.0,0.0,0.0,0.0,0.0,0.0,0.0,0.0,0.0,0.0,0.0,0.0,0.0,0.0,0.0,0.0,0.0,0.0,0.0,0.0,0.0,0.0,0.0,0.0,0.0,0.0,0.0,0.0,0.0,0.0,0.0,0.0,0.0,0.0,0.0,0.0,0.0,0.0,0.0,0.0,0.0,0.0,0.0,0.0,0.0,0.0,0.0,0.0,-0.9275,-1.0217,-1.1622,-1.1849,-1.2167,-1.2996,-1.3048,-1.2856,-1.2302,-1.1682,0.0,0.0,0.0,0.0,0.0,0.0,0.0,0.0,0.0,0.0,0.0,0.0,0.0,0.0,0.0,0.0,0.0,0.0,0.0,0.0,0.0,0.0,0.0,0.0,0.0,0.0,0.0,0.0,0.0,0.0,0.0,0.0,0.0,0.0,0.0,0.0,0.0,0.0,0.0,0.0,0.0,0.0,0.0,0.0,0.0,0.0,0.0,0.0,0.0,0.0,0.0,0.0,0.0,0.0,0.0,0.0,0.0,0.0,0.0,0.0,0.0,0.0,0.0,0.0,0.0,0.0,0.0,0.0,0.0,0.0,0.0,0.0,0.0,0.0,0.0,0.0,0.0,0.0,0.0,0.0,0.0,0.0,0.0,0.0,0.0,0.0,0.0,0.0,0.0,0.0,0.0,0.0,0.0,0.0,0.0,0.0,0.0,0.0,0.0,0.0,0.0,0.0,-1.0985,-1.1524,-1.2149,-1.2251,-1.2664,-1.377,-1.3355,-1.3197,-1.3357,-1.2808,0.0,0.0,0.0,0.0,0.0,0.0,0.0,0.0,0.0,0.0,0.0,0.0,0.0,0.0,0.0,0.0,0.0,0.0,0.0,0.0,0.0,0.0,0.0,0.0,0.0,0.0,0.0,0.0,0.0,0.0,0.0,0.0,0.0,0.0,0.0,0.0,0.0,0.0,0.0,0.0,0.0,0.0,0.0,0.0,0.0,0.0,0.0,0.0,0.0,0.0,0.0,0.0,0.0,0.0,0.0,0.0,0.0,0.0,0.0,0.0,0.0,0.0,0.0,0.0,0.0,0.0,0.0,0.0,0.0,0.0,0.0,0.0,0.0,0.0,0.0,0.0,0.0,0.0,0.0,0.0,0.0,0.0,0.0,0.0,0.0,0.0,0.0,0.0,0.0,0.0,0.0,0.0,0.0,0.0,0.0,0.0,0.0,0.0,0.0,0.0,0.0,0.0,-1.3295,-1.4282,-1.3618,-1.3545,-1.3555,-1.3684,-1.3537,-1.3642,-1.4231,-1.3345,0.0,0.0,0.0,0.0,0.0,0.0,0.0,0.0,0.0,0.0,0.0,0.0,0.0,0.0,0.0,0.0,0.0,0.0,0.0,0.0,0.0,0.0,0.0,0.0,0.0,0.0,0.0,0.0,0.0,0.0,0.0,0.0,0.0,0.0,0.0,0.0,0.0,0.0,0.0,0.0,0.0,0.0,0.0,0.0,0.0,0.0,0.0,0.0,0.0,0.0,0.0,0.0,0.0,0.0,0.0,0.0,0.0,0.0,0.0,0.0,0.0,0.0,0.0,0.0,0.0,0.0,0.0,0.0,0.0,0.0,0.0,0.0,0.0,0.0,0.0,0.0,0.0,0.0,0.0,0.0,0.0,0.0,0.0,0.0,0.0,0.0,0.0,0.0,0.0,0.0,0.0,0.0,0.0,0.0,0.0,0.0,0.0,0.0,0.0,0.0,0.0,0.0,-1.3485,-1.4546,0.0,-1.4857,-1.5213,-1.6031,-1.5671,-1.5587,-1.5963,0.0,0.0,0.0,0.0,0.0,0.0,0.0,0.0,0.0,0.0,0.0,0.0,0.0,0.0,0.0,0.0,0.0,0.0,0.0,0.0,0.0,0.0,0.0,0.0,0.0,0.0,0.0,0.0,0.0,0.0,0.0,0.0,0.0,0.0,0.0,0.0,0.0,0.0,0.0,0.0,0.0,0.0,0.0,0.0,0.0,0.0,0.0,0.0,0.0,0.0,0.0,0.0,0.0,0.0,0.0,0.0,0.0,0.0,0.0,0.0,0.0,0.0,0.0,0.0,0.0,0.0,0.0,0.0,0.0,0.0,0.0,0.0,0.0,0.0,0.0,0.0,0.0,0.0,0.0,0.0,0.0,0.0,0.0,0.0,0.0,0.0,0.0,0.0,0.0,0.0,0.0,0.0,0.0,0.0,0.0,0.0,0.0,0.0,0.0,0.0,0.0,0.0,-1.302,-1.4584,-1.5748,0.0,-1.6549,-1.7114,-1.8139,-1.7652,-1.7315,-1.736,0.0,0.0,0.0,0.0,0.0,0.0,0.0,0.0,0.0,0.0,0.0,0.0,0.0,0.0,0.0,0.0,0.0,0.0,0.0,0.0,0.0,0.0,0.0,0.0,0.0,0.0,0.0,0.0,0.0,0.0,0.0,0.0,0.0,0.0,0.0,0.0,0.0,0.0,0.0,0.0,0.0,0.0,0.0,0.0,0.0,0.0,0.0,0.0,0.0,0.0,0.0,0.0,0.0,0.0,0.0,0.0,0.0,0.0,0.0,0.0,0.0,0.0,0.0,0.0,0.0,0.0,0.0,0.0,0.0,0.0,0.0,0.0,0.0,0.0,0.0,0.0,0.0,0.0,0.0,0.0,0.0,0.0,0.0,0.0,0.0,0.0,0.0,0.0,0.0,0.0,0.0,0.0,0.0,0.0,0.0,0.0,0.0,0.0,0.0,0.0,0.0,0.0,-1.4502,-1.6977,-1.8359,-1.7995,-1.8751,-1.9502,-1.9666,-1.9127,-1.8619,0.0,0.0,0.0,0.0,0.0,0.0,0.0,0.0,0.0,0.0,0.0,0.0,0.0,0.0,0.0,0.0,0.0,0.0,0.0,0.0,0.0,0.0,0.0,0.0,0.0,0.0,0.0,0.0,0.0,0.0,0.0,0.0,0.0,0.0,0.0,0.0,0.0,0.0,0.0,0.0,0.0,0.0,0.0,0.0,0.0,0.0,0.0,0.0,0.0,0.0,0.0,0.0,0.0,0.0,0.0,0.0,0.0,0.0,0.0,0.0,0.0,0.0,0.0,0.0,0.0,0.0,0.0,0.0,0.0,0.0,0.0,0.0,0.0,0.0,0.0,0.0,0.0,0.0,0.0,0.0,0.0,0.0,0.0,0.0,0.0,0.0,0.0,0.0,0.0,0.0,0.0,0.0,0.0,0.0,0.0,0.0,0.0,0.0,0.0,0.0,0.0,0.0,0.0,-1.6819,-1.9539,-2.1481,-2.1873,-2.2206,-2.2215,-2.2078,-2.1094,-2.0059,-1.9011,0.0,0.0,0.0,0.0,0.0,0.0,0.0,0.0,0.0,0.0,0.0,0.0,0.0,0.0,0.0,0.0,0.0,0.0,0.0,0.0,0.0,0.0,0.0,0.0,0.0,0.0,0.0,0.0,0.0,0.0,0.0,0.0,0.0,0.0,0.0,0.0,0.0,0.0,0.0,0.0,0.0,0.0,0.0,0.0,0.0,0.0,0.0,0.0,0.0,0.0,0.0,0.0,0.0,0.0,0.0,0.0,0.0,0.0,0.0,0.0,0.0,0.0,0.0,0.0,0.0,0.0,0.0,0.0,0.0,0.0,0.0,0.0,0.0,0.0,0.0,0.0,0.0,0.0,0.0,0.0,0.0,0.0,0.0,0.0,0.0,0.0,0.0,0.0,0.0,0.0,0.0,0.0,0.0,0.0,0.0,0.0,0.0,0.0,0.0,0.0,0.0,0.0,-1.8179,-2.0719,-2.2561,-2.3403,-2.3829,-2.4055,-2.3877,-2.3295,-2.2062,-2.0095,0.0,0.0,0.0,0.0,0.0,0.0,0.0,0.0,0.0,0.0,0.0,0.0,0.0,0.0,0.0,0.0,0.0,0.0,0.0,0.0,0.0,0.0,0.0,0.0,0.0,0.0,0.0,0.0,0.0,0.0,0.0,0.0,0.0,0.0,0.0,0.0,0.0,0.0,0.0,0.0,0.0,0.0,0.0,0.0,0.0,0.0,0.0,0.0,0.0,0.0,0.0,0.0,0.0,0.0,0.0,0.0,0.0,0.0,0.0,0.0,0.0,0.0,0.0,0.0,0.0,0.0,0.0,0.0,0.0,0.0,0.0,0.0,0.0,0.0,0.0,0.0,0.0,0.0,0.0,0.0,0.0,0.0,0.0,0.0,0.0,0.0,0.0,0.0,0.0,0.0,0.0,0.0,0.0,0.0,0.0,0.0,0.0,0.0,0.0,0.0,0.0,0.0,-1.8755,-2.0974,-2.2683,-2.3616,-2.4457,-2.5078,-2.5258,-2.5344,-2.4134,-2.1489,0.0,0.0,0.0,0.0,0.0,0.0,0.0,0.0,0.0,0.0,0.0,0.0,0.0,0.0,0.0,0.0,0.0,0.0,0.0,0.0,0.0,0.0,0.0,0.0,0.0,0.0,0.0,0.0,0.0,0.0,0.0,0.0,0.0,0.0,0.0,0.0,0.0,0.0,0.0,0.0,0.0,0.0,0.0,0.0,0.0,0.0,0.0,0.0,0.0,0.0,0.0,0.0,0.0,0.0,0.0,0.0,0.0,0.0,0.0,0.0,-0.6108,0.0,0.0,0.0,0.0,0.0,0.0,0.0,0.0,0.0,0.0,0.0,0.0,0.0,0.0,0.0,0.0,0.0,0.0,0.0,0.0,0.0,0.0,0.0,0.0,0.0,0.0,0.0,0.0,0.0,0.0,0.0,0.0,0.0,0.0,0.0,0.0,0.0,0.0,0.0,0.0,0.0,-2.036,-2.3296,-2.5397,-2.627,-2.6529,-2.6607,-2.628,-2.5496,-2.4393,-2.3005,-2.059,0.0,0.0,0.0,0.0,0.0,0.0,0.0,0.0,0.0,0.0,0.0,0.0,0.0,0.0,0.0,0.0,0.0,0.0,0.0,0.0,0.0,0.0,0.0,0.0,0.0,0.0,0.0,0.0,0.0,0.0,0.0,0.0,0.0,0.0,0.0,0.0,0.0,0.0,0.0,0.0,0.0,0.0,0.0,0.0,0.0,0.0,0.0,0.0,0.0,0.0,0.0,0.0,0.0,0.0,0.0,0.0,0.0,0.0,0.0,0.0,-0.7152,0.0,0.0,0.0,0.0,0.0,0.0,0.0,0.0,0.0,0.0,0.0,0.0,0.0,0.0,0.0,0.0,0.0,0.0,0.0,0.0,0.0,0.0,0.0,0.0,0.0,0.0,0.0,0.0,0.0,0.0,0.0,0.0,0.0,0.0,0.0,0.0,0.0,0.0,0.0,0.0,-2.1427,-2.4081,-2.5986,-2.6811,-2.7215,-2.7431,-2.7225,-2.656,-2.5819,-2.475,-2.2399,0.0,0.0,0.0,0.0,0.0,0.0,0.0,0.0,0.0,0.0,0.0,0.0,0.0,0.0,0.0,0.0,0.0,0.0,0.0,0.0,0.0,0.0,0.0,0.0,0.0,0.0,0.0,0.0,0.0,0.0,0.0,0.0,0.0,0.0,0.0,0.0,0.0,0.0,0.0,0.0,0.0,0.0,0.0,0.0,0.0,0.0,0.0,0.0,0.0,0.0,0.0,0.0,0.0,-1.0186,-1.0436,-1.0414,-1.0552,-1.1002,-1.176,-1.0688,-1.0163,-1.0009,0.0,0.0,0.0,0.0,0.0,0.0,0.0,0.0,0.0,0.0,0.0,0.0,0.0,0.0,0.0,0.0,0.0,0.0,0.0,0.0,0.0,0.0,0.0,0.0,0.0,-2.1613,-2.176,0.0,0.0,0.0,0.0,0.0,0.0,0.0,0.0,0.0,0.0,0.0,0.0,-2.2479,-2.4702,-2.6169,-2.6933,-2.7618,-2.8028,-2.8028,-2.7934,-2.7461,-2.6492,-2.4451,-2.2672,0.0,0.0,0.0,0.0,0.0,0.0,0.0,0.0,0.0,0.0,0.0,0.0,0.0,0.0,0.0,0.0,0.0,0.0,0.0,0.0,0.0,0.0,0.0,0.0,0.0,0.0,0.0,0.0,0.0,0.0,0.0,0.0,-0.6056,-0.6095,0.0,0.0,0.0,0.0,0.0,0.0,0.0,0.0,0.0,0.0,0.0,0.0,0.0,0.0,-1.0736,-1.3207,-1.4447,-1.4131,-1.6581,-1.76,-1.7402,-1.7327,-1.759,-1.7886,-1.7454,0.0,-1.3133,-1.4703,0.0,0.0,0.0,0.0,0.0,0.0,0.0,0.0,0.0,0.0,0.0,0.0,0.0,0.0,0.0,0.0,0.0,0.0,0.0,0.0,0.0,0.0,-2.5605,-2.5245,-2.5263,-2.5258,0.0,-2.0824,-1.7631,-1.7184,0.0,0.0,0.0,0.0,0.0,0.0,0.0,0.0,-2.4606,-2.6803,-2.8237,-2.8714,-2.888,-2.888,-2.888,-2.8629,-2.8249,-2.7897,-2.6514,-2.54,-2.4588,-2.2426,0.0,0.0,0.0,0.0,0.0,0.0,0.0,0.0,0.0,0.0,0.0,0.0,0.0,0.0,0.0,0.0,0.0,0.0,0.0,0.0,0.0,0.0,0.0,0.0,0.0,0.0,0.0,0.0,0.0,-0.6905,-0.7541,-0.7667,-0.802,-0.8131,0.0,0.0,0.0,0.0,0.0,0.0,0.0,0.0,0.0,-1.3654,-1.3861,-1.4317,-1.5061,-1.6501,-1.7203,-1.713,-1.8432,-1.9105,-1.9127,-1.9127,-1.9181,-1.9279,-2.0192,-1.9415,-1.7651,-1.6783,-1.5503,-1.4126,0.0,0.0,0.0,0.0,0.0,-1.6432,-1.7752,0.0,0.0,0.0,0.0,0.0,0.0,0.0,0.0,0.0,0.0,0.0,0.0,0.0,0.0,-2.7795,-2.7523,-2.7024,-2.713,-2.5194,-2.2868,0.0,-2.0383,-1.9653,-1.7881,0.0,0.0,0.0,0.0,-2.3574,-2.5744,-2.7481,-2.8609,-2.9031,-2.9513,-2.9848,-2.9848,-2.9617,-2.943,-2.9321,-2.7971,-2.695,-2.6409,-2.5026,-2.3379,0.0,0.0,0.0,0.0,0.0,0.0,0.0,0.0,0.0,0.0,0.0,0.0,0.0,0.0,0.0,0.0,0.0,0.0,0.0,0.0,0.0,0.0,0.0,0.0,0.0,0.0,0.0,0.0,-0.8482,-0.9272,-0.8995,-1.0164,-1.0493,0.0,0.0,0.0,0.0,0.0,0.0,-1.5063,-1.4707,-1.535,-1.7285,-1.7551,-1.7785,-1.8134,-1.896,-1.9435,-1.9547,-2.015,-2.0546,-2.0877,-2.116,-2.1443,-2.1443,-2.3126,-2.3432,-2.2613,-1.9483,-1.7596,-1.6678,-1.6815,-1.6612,-1.6453,-1.8287,-1.9625,-2.075,-2.2452,-2.3488,-2.3989,-2.3391,0.0,-2.1959,-2.1148,0.0,0.0,0.0,0.0,-2.4393,-2.6345,0.0,-2.7256,-2.9371,-2.9134,-2.8457,-2.8765,-2.8448,-2.7302,0.0,-2.4036,-2.3406,-2.0913,0.0,0.0,0.0,0.0,-2.5468,-2.727,-2.8569,-2.9456,-2.9682,-3.037,-3.0703,-3.0703,-3.0464,-3.0341,-3.0209,-2.9074,-2.8225,-2.7878,-2.7198,-2.5985,-2.4166,0.0,0.0,0.0,0.0,0.0,0.0,0.0,0.0,0.0,0.0,0.0,0.0,0.0,0.0,0.0,0.0,0.0,0.0,0.0,0.0,0.0,0.0,0.0,0.0,0.0,0.0,0.0,0.0,0.0,-0.9731,-1.2556,0.0,0.0,0.0,0.0,-1.3948,-1.4764,-1.5621,-1.6586,-1.7191,-1.7928,-1.855,-1.8649,-1.8682,-1.8347,-2.0503,-2.1498,-2.1402,-2.3426,-2.4301,-2.4462,-2.5904,-2.6474,-2.6605,-2.7844,-2.8381,-2.8131,-2.419,-2.1237,-1.9422,-2.1586,-2.1491,-2.0585,-2.3129,-2.4114,-2.4311,-2.4682,-2.4827,-2.4875,-2.5044,-2.4565,-2.4132,-2.5769,-2.5487,0.0,0.0,-2.7418,-2.847,-2.887,-2.9635,-3.0189,-3.0249,-3.0249,-3.0128,-2.9687,-2.9353,-2.8488,0.0,-2.6202,-2.5331,-2.353,0.0,-2.4237,-2.4851,-2.6165,-2.7721,-2.9753,-3.0874,-3.1483,-3.1505,-3.1527,-3.1527,-3.1527,-3.1149,-3.0668,-3.0231,-2.9707,-2.9431,-2.937,-2.8425,-2.7312,-2.6191,-2.4476,0.0,0.0,0.0,0.0,0.0,0.0,0.0,0.0,0.0,0.0,0.0,0.0,0.0,0.0,0.0,0.0,0.0,0.0,0.0,0.0,0.0,0.0,0.0,0.0,0.0,0.0,0.0,0.0,-1.2955,-1.4585,0.0,-1.406,-1.5194,-1.621,-1.6598,-1.7506,-1.8686,-2.0027,-1.9857,-2.0661,-2.2921,-2.3041,-2.3539,-2.4719,-2.5495,-2.6008,-2.6237,-2.6914,-2.744,-2.7635,-2.8068,-2.8357,-2.8357,-2.879,-2.89,-2.8662,-2.7323,-2.5816,-2.4523,-2.5242,-2.5014,-2.4439,-2.6208,-2.6991,-2.7334,-2.8358,-2.8659,-2.8712,-2.8931,-2.8462,-2.7958,-2.8967,-2.874,-2.8101,-2.8309,-2.8612,-2.9181,-3.0158,-3.0186,-3.0214,-3.1422,-3.0977,-3.0494,-3.0852,-3.0787,-3.0487,-2.953,-2.8334,-2.7317,-2.6509,-2.679,-2.7162,-2.7039,-2.8228,-2.9536,-3.0559,-3.1214,-3.1629,-3.1629,-3.1629,-3.1498,-3.1192,-3.1283,-3.1179,-3.0683,-3.0422,-3.0225,-3.0312,-2.9797,-2.9193,-2.8473,-2.6942,-2.47,0.0,0.0,0.0,0.0,0.0,0.0,0.0,0.0,0.0,0.0,0.0,0.0,0.0,0.0,0.0,0.0,0.0,0.0,0.0,0.0,0.0,0.0,0.0,0.0,0.0,0.0,-1.5365,-1.5076,-1.6669,-1.7673,-1.7212,-1.8031,-1.9168,-2.0493,-2.0916,-2.1817,-2.3691,-2.3364,-2.3997,-2.6025,-2.6268,-2.6924,-2.8011,-2.8233,-2.8471,-2.8834,-2.8946,-2.898,-2.9202,-2.979,-2.9932,-3.0058,-3.0501,-3.0651,-3.0433,-3.0433,-2.9984,-2.9076,-2.818,-2.767,-2.7487,-2.8783,-2.9467,-2.9807,-3.1101,-3.1388,-3.1415,-3.1672,-3.1309,-3.0892,-3.136,-3.1216,-3.1018,-3.0946,-3.0867,-3.087,-3.1572,-3.1188,-3.0829,-3.1841,-3.1766,-3.1505,-3.2015,-3.242,-3.261,-3.227,-3.0702,-2.9235,-2.8631,-2.8921,-2.9095,-2.8593,-2.9774,-3.0949,-3.1417,-3.1906,-3.2218,-3.2117,-3.2218,-3.2018,-3.1406,-3.1632,-3.1577,-3.1157,-3.0683,-3.0446,-3.0615,-3.0078,-2.9628,-2.92,-2.7359,-2.5389,-2.3267,0.0,0.0,0.0,0.0,0.0,0.0,0.0,0.0,0.0,0.0,0.0,0.0,0.0,0.0,0.0,0.0,0.0,0.0,0.0,0.0,0.0,0.0,0.0,-1.3993,-1.5837,-1.7129,-1.616,-1.8905,-2.0958,-2.0967,-2.089,-2.231,-2.5548,-2.4796,-2.5005,-2.6941,-2.7471,-2.7677,-2.7661,-2.7995,-2.8148,-2.7813,-2.8622,-2.8975,-2.8991,-2.9186,-2.9345,-2.9345,-3.0926,-3.1508,-3.1649,-3.3085,-3.3817,-3.3817,-3.3817,-3.3321,-3.2418,-3.0653,-2.9739,-2.9526,-3.0972,-3.1506,-3.1635,-3.2619,-3.2729,-3.2448,-3.2994,-3.2912,-3.2585,-3.3059,-3.314,-3.3346,-3.4267,-3.4141,-3.377,-3.3287,-3.2849,-3.2367,-3.1863,-3.2544,-3.3224,-3.3201,-3.4091,-3.4775,-3.4775,-3.3101,-3.1271,-2.9891,-3.0022,-3.0176,-2.9715,-3.0981,0.0,-3.2494,-3.3198,-3.3499,-3.3277,-3.3476,-3.3244,-3.242,-3.23,-3.213,-3.1512,-3.0567,-3.008,-3.0398,-2.9299,-2.8667,-2.8386,-2.5774,-2.4152,-2.3596,0.0,0.0,0.0,0.0,0.0,0.0,0.0,0.0,0.0,0.0,0.0,0.0,0.0,0.0,0.0,0.0,0.0,0.0,0.0,0.0,0.0,-1.7766,-1.9216,-1.7035,-1.9521,-2.182,-2.2497,-2.3743,-2.4711,-2.5088,-2.5068,-2.5463,-2.6424,-2.6635,-2.68,-2.7121,-2.7471,-2.7971,-2.8776,-2.9244,-3.0052,-3.1184,-3.1696,-3.2085,-3.2367,-3.2455,-3.2508,-3.2508,-3.2945,-3.3224,-3.3224,-3.3659,-3.3817,-3.3817,-3.4609,-3.4526,-3.3634,-3.2326,-3.1457,-3.0972,-3.2128,-3.3,-3.3631,-3.3882,-3.3729,-3.3474,-3.4327,-3.4336,-3.4114,-3.4461,-3.4437,-3.4112,-3.3987,-3.4267,-3.4479,-3.4343,-3.4809,-3.5192,-3.4651,-3.471,-3.4813,-3.4457,-3.4581,-3.4775,-3.4775,-3.4288,-3.3754,-3.3429,-3.3147,-3.3076,-3.3311,-3.3669,0.0,-3.4148,-3.429,-3.4219,-3.3742,-3.3791,-3.3434,-3.2414,-3.2536,-3.2537,-3.1992,-3.117,-3.0932,-3.1423,-2.9951,-2.8931,-2.8618,-2.6654,-2.5428,0.0,0.0,0.0,0.0,0.0,0.0,0.0,0.0,0.0,0.0,0.0,0.0,0.0,0.0,0.0,0.0,0.0,0.0,0.0,0.0,0.0,0.0,-2.0605,-2.233,-2.1493,-2.2877,-2.4364,-2.5482,-2.6104,-2.6697,-2.7719,-2.7213,-2.7344,-2.8533,-2.8411,-2.8428,-2.8854,-2.9057,-2.9487,-3.0195,-3.0725,-3.1532,-3.2588,-3.3175,-3.3596,-3.3817,-3.3817,-3.3817,-3.3817,-3.4214,-3.4471,0.0,-3.4883,-3.5158,-3.5158,-3.5821,-3.5681,0.0,0.0,0.0,0.0,0.0,-3.3882,-3.4507,-3.4881,-3.4841,-3.4799,-3.529,-3.5682,-3.5895,-3.5668,-3.5801,-3.5836,-3.5648,-3.5617,-3.585,-3.585,-3.6098,-3.6367,-3.603,-3.6086,-3.6137,-3.5843,-3.6007,-3.6143,-3.6143,0.0,0.0,-3.6143,-3.489,-3.4076,-3.4197,-3.4676,-3.5108,-3.5108,-3.5399,-3.5424,-3.4915,-3.4961,-3.4613,-3.335,-3.3671,0.0,0.0,0.0,-3.1052,-3.0424,-2.8961,0.0,0.0,0.0,0.0,0.0,0.0,0.0,0.0,-2.604,-2.5898,0.0,0.0,0.0,0.0,0.0,0.0,0.0,0.0,0.0,0.0,0.0,0.0,0.0,0.0,0.0,0.0,-2.3235,-2.5388,-2.6381,-2.6236,-2.6208,-2.6518,-2.6874,-2.7751,-2.9361,-2.8312,-2.8706,-3.1249,-3.0195,-3.0065,-3.1377,0.0,0.0,0.0,0.0,-3.2588,-3.2721,-3.3532,-3.4075,-3.4214,-3.4214,-3.4214,-3.4214,-3.5158,-3.5549,-3.5685,-3.6634,-3.7059,-3.7059,-3.7132,-3.6942,-3.6567,-3.5901,-3.5234,-3.4632,-3.4632,-3.4632,0.0,0.0,0.0,0.0,-3.6143,-3.6857,-3.7563,-3.6639,-3.7073,-3.7902,-3.7902,-3.767,-3.7436,-3.7436,-3.7302,-3.7014,-3.6965,-3.727,-3.748,-3.7354,-3.7758,-3.7978,-3.7926,-3.79,-3.79,-3.79,-3.5999,-3.4263,-3.3918,-3.4977,0.0,-3.5856,-3.6405,-3.6684,-3.642,0.0,0.0,-3.4866,-3.5028,-3.4554,-3.3091,-3.2385,-3.1026,-2.8847,-2.7826,-2.767,-2.8225,-2.8519,-2.9562,-3.1478,-3.1763,-3.2606,-3.3696,-2.8998,-2.833,0.0,0.0,0.0,0.0,0.0,0.0,0.0,0.0,0.0,0.0,0.0,0.0,0.0,0.0,0.0,-2.2857,-2.5751,-2.8123,-2.9013,-3.0198,-3.0566,-2.9493,-2.9493,-2.9942,-3.0918,-3.0714,-3.0843,-3.1377,-3.112,-3.112,-3.1377,-3.1377,0.0,-3.1377,-3.2166,-3.2988,-3.3917,-3.4738,-3.5549,-3.6384,0.0,0.0,-3.6384,-3.6654,-3.6634,-3.6654,-3.6924,-3.7059,-3.7018,-3.7583,-3.7719,-3.7609,-3.5845,-3.535,-3.5623,-3.5623,-3.6135,-3.6868,-3.7011,-3.7132,-3.7079,-3.7286,-3.752,-3.7676,-3.7594,-3.769,0.0,-3.7902,-3.846,-3.9137,-3.9137,-3.9804,-4.023,-3.9741,-3.9757,-3.9518,-3.861,-3.8444,-3.8423,-3.7978,-3.79,-3.79,-3.79,-3.752,-3.7114,-3.7011,-3.7272,-3.7442,-3.7442,-3.7546,-3.7416,-3.6949,-3.6897,-3.6612,-3.5885,-3.507,-3.4633,-3.4789,-3.3986,-3.2724,-3.1043,-3.1229,-3.1276,-3.1119,-3.1775,-3.2444,-3.2973,-3.4174,-3.4903,-3.5098,-3.3028,-3.2738,0.0,0.0,0.0,0.0,0.0,0.0,0.0,0.0,0.0,0.0,0.0,-1.9569,-2.0342,0.0,-2.5301,-2.6551,-2.8474,-3.0102,-3.0754,-3.1576,-3.1978,-3.1687,-3.1834,-3.22,-3.2815,-3.2873,-3.2873,-3.2873,-3.2873,-3.2873,-3.2873,-3.2873,-3.2873,-3.2873,-3.37,-3.4406,-3.493,-3.5795,-3.6499,-3.7059,-3.7059,-3.7059,-3.7059,-3.7595,-3.7863,-3.7863,-3.8395,-3.866,-3.8639,-3.8678,-3.8441,-3.8095,-3.7681,-3.7133,-3.6624,-3.6624,-3.7352,-3.8291,-3.8291,-3.8766,-3.9242,-3.9031,-3.9284,-3.9454,-3.9193,-3.9407,-3.9597,-3.9597,-4.0032,-4.0465,-4.0465,-4.0896,-4.1246,-4.0932,-4.0644,-4.0252,-3.9677,-3.9102,-3.8632,-3.837,-3.8083,-3.79,-3.79,-3.79,-3.79,-3.79,-3.79,-3.79,-3.79,-3.79,-3.7795,-3.7482,-3.7456,-3.722,-3.6593,-3.5319,-3.4812,-3.5196,-3.4308,-3.3772,-3.3734,-3.3779,-3.3879,-3.4024,-3.4427,-3.4922,-3.5438,-3.6104,-3.6773,-3.7511,-3.685,-3.6567,0.0,0.0,0.0,0.0,0.0,0.0,0.0,0.0,-1.7502,-1.8496,-2.0703,-2.2891,-2.3805,-2.635,-2.8654,-2.9675,-3.0782,-3.1564,-3.2031,-3.2207,-3.2629,-3.3428,-3.3497,-3.3699,-3.4202,-3.4262,-3.4282,-3.4363,-3.4383,-3.4383,-3.4383,-3.4383,-3.4383,-3.4383,-3.5147,-3.5739,-3.597,-3.678,-3.736,-3.7595,-3.7595,-3.7595,-3.7729,-3.8528,-3.8946,-3.9078,-3.9866,-4.0236,-4.0105,-3.9858,-3.9258,-3.8586,-3.9785,-3.9368,-3.8074,-3.8074,-3.8766,-3.9569,-3.9569,-4.0268,-4.1004,-4.0813,-4.0942,-4.1153,-4.0942,-4.1029,-4.1324,-4.1324,-4.1324,-4.1324,-4.1324,-4.1324,-4.1324,-4.1324,-4.0958,-4.0566,-4.0435,-3.9677,-3.9066,-3.9017,-3.8622,-3.8371,-3.8421,-3.8421,-3.833,-3.7992,-3.79,-3.79,-3.79,-3.79,-3.79,-3.79,-3.79,-3.7756,-3.7395,-3.6412,-3.5763,-3.582,-3.5189,-3.5272,-3.6259,-3.5912,-3.5983,-3.6548,-3.672,-3.7146,-3.7734,-3.797,-3.8675,-3.9924,-3.9924,-3.949,-1.4388,-1.4789,-1.5103,-1.5358,-1.5937,-1.7202,0.0,0.0,-2.1868,-2.3613,-2.533,-2.6818,-2.7282,-2.8307,-2.9379,-3.0178,-3.1429,-3.2483,-3.2943,-3.3706,-3.4372,-3.4869,-3.3472,-3.2914,-3.3739,-3.3819,-3.398,-3.4342,-3.4383,-3.4383,-3.4383,-3.4383,-3.4383,-3.4383,-3.4866,-3.5712,-3.7147,-3.752,-3.8502,-3.9866,-3.9866,-3.9866,-3.9866,-4.0018,-4.0149,-4.0149,-4.0279,-4.0039,-3.9708,-4.031,-4.0281,-3.9854,-4.0668,-4.0918,-4.0639,-4.0639,-4.0755,-4.087,-4.087,-4.0985,-4.1233,-4.1731,-4.1622,-4.126,-4.1802,-4.1667,-4.1324,-4.1324,-4.1324,-4.1324,-4.1324,-4.1324,-4.1324,-4.1324,-4.1272,-4.1063,-4.054,-4.0305,-4.0202,-3.9984,-3.9897,-3.9951,-4.0284,-4.026,-3.9766,-3.8148,-3.79,-3.79,-3.79,-3.79,-3.79,-3.79,-3.79,-3.8092,-3.8456,-3.9047,-3.9089,-3.8466,-3.8781,-3.8707,-3.7866,-3.7825,-3.7825,-3.7883,-3.8575,-3.9009,-3.908,-3.9777,-4.0593,-4.137,-4.137,-4.0962,-1.5777,-1.6433,-1.727,-1.8179,-1.9573,-2.1207,-2.3142,-2.4171,-2.5012,-2.6011,-2.7557,-2.8853,-2.8938,-3.016,-3.1529,0.0,-3.3722,-3.4447,-3.5156,-3.5109,-3.5237,-3.555,-3.4781,-3.4367,-3.4931,-3.5311,-3.5544,-3.5734,-3.5987,-3.6135,-3.6135,-3.6135,-3.6135,-3.6135,-3.66,-3.7064,-3.7777,-3.8229,-3.8979,-3.9842,-3.9842,-3.9995,-4.0279,-4.0279,-4.0777,-4.1527,-4.1971,-4.1784,-4.1399,-4.1349,-4.107,-4.0715,-4.1745,-4.21,-4.21,-4.1329,-4.1533,-4.21,-4.21,-4.2575,-4.3219,-4.3541,-4.2982,-4.2317,-4.2632,-4.203,-4.1324,-4.1324,-4.1324,-4.1324,-4.1324,-4.1769,-4.2137,-4.2137,-4.2625,-4.3026,-4.2753,-4.2425,-4.2109,-4.2048,-4.1474,-4.1007,-4.1165,-4.0828,-4.0346,-3.959,-3.9502,-3.9502,-3.9502,-3.9502,-3.9502,-3.9651,-3.9651,-3.9664,-3.9704,-4.0152,-4.0277,-4.007,-4.0077,-4.0291,-4.0738,-4.0347,-4.0136,-4.0136,-4.0455,-4.0629,-4.0629,-4.0984,-4.1494,-4.2202,-4.2202,-4.2017,-1.7234,-1.8251,-1.9626,-2.0941,-2.2758,-2.4544,-2.5598,-2.6662,-2.7492,-2.7819,-2.9295,-3.0507,-3.0738,-3.1958,-3.3469,-3.5015,-3.5655,-3.6167,-3.6895,-3.6414,-3.6004,-3.611,-3.5864,-3.5856,-3.623,-3.6812,-3.7305,-3.7691,-3.8028,-3.8275,-3.841,-3.8432,-3.8432,-3.8432,-3.8792,-3.9039,-3.9152,-3.9411,-4.0028,-4.0657,-4.0657,-4.0905,-4.1399,-4.1399,-4.1888,-4.2879,-4.335,-4.3385,-4.2856,-4.2656,-4.2238,-4.1867,-4.2961,-4.3356,-4.3245,-4.2463,-4.2687,-4.3356,-4.3356,-4.3932,-4.4722,-4.4722,-4.4068,-4.3232,-4.3075,-4.2522,-4.1908,-4.1723,-4.1868,-4.2164,-4.2164,-4.2722,-4.3177,-4.3177,-4.3748,-4.4312,-4.4312,-4.3947,-4.3645,-4.3749,-4.3073,-4.2507,-4.2596,-4.2195,-4.1881,-4.1881,-4.1881,-4.1596,-4.0717,-4.0603,-4.0661,-4.0887,-4.1,-4.1053,-4.1088,-4.1331,-4.1518,-4.1746,-4.1445,-4.165,-4.2602,-4.214,-4.1894,-4.1894,-4.1894,-4.1894,-4.1894,-4.1894,-4.2232,-4.2879,-4.2879,-4.2971,-1.9297,-2.0755,-2.2321,-2.3147,-2.4925,-2.6408,-2.6507,-2.7985,-2.933,-2.9351,-3.0843,-3.2362,-3.2986,-3.3871,-3.4915,-3.6045,-3.6692,-3.722,-3.7829,-3.7364,-3.7052,-3.7052,-3.6573,-3.6374,0.0,-3.7929,-3.8957,-3.9961,-4.0057,-4.041,-4.0961,-4.0985,-4.0985,-4.0985,-4.1009,-4.1249,-4.1729,-4.1753,-4.2304,-4.3238,-4.3238,-4.3599,-4.4079,-4.4079,-4.4079,-4.4079,-4.4202,-4.3914,-4.3409,-4.4184,-4.4102,-4.3639,-4.4358,-4.4613,-4.4613,-4.4613,-4.4613,-4.4613,-4.4613,-4.4613,-4.4722,-4.4722,-4.433,-4.3729,-4.318,-4.3296,-4.348,-4.2955,-4.3464,-4.4219,-4.4219,-4.4219,-4.4219,-4.4219,-4.4312,-4.4312,-4.4312,-4.4284,-4.4394,-4.4671,-4.4704,-4.485,-4.5114,-4.5161,-4.5161,-4.5161,-4.5161,-4.4074,-4.1,-4.0603,-4.0661,-4.0887,-4.1113,-4.167,-4.2782,-4.3051,-4.3283,-4.3482,-4.3525,-4.3248,-4.2633,-4.2571,-4.2571,-4.2571,-4.2571,-4.2571,-4.2571,-4.2571,-4.291,-4.3525,-4.3525,-4.3895,-2.1139,-2.2452,-2.4113,-2.5952,-2.7242,-2.8492,-3.0098,-3.0925,-3.1561,-3.2022,-3.236,-3.2558,-3.2559,-3.2816,-3.3618,-3.5445,-3.6479,-3.7518,-3.8614,-3.8488,-3.8239,-3.7891,-3.7568,0.0,0.0,0.0,0.0,-3.9067,-3.9762,-4.0242,-4.0547,-4.0908,-4.11,-4.11,-4.11,-4.1172,-4.1341,-4.1365,-4.1701,-4.2399,-4.3,-4.3431,-4.3721,-4.4571,-4.525,-4.5523,-4.5279,-4.5272,-4.5348,-4.4498,-4.4171,-4.4274,-4.4167,-4.4173,-4.4173,-4.4173,-4.4309,-4.4594,-4.4649,-4.4487,-4.4332,-4.5422,-4.5472,-4.5039,-4.554,-4.5548,-4.533,-4.4621,-4.4713,-4.4818,-4.4425,-4.4776,-4.5326,-4.5326,-4.5808,-4.6284,-4.6284,-4.6284,-4.6285,-4.646,-4.6075,-4.5776,-4.5938,-4.5603,-4.5304,-4.5304,-4.4915,-4.4221,-4.3172,-4.2842,-4.271,-4.2951,-4.3111,-4.3506,-4.3974,-4.4082,-4.4144,-4.4264,-4.3833,-4.3464,-4.3248,-4.2848,-4.2602,-4.2602,-4.2602,-4.2817,-4.3248,-4.3248,-4.3587,-4.4233,-4.4233,-4.4356,-2.3095,-2.4272,-2.5737,-2.7964,-2.9166,-3.03,-3.1724,-3.2364,-3.259,-3.2957,-3.2718,-3.234,-3.2156,-3.2141,-3.2847,-3.5263,-3.6514,-3.7661,-3.9389,-3.9341,-3.9086,-3.8825,-3.8498,-3.8415,0.0,0.0,0.0,-3.955,-4.0616,-4.131,-4.1483,-4.2028,-4.2351,-4.2351,-4.2351,-4.2351,-4.2351,-4.2351,-4.2623,-4.3168,-4.4085,-4.4507,-4.4507,-4.5355,-4.6025,-4.6305,-4.6056,-4.5898,-4.5794,-4.5048,-4.4653,-4.4679,-4.4594,-4.4667,-4.4667,-4.4667,-4.4672,-4.4792,-4.4674,-4.4809,-4.525,-4.6223,-4.6531,-4.6468,-4.6923,-4.708,-4.6985,-4.6035,-4.6089,-4.6224,-4.559,-4.5898,-4.6344,-4.6344,-4.6814,-4.7309,-4.7309,-4.7309,-4.7309,-4.7309,-4.695,-4.6681,-4.6681,-4.6292,-4.6022,-4.6022,-4.5454,-4.4855,-4.4458,-4.4198,-4.3995,-4.4096,-4.4189,-4.4343,-4.4572,-4.4572,-4.4572,-4.4572,-4.4172,-4.3925,-4.3925,-4.3525,-4.331,-4.331,-4.331,-4.3525,-4.3925,-4.3925,-4.4141,-4.4572,-4.4572,-4.4572,-2.5068,-2.633,-2.76,-2.9002,-3.0547,-3.1666,-3.1746,-3.227,-3.2718,-3.2348,-3.1882,-3.1729,0.0,0.0,-3.2698,-3.5469,-3.6541,-3.7795,-4.0043,-3.9965,-3.9651,0.0,0.0,0.0,0.0,0.0,0.0,-4.1219,0.0,-4.3258,-4.3807,-4.4408,-4.4722,-4.4722,-4.4722,-4.4722,-4.4722,-4.4722,-4.5009,-4.5584,-4.6159,-4.6421,-4.6421,-4.6421,-4.6447,-4.6473,-4.6533,-4.5904,-4.5017,-4.582,-4.5614,-4.4683,-4.5622,-4.5985,-4.5985,-4.5985,-4.5593,-4.5172,-4.4755,-4.5558,-4.701,-4.7094,-4.7587,-4.7982,-4.749,-4.7978,-4.8515,-4.7323,-4.7611,-4.8177,-4.7519,-4.7339,-4.7309,-4.7309,-4.7309,-4.7309,-4.7309,-4.7309,-4.7309,-4.7309,-4.7309,-4.7309,-4.7309,-4.7309,-4.7309,-4.7309,-4.677,-4.5987,-4.48,-4.47,-4.4588,-4.445,-4.4358,-4.4404,-4.4633,-4.4603,-4.4572,-4.4572,-4.4572,-4.4572,-4.4572,-4.4572,-4.4572,-4.4572,-4.4572,-4.4572,-4.4572,-4.4572,-4.4572,-4.4572,-4.4572,-4.4572,-2.6718,-2.8479,-3.0127,-3.0852,-3.1905,-3.2887,-3.3305,-3.3292,-3.3112,-3.2773,-3.1757,-3.0727,-3.0132,-3.0667,0.0,-3.33,-3.5495,0.0,-3.9547,-4.0043,0.0,-4.02,0.0,-3.9886,-3.9625,-4.0095,0.0,0.0,-4.2134,-4.3075,-4.3232,-4.4173,-4.4722,-4.4722,-4.4722,-4.4722,-4.4722,-4.4722,-4.48,-4.4957,-4.5558,-4.5846,-4.5846,-4.5846,-4.6081,-4.6533,-4.649,-4.6518,-4.6518,-4.6302,-4.6206,-4.6333,-4.5608,-4.5369,-4.5369,-4.5369,-4.5543,-4.5677,-4.5545,-4.5846,-4.663,-4.835,-4.9075,-4.9288,-4.9919,-5.0366,-5.0377,-4.9575,-4.9193,-4.8865,-4.8207,-4.7668,-4.7309,-4.7309,-4.7309,-4.7309,-4.7309,-4.7309,-4.7309,-4.7309,-4.7309,-4.7309,-4.7309,-4.7309,-4.7309,-4.7309,-4.7246,-4.6996,-4.6207,-4.5828,-4.5657,-4.5795,-4.5493,-4.5264,-4.5341,-4.488,-4.4572,-4.4572,-4.4572,-4.4572,-4.4572,-4.4572,-4.4572,-4.4572,-4.4572,-4.4572,-4.4572,-4.4572,-4.4572,-4.4572,-4.4572,-4.4572,-2.8744,-3.0098,-3.1337,-3.2107,-3.2918,-3.3452,-3.3289,-3.2901,-3.2436,-3.1523,-3.0206,-2.8898,-2.8225,-2.886,-3.0,0.0,0.0,0.0,-3.8579,-3.9547,-4.0069,0.0,-4.0278,0.0,-3.9991,-4.0488,-4.0801,0.0,-4.2186,-4.3023,-4.3023,-4.4095,-4.4722,-4.4722,-4.4722,-4.4722,-4.4722,-4.4722,-4.4938,-4.5449,-4.5794,-4.6169,-4.6677,-4.6677,-4.6839,-4.7136,0.0,-4.7129,-4.7177,-4.6869,-4.6871,-4.6842,-4.6339,-4.6148,-4.6148,-4.6148,-4.6279,-4.6521,-4.7109,-4.7391,-4.7717,-4.904,-4.9875,-5.0412,-5.1011,-5.1229,-5.1079,-5.0421,-4.9972,-4.9553,-4.8895,-4.8237,-4.7728,-4.7728,-4.7519,-4.7309,-4.7309,-4.7309,-4.7309,-4.7309,-4.7309,-4.7309,-4.7309,-4.7309,-4.7309,-4.7396,-4.7538,-4.7558,-4.7334,-4.6893,-4.6539,-4.6475,-4.6186,-4.6018,-4.6018,-4.568,-4.5341,-4.5033,-4.5033,-4.488,-4.4603,-4.4572,-4.4572,-4.4572,-4.4572,-4.4572,-4.4572,-4.4572,-4.4572,-4.4572,-4.4918,-4.5223,-3.0843,-3.1705,-3.2364,-3.3201,-3.374,-3.3808,-3.2653,-3.1943,-3.1086,-2.9529,-2.8035,-2.6865,-2.6459,-2.7031,-2.8398,-3.0724,0.0,-3.5384,-3.7742,-3.907,-3.9833,-3.9703,-4.0297,-4.071,-4.071,-4.111,-4.1398,-4.1696,-4.2472,-4.3023,-4.3023,-4.4095,-4.4722,-4.4722,-4.4722,-4.4722,-4.4722,-4.4722,-4.5235,-4.6374,-4.6374,-4.6971,-4.7965,-4.7881,-4.7909,-4.7965,0.0,0.0,-4.7419,-4.7701,-4.7619,-4.7245,-4.7347,-4.7429,-4.7429,-4.7339,-4.7369,-4.7608,-4.8745,-4.9254,-4.9404,-4.9404,-5.0152,-5.1079,-5.1079,-5.1079,-5.099,-5.0511,-5.0301,-5.0122,-4.9553,-4.8835,-4.8297,-4.8297,-4.7788,-4.7309,-4.7309,-4.7309,-4.7309,-4.7309,-4.7366,-4.7452,-4.7538,-4.7624,-4.7764,-4.7934,-4.8019,-4.8187,-4.8604,-4.7999,-4.7415,-4.7071,-4.7074,-4.7012,-4.7012,-4.695,-4.664,-4.6129,-4.6066,-4.5787,-4.5104,-4.5073,-4.5011,-4.4843,-4.4799,-4.4723,-4.4723,-4.474,-4.4726,-4.4771,-4.5583,-4.6307,-3.2796,-3.4006,-3.4909,-3.4895,-3.474,-3.428,-3.3358,-3.1749,-3.0006,-2.849,-2.6958,-2.588,-2.5855,-2.7159,-2.903,-3.1582,-3.3965,-3.6358,-3.8593,-4.022,-4.0923,0.0,-4.1533,-4.2339,-4.2339,-4.1716,0.0,0.0,0.0,-4.3023,-4.3023,-4.4095,-4.4722,-4.4722,-4.4722,-4.4722,-4.4722,-4.4722,-4.5235,-4.6374,-4.6374,-4.6971,-4.7965,-4.7459,-4.7488,-4.801,0.0,0.0,-4.9155,-4.906,-4.9221,-4.9488,-4.8507,-4.8117,-4.8057,-4.7489,-4.7638,-4.8147,-4.8386,-4.9164,-5.0062,-5.0062,-5.0212,-5.0421,-5.0421,-5.0421,-5.0481,-5.093,-5.0661,-5.0212,-5.0092,-4.9194,-4.8297,-4.8297,-4.7788,-4.7309,-4.7309,-4.7309,-4.7309,-4.7309,-4.7849,-4.8407,-4.8512,-4.9135,-4.9694,-4.9852,-5.0041,-5.0197,-5.0274,-4.9631,-4.9139,-4.9284,-4.9413,-4.9405,-4.9405,-4.8891,-4.8505,-4.8377,-4.8377,-4.8055,-4.7348,-4.7316,-4.7059,-4.641,-4.5841,-4.5478,-4.5478,-4.5432,-4.5403,-4.5434,-4.685,-4.715,-3.4095,-3.4944,-3.5599,-3.5749,-3.5193,-3.4208,-3.2581,-3.0581,-2.8518,-2.6914,-2.5578,-2.4671,-2.4624,-2.6153,-2.7956,-2.9407,-3.1965,-3.4696,-3.7043,-3.8894,-4.0368,-4.1404,-4.2422,-4.32,-4.3531,-4.2722,-4.2722,0.0,0.0,-4.3504,-4.377,-4.4414,-4.4722,-4.4722,-4.5235,-4.5555,-4.5555,-4.6164,-4.6971,-4.8094,-4.8094,-4.8596,-4.9679,-4.8943,-4.9001,-4.965,-4.9193,0.0,-5.0449,-4.9968,-4.9942,-5.0152,-4.9164,-4.8596,-4.8297,-4.8327,-4.8297,-4.8386,-4.9075,-4.9703,-5.0242,-5.0242,-5.0242,-5.0242,-5.0242,-5.0242,-5.0301,-5.0631,-5.0481,-5.0152,-4.9823,-4.9284,-4.8893,-4.894,-4.8729,-4.8324,-4.7452,-4.8019,-4.849,-4.8103,-4.8708,-4.9407,-4.9456,-4.9931,-5.032,-5.055,-5.0659,-5.0735,-5.0887,-5.0962,-5.0843,-5.0538,-5.0521,-5.0594,-5.0594,-5.0302,-4.9945,-4.9556,-4.9523,-4.9231,-4.8518,-4.8486,-4.8323,-4.7929,-4.7645,-4.7237,-4.6853,-4.7225,-4.7162,-4.6782,-4.7902,-4.8453,-3.5328,-3.5837,-3.6048,-3.6325,-3.5237,-3.3714,-3.1675,-2.9316,-2.7128,-2.5671,-2.4576,-2.3837,-2.3792,-2.5206,-2.6716,0.0,-3.034,-3.3014,-3.5705,-3.7833,-3.9898,-4.2008,-4.3116,0.0,-4.4535,-4.3748,0.0,0.0,0.0,0.0,-4.5021,-4.5257,-4.5449,-4.5449,-4.6269,-4.6791,-4.6791,-4.7587,-4.8596,-4.9611,-4.9611,-5.0124,-5.1199,-5.0541,-5.0601,-5.1169,-5.0361,0.0,0.0,-5.0511,-5.0331,-5.0391,-4.9733,-4.9164,-4.8745,-4.9134,-4.9045,-4.8835,-4.9883,-5.0423,-5.0667,-5.0547,-5.0304,-5.0212,-5.0062,-5.0032,-5.0032,-5.0032,-5.0094,-5.0155,-4.9644,-4.9581,-4.963,-4.9581,-4.9653,-4.9407,-4.8072,-4.8872,-4.9647,-4.9035,-4.9726,-5.0397,-5.0474,-5.0779,-5.1112,-5.1262,-5.1262,-5.1369,-5.159,-5.2164,-5.2307,-5.1663,-5.159,-5.159,-5.159,-5.159,-5.1361,-5.0812,-5.0779,-5.0451,-4.9763,-4.973,-4.9665,-4.9501,-4.929,-4.886,-4.8144,-4.8719,-4.8615,-4.7934,-4.8789,-4.9425,-3.6896,-3.7493,-3.7501,-3.6793,-3.4822,-3.2761,-3.1717,-2.8756,-2.613,-2.5707,-2.4564,-2.3807,-2.4403,-2.5163,0.0,0.0,0.0,-3.352,-3.6577,-3.9354,-4.1213,-4.1592,-4.3395,-4.4905,-4.5631,-4.4776,0.0,0.0,0.0,0.0,-4.6799,-4.7399,-4.7661,-4.7661,-4.7763,-4.7864,-4.7864,-4.7965,-4.8596,-4.9611,-4.9611,-5.0124,-5.1199,-5.0541,-5.0601,-5.1139,0.0,0.0,0.0,-5.0511,-5.0601,-5.105,-5.0421,-5.0122,-5.0002,-4.9464,-4.9613,-5.0062,-5.0182,-5.1152,-5.2332,-5.1717,-5.0909,-5.0122,-4.9523,-4.9344,-4.9344,-4.9344,-4.994,-5.0493,-5.0432,-5.0537,-5.0511,-4.9899,-4.9789,-4.9726,-4.9567,-4.9726,-4.9805,-4.9931,-5.0659,-5.1369,-5.1704,-5.2416,-5.3041,-5.3212,-5.328,-5.328,-5.328,-5.3348,-5.3348,-5.328,-5.328,-5.328,-5.328,-5.328,-5.3247,-5.3179,-5.3179,-5.2809,-5.2034,-5.2,-5.1663,-5.1023,-5.0359,-4.9622,-4.8928,-4.8931,-4.8544,-4.7826,-4.9247,-4.9589,-3.6586,-3.7143,-3.73,-3.7087,-3.5213,-3.3165,-3.2208,-2.9307,-2.6657,-2.5795,-2.4535,-2.367,-2.3969,-2.4567,-2.5585,0.0,0.0,0.0,-3.3313,-3.577,-3.8329,-4.1134,-4.2849,0.0,0.0,0.0,0.0,0.0,0.0,0.0,-4.777,-4.7584,-4.7431,-4.7431,-4.8397,-4.8993,-4.8993,-4.9611,-5.0095,-5.0508,-5.0508,-5.0822,-5.1199,-5.0541,-5.0601,-5.1169,0.0,0.0,0.0,-5.093,-5.099,-5.1199,-5.093,-5.0601,-5.0242,-5.0391,-5.0698,-5.1149,-5.1455,-5.2449,-5.3365,-5.2559,-5.2082,-5.1729,-5.1017,-5.0553,-5.0213,-5.0213,-5.0434,-5.059,-5.0184,-5.0517,-5.0909,-5.0485,-5.0936,-5.1102,-5.0041,-5.0659,-5.1369,-5.0962,-5.1736,-5.252,-5.2627,-5.311,-5.3416,-5.3518,-5.3518,-5.3518,-5.3518,-5.3518,-5.3518,-5.3518,-5.3518,-5.3518,-5.3518,-5.3518,-5.3518,-5.3518,-5.3518,-5.3382,-5.3044,-5.301,-5.2875,-5.2604,-5.2303,-5.1564,-5.0356,-5.0726,-5.0325,-4.9194,-4.9921,-5.0116,-3.614,-3.6858,-3.7122,-3.7111,-3.5355,-3.3294,-3.2262,-2.9348,-2.6591,-2.5533,-2.4418,-2.361,-2.361,-2.3999,-2.4597,0.0,0.0,-2.8487,-3.1093,-3.3245,-3.5908,-3.9738,0.0,-4.3419,0.0,0.0,0.0,0.0,0.0,0.0,0.0,-4.7585,-4.7491,-4.7663,-4.8923,-4.9655,-4.9735,-5.0525,-5.102,-5.1229,-5.1229,-5.1229,-5.1199,-5.075,-5.078,-5.1199,0.0,0.0,0.0,-5.1665,-5.1727,-5.2002,-5.2002,-5.1698,-5.1364,-5.182,-5.2119,-5.2399,-5.2865,-5.3507,-5.4019,-5.3509,-5.3145,-5.2973,-5.2461,-5.163,-5.0736,-5.0595,-5.0692,-5.0834,-5.0666,-5.1027,-5.1489,-5.1334,-5.1867,-5.2053,-5.0919,-5.1696,-5.2483,-5.1987,-5.259,-5.3247,-5.328,-5.3416,-5.3518,-5.3518,-5.3518,-5.3518,-5.3518,-5.3518,-5.3518,-5.3518,-5.3518,-5.3518,-5.3518,-5.3518,-5.3518,-5.3518,-5.3518,-5.3518,-5.3518,-5.3281,-5.3281,-5.3518,-5.3281,-5.2503,-5.1282,-5.179,-5.1346,-4.9949,-5.0045,-5.0243,-3.5926,-3.6845,-3.7253,-3.6631,-3.4761,-3.2764,-3.1553,-2.8396,-2.5429,-2.4759,-2.4088,-2.361,-2.361,-2.361,-2.4059,-2.5405,-2.6722,0.0,-3.1093,-3.3245,-3.522,0.0,0.0,-4.1205,-4.318,0.0,0.0,0.0,0.0,0.0,0.0,-4.7938,-4.8596,-4.9254,-4.9284,-4.9583,-5.015,-5.0242,-5.0571,-5.1229,-5.1229,-5.1229,-5.1229,-5.1199,-5.1199,0.0,0.0,0.0,0.0,-5.2606,-5.3108,-5.3976,-5.3976,-5.3976,-5.3976,-5.3976,-5.3976,-5.3976,-5.3976,-5.4122,-5.4308,-5.4276,-5.388,-5.3361,-5.3361,-5.2139,-5.069,-5.0026,-5.0384,-5.1285,-5.2158,-5.2373,-5.2373,-5.2373,-5.2373,-5.2445,-5.2553,-5.2553,-5.2694,-5.311,-5.3179,-5.3247,-5.3416,-5.3518,-5.3518,-5.3518,-5.3518,-5.3518,-5.3518,-5.3518,-5.3518,-5.3518,-5.3518,-5.3518,-5.3518,-5.3518,-5.3518,-5.3518,-5.3518,-5.3518,-5.3518,-5.2739,-5.2706,-5.3484,-5.2706,-5.2027,-5.1473,-5.1473,-5.085,-4.9505,-4.9505,-4.9881,-3.2946,-3.3798,-3.4278,-3.4225,-3.2709,-3.1013,-3.0308,-2.8142,-2.5972,-2.4851,-2.4088,-2.361,-2.361,-2.361,-2.4328,-2.6572,-2.729,0.0,0.0,0.0,0.0,-3.6596,-4.0905,-4.4347,0.0,0.0,0.0,0.0,0.0,0.0,0.0,-4.7489,-4.7908,-4.8566,-4.9045,-4.9374,-4.9583,-4.9583,-4.9673,-4.9883,-5.0331,-5.0541,-5.0571,-5.102,0.0,0.0,0.0,0.0,0.0,-5.2606,-5.3108,-5.3976,-5.3976,-5.3976,-5.3976,-5.3976,-5.4401,-5.4838,-5.4356,-5.463,-5.504,-5.402,-5.3544,-5.3334,-5.287,-5.2309,-5.1876,-5.1647,-5.1729,-5.2053,-5.2302,-5.2373,-5.2445,-5.2483,-5.2587,-5.2553,-5.2764,-5.2903,-5.3041,-5.3179,-5.3348,-5.3416,-5.3518,-5.3518,-5.3687,-5.416,-5.3822,-5.3687,-5.4194,-5.3822,-5.3518,-5.3518,-5.3518,-5.3518,-5.3518,-5.3518,-5.3518,-5.3518,-5.2976,-5.2672,-5.2672,-5.1961,-5.1756,-5.2157,-5.1885,-5.1473,-5.0912,-5.0912,-5.0461,-4.9649,-4.9649,-5.012,-3.0785,-3.196,-3.2659,-3.2758,-3.1409,-2.9897,-2.9337,-2.747,-2.5601,-2.47,-2.4169,-2.3867,-2.3867,-2.3867,-2.4411,-2.6105,-2.6657,0.0,0.0,0.0,0.0,-3.7255,0.0,0.0,0.0,0.0,0.0,0.0,0.0,0.0,0.0,-4.7309,-4.7489,-4.7908,-4.8327,-4.8656,-4.8895,-4.8895,-4.9015,-4.9254,-4.9673,-4.9883,-4.9883,-5.0638,0.0,0.0,0.0,0.0,0.0,-5.2511,-5.3133,-5.4212,-5.4212,-5.4212,-5.4244,-5.4502,-5.4924,-5.5371,-5.4946,-5.493,-5.5024,-5.3798,-5.3235,-5.2937,-5.2506,-5.2373,-5.2373,-5.2373,-5.2373,-5.2373,-5.2373,-5.2445,-5.2516,-5.2553,-5.2624,-5.2764,-5.2972,-5.311,-5.3247,-5.328,-5.3416,-5.3518,-5.3518,-5.3721,-5.4059,-5.4532,-5.4465,-5.4397,-5.4566,-5.4194,-5.3822,-5.3551,-5.3518,-5.3518,-5.3518,-5.3518,-5.3382,-5.3078,-5.257,-5.2198,-5.1894,-5.1248,-5.1074,-5.1473,-5.1264,-5.1014,-5.0659,-5.0446,-5.0189,-4.9801,-5.0076,-5.0686,0.0,-3.0852,-3.1898,-3.1869,-3.0572,-2.9116,-2.8457,-2.6393,0.0,-2.4357,-2.4317,-2.4359,-2.4421,-2.4348,-2.4379,-2.4667,-2.5334,0.0,0.0,-3.0492,0.0,0.0,-4.0816,0.0,0.0,0.0,0.0,0.0,0.0,0.0,0.0,-4.7309,-4.7309,-4.7309,-4.7309,-4.7608,-4.8295,-4.8295,-4.8683,-4.9373,-4.9344,-4.9433,-4.9433,-5.0227,0.0,0.0,0.0,0.0,0.0,-5.245,-5.3117,-5.4527,-5.4527,-5.4527,-5.4593,-5.5289,-5.5554,-5.5554,-5.5487,-5.5024,-5.4328,-5.3566,-5.2904,-5.2445,-5.2445,-5.2445,-5.2373,-5.2373,-5.2373,-5.2373,-5.2373,-5.2516,-5.2624,-5.2624,-5.2764,-5.2972,-5.3179,-5.3247,-5.328,-5.3416,-5.3518,-5.3518,-5.3518,-5.4059,-5.4532,-5.4566,-5.5175,-5.5412,-5.4769,-5.4634,-5.4329,-5.3653,-5.3551,-5.3518,-5.3518,-5.3518,-5.3179,-5.2435,-5.2266,-5.1928,-5.1251,-5.0663,-5.0623,-5.1366,-5.0844,-5.0651,-5.0738,-5.0263,-5.0011,-5.0011,-5.0769,-5.1528,-2.5734,0.0,-2.781,-2.7306,-2.6842,-2.6363,0.0,-2.5349,-2.4989,-2.4399,-2.4533,-2.4932,-2.5507,-2.4906,-2.5277,-2.8215,0.0,-2.8879,-3.1571,0.0,0.0,-4.1833,0.0,0.0,0.0,0.0,0.0,0.0,0.0,0.0,0.0,-4.7309,-4.7309,-4.7309,-4.7309,-4.7714,-4.8485,-4.8569,-4.8881,-4.9665,-5.0195,-5.0445,-5.0476,-5.1174,0.0,0.0,0.0,0.0,-5.3161,-5.2999,-5.3574,-5.4527,-5.4527,-5.4527,-5.4527,-5.4725,-5.4792,-5.4692,-5.4129,-5.3831,-5.3566,-5.2981,-5.2757,-5.2764,-5.2764,-5.2587,-5.2373,-5.2373,-5.2445,-5.2553,-5.2553,-5.2694,-5.2834,-5.3041,-5.311,-5.3179,-5.3348,-5.3416,-5.3416,-5.3518,-5.3518,-5.3518,-5.3518,-5.3653,-5.3957,-5.4499,-5.4735,-5.5006,-5.5412,-5.4938,-5.4532,-5.4363,-5.3822,-5.3518,-5.3518,-5.3518,-5.3416,-5.3247,-5.2131,-5.1451,-5.141,-5.0215,-4.9691,-5.0103,-5.0145,-5.0135,-5.0194,-5.008,-5.0011,-5.0011,-5.0769,-5.1528,-2.4148,-2.5345,-2.6512,-2.6153,-2.5824,-2.5525,-2.5166,-2.4954,-2.4698,-2.4151,-2.4642,-2.5233,-2.5448,-2.5399,-2.6062,0.0,-2.8762,0.0,0.0,0.0,-3.894,-4.3334,0.0,0.0,0.0,0.0,0.0,0.0,0.0,0.0,0.0,-4.849,-4.849,-4.849,-4.849,-4.849,-4.8573,-4.8573,-4.9035,-4.9805,-5.0184,-5.0374,-5.0374,-5.1105,-5.1455,0.0,0.0,0.0,-5.2875,-5.2515,-5.2983,-5.3751,-5.3751,-5.3751,-5.3784,-5.4117,-5.425,-5.4183,-5.3784,-5.3418,-5.3157,-5.2827,-5.2834,-5.2903,-5.2903,-5.2764,-5.2657,-5.2657,-5.2694,-5.2764,-5.2764,-5.2903,-5.3041,-5.3179,-5.328,-5.3348,-5.3518,-5.3518,-5.3518,-5.3518,-5.3518,-5.3518,-5.3518,-5.3788,-5.4126,-5.4532,-5.5175,-5.5615,-5.5716,-5.5649,-5.5344,-5.4668,-5.4228,-5.3856,-5.3551,-5.3551,-5.3482,-5.3143,-5.199,-5.124,-5.1089,-5.0025,-4.953,-4.986,-4.9918,-5.0011,-5.0011,-5.0011,-5.0183,-5.0528,-5.1287,-5.2046,-2.3829,-2.5167,-2.6393,-2.6279,-2.5888,-2.5574,-2.55,-2.4989,-2.4387,-2.4144,-2.4976,-2.5713,0.0,-2.623,0.0,0.0,0.0,0.0,-3.7377,-3.8145,-3.9786,0.0,0.0,0.0,0.0,0.0,0.0,0.0,0.0,0.0,0.0,-4.9489,-4.9489,-4.9489,-4.9489,-4.9173,-4.8643,-4.886,-4.9358,-5.0229,-5.0229,-5.0229,-5.0197,-5.0951,-5.1359,0.0,0.0,0.0,-5.259,-5.1958,-5.2196,-5.2903,-5.2903,-5.2903,-5.3004,-5.3606,-5.3774,-5.3673,-5.3673,-5.3271,-5.2838,-5.2939,-5.2972,-5.2972,-5.2972,-5.2972,-5.2972,-5.2972,-5.2972,-5.2972,-5.2972,-5.311,-5.3247,-5.3247,-5.3348,-5.3518,-5.3518,-5.3518,-5.3518,-5.3518,-5.3518,-5.3518,-5.3518,-5.4025,-5.4431,-5.4431,-5.5683,-5.6393,-5.5649,-5.6292,-5.6224,-5.4735,-5.4499,-5.4126,-5.3382,-5.3379,-5.3105,-5.2558,-5.1911,-5.1225,-5.0522,-4.9992,-4.986,-5.0011,-5.0011,-5.0011,-5.0011,-5.0011,-5.039,-5.1149,-5.1873,-5.2632,-2.4798,-2.5484,-2.5588,-2.4841,-2.4989,-2.5259,-2.5092,-2.5179,-2.5297,0.0,0.0,0.0,0.0,-2.8192,-2.9049,0.0,0.0,-3.6428,0.0,0.0,0.0,0.0,0.0,0.0,0.0,0.0,0.0,0.0,0.0,0.0,0.0,0.0,-4.7959,-4.7959,-4.7959,-4.8263,-4.8817,-5.0113,-5.1102,-5.198,-5.198,-5.198,-5.198,-5.2125,-5.2269,0.0,0.0,-5.2594,-5.2834,-5.27,-5.2803,-5.2903,-5.2903,-5.2903,-5.2903,-5.3037,-5.2669,-5.2133,-5.2133,-5.2202,-5.2303,-5.2908,-5.328,-5.3416,-5.3416,-5.3416,-5.3416,-5.3416,-5.328,-5.3179,-5.3179,-5.328,-5.3416,-5.3416,-5.3518,-5.3518,-5.3518,-5.3518,-5.3518,-5.3518,-5.3518,-5.3518,-5.3518,-5.3585,-5.3687,-5.3687,-5.4938,-5.5615,-5.4871,-5.5953,-5.6224,-5.4735,-5.4025,-5.3415,-5.2802,-5.2187,-5.1907,-5.2118,-5.1856,-5.111,-4.9889,-4.9928,-4.9952,-5.0011,-5.0011,-5.0011,-5.0011,-5.0011,-5.039,-5.1149,-5.1873,-5.2632,-2.3975,-2.4575,-2.5106,-2.5615,-2.6334,-2.6795,-2.6305,-2.6459,-2.6594,0.0,0.0,0.0,0.0,0.0,-3.1265,-3.4202,0.0,0.0,0.0,0.0,0.0,0.0,0.0,0.0,0.0,0.0,0.0,0.0,0.0,0.0,0.0,0.0,-4.9037,-4.9037,-4.9037,-4.918,-4.9599,-5.0255,-5.0829,-5.1214,-5.1214,-5.1483,-5.1918,-5.1918,-5.2187,-5.2764,0.0,-5.2903,-5.3041,-5.3041,-5.311,-5.3212,-5.3212,-5.3212,-5.3145,-5.2707,-5.2102,-5.1462,-5.1462,-5.1528,-5.1661,-5.1999,-5.22,-5.2334,-5.2739,-5.2841,-5.2942,-5.3382,-5.3416,-5.3348,-5.3348,-5.3416,-5.3518,-5.3518,-5.3518,-5.3619,-5.4025,-5.4093,-5.4194,-5.4634,-5.4702,-5.4566,-5.416,-5.4093,-5.3957,-5.3551,-5.4769,-5.5446,-5.4668,-5.6224,-5.6664,-5.4803,-5.4736,-5.4432,-5.3309,-5.2686,-5.209,-5.139,-5.1356,-5.0935,-4.9894,-4.9952,-5.0011,-5.0011,-5.0011,-5.0011,-5.0011,-5.0011,-5.0597,-5.1701,-5.2046,-5.2839,-2.3606,-2.4074,-2.4923,-2.6704,-2.737,-2.7752,-2.8246,-2.8147,-2.7965,-2.8013,0.0,0.0,0.0,-3.097,0.0,-3.7334,0.0,0.0,0.0,0.0,0.0,0.0,0.0,0.0,0.0,0.0,0.0,0.0,0.0,0.0,0.0,0.0,-4.969,-4.969,-4.969,-4.969,-4.969,-4.969,-4.9924,-5.0255,-5.0255,-5.0622,-5.1327,-5.1327,-5.1729,-5.2469,-5.2469,-5.2707,-5.2977,-5.2977,-5.318,-5.3518,-5.3518,-5.3518,-5.3382,-5.2401,-5.1691,-5.1183,-5.1014,-5.0947,-5.098,-5.115,-5.1217,-5.1352,-5.2097,-5.23,-5.2469,-5.3281,-5.3518,-5.3518,-5.3518,-5.3518,-5.3518,-5.3518,-5.3619,-5.3923,-5.4465,-5.4735,-5.5006,-5.5615,-5.5716,-5.5547,-5.4938,-5.4702,-5.4465,-5.4059,-5.5006,-5.5513,-5.4938,-5.6494,-5.6833,-5.4872,-5.5145,-5.4771,-5.3202,-5.2775,-5.2069,-5.0695,-5.0779,-5.0597,-5.0011,-5.0011,-5.008,-5.0252,-5.0252,-5.0252,-5.0252,-5.0424,-5.1114,-5.2218,-5.2425,-5.3218,-2.5106,-2.5112,-2.5049,-2.7275,-2.6681,-2.6659,-3.0586,-3.0051,-2.9381,-3.1781,0.0,0.0,0.0,-3.4349,-3.6934,-3.9698,0.0,0.0,0.0,0.0,0.0,0.0,0.0,0.0,0.0,0.0,0.0,0.0,0.0,0.0,0.0,0.0,0.0,-4.8166,-4.8166,-4.8166,-4.8166,-4.8264,-4.8994,-5.0426,-5.0426,-5.0526,-5.0727,-5.0727,-5.0894,-5.1159,-5.1159,-5.1562,-5.2367,-5.2367,-5.2807,-5.3518,-5.3518,-5.3518,-5.3315,-5.1826,-5.1251,-5.1116,-5.0405,-5.0168,-5.027,-5.098,-5.1217,-5.1352,-5.2097,-5.23,-5.2469,-5.3281,-5.3518,-5.3518,-5.3518,-5.3518,-5.3518,-5.3518,-5.4025,-5.4532,-5.4566,-5.5141,-5.5649,-5.5716,-5.5716,-5.5683,-5.5649,-5.504,-5.4803,-5.548,-5.5649,-5.5683,-5.5649,-5.6359,-5.6362,-5.4907,-5.4227,-5.3134,-5.1261,-5.1202,-5.0942,-5.0149,-5.008,-5.008,-5.0011,-5.0011,-5.0321,-5.1011,-5.1045,-5.1045,-5.1045,-5.1735,-5.2114,-5.2252,-5.2977,-5.3736,-2.3851,-2.4403,-2.5232,-2.7081,-2.747,-2.818,-3.0849,-3.1824,-3.2674,-3.4492,-3.5318,0.0,0.0,0.0,-3.8825,0.0,0.0,0.0,0.0,0.0,0.0,0.0,0.0,0.0,0.0,0.0,0.0,0.0,0.0,0.0,0.0,0.0,0.0,-4.8001,-4.8066,-4.8098,-4.8098,-4.8292,-4.8721,-4.9385,-4.9256,-4.9555,-5.0188,-5.0188,-5.0553,-5.1088,-5.1088,-5.1321,-5.1623,-5.1623,-5.2063,-5.2807,-5.3315,-5.3179,-5.2672,-5.2097,-5.1589,-5.1183,-5.0879,-5.0473,-5.0135,-5.0439,-5.0202,-4.9965,-5.071,-5.0913,-5.1082,-5.186,-5.2097,-5.23,-5.3247,-5.3518,-5.3518,-5.3518,-5.4059,-5.4735,-5.5209,-5.5852,-5.6528,-5.6968,-5.6697,-5.6258,-5.5784,-5.5108,-5.4668,-5.4972,-5.5006,-5.5006,-5.5006,-5.5683,-5.5617,-5.4295,-5.4086,-5.3562,-5.2544,-5.2019,-5.1494,-5.0735,-5.0252,-5.0011,-5.0011,-5.0011,-5.0355,-5.1114,-5.0666,-5.0666,-5.1114,-5.139,-5.177,-5.2252,-5.3046,-5.3804,-2.3291,-2.3984,-2.517,-2.6714,-2.8213,-2.9845,-3.1791,-3.3528,-3.5285,-3.7269,-3.797,-3.8087,-3.7731,0.0,0.0,0.0,0.0,0.0,0.0,0.0,0.0,0.0,0.0,0.0,0.0,0.0,0.0,0.0,0.0,0.0,0.0,0.0,0.0,0.0,-4.8127,-4.8192,-4.7958,-4.8383,-4.8644,-4.8769,-4.8673,-4.9005,-4.9607,-4.9607,-4.994,-5.0507,-5.0507,-5.0642,-5.0845,-5.0845,-5.1285,-5.2029,-5.2807,-5.2773,-5.23,-5.23,-5.1995,-5.1522,-5.1285,-5.0879,-5.0405,-5.0168,-4.9763,-4.9424,-4.9932,-5.0101,-5.0236,-5.1014,-5.1217,-5.1454,-5.2503,-5.2942,-5.3179,-5.345,-5.4059,-5.4735,-5.5243,-5.5953,-5.6664,-5.7408,-5.7137,-5.663,-5.6156,-5.5446,-5.4938,-5.4938,-5.4735,-5.4668,-5.4905,-5.5175,-5.494,-5.3919,-5.411,-5.4058,-5.346,-5.2908,-5.2287,-5.1528,-5.0769,-5.0252,-5.0011,-5.0218,-5.0597,-5.1114,-5.0838,-5.0838,-5.1114,-5.1597,-5.1977,-5.2252,-5.3253,-5.4011,-2.395,-2.421,-2.4789,-2.632,0.0,0.0,-3.3912,-3.5198,-3.6754,-4.016,-4.0247,-3.9711,-3.9711,-4.0438,0.0,0.0,0.0,0.0,0.0,0.0,0.0,0.0,0.0,0.0,0.0,0.0,0.0,0.0,0.0,0.0,0.0,0.0,0.0,0.0,-4.8082,-4.8115,-4.7412,-4.8337,-4.8769,-4.8769,-4.8923,-4.8984,-4.9018,-4.9018,-4.9018,-4.9018,-4.9018,-4.9424,-5.0067,-5.0101,-5.0541,-5.1285,-5.1995,-5.23,-5.23,-5.23,-5.23,-5.2198,-5.1488,-5.1251,-5.1116,-5.0338,-5.0101,-5.0101,-5.0101,-5.0101,-5.0236,-5.098,-5.1183,-5.1183,-5.1217,-5.1725,-5.2469,-5.3281,-5.4025,-5.4566,-5.4566,-5.5175,-5.5919,-5.663,-5.6765,-5.6765,-5.6799,-5.619,-5.5683,-5.5716,-5.5074,-5.4837,-5.5615,-5.504,-5.4432,-5.4049,-5.4303,-5.4184,-5.346,-5.3391,-5.3046,-5.2252,-5.1528,-5.0769,-5.0045,-5.07,-5.1114,-5.1114,-5.1839,-5.1839,-5.1114,-5.2632,-5.2977,-5.2252,-5.3804,-5.4494,-2.293,-2.4211,0.0,-2.6881,0.0,0.0,0.0,-3.7879,-3.9716,0.0,-4.2745,-4.1909,-4.1121,0.0,0.0,0.0,0.0,0.0,0.0,0.0,0.0,0.0,0.0,0.0,0.0,0.0,0.0,0.0,0.0,0.0,0.0,0.0,0.0,0.0,-4.6932,-4.6992,-4.6791,-4.7207,-4.7402,-4.7402,-4.7462,-4.8003,-4.9018,-4.9018,-4.9018,-4.9018,-4.9018,-4.912,-4.9357,-4.9864,-5.0236,-5.0507,-5.1251,-5.1555,-5.1589,-5.2131,-5.23,-5.2367,-5.2706,-5.2469,-5.1961,-5.1725,-5.1285,-5.0777,-5.0236,-5.0101,-5.0033,-4.9729,-4.9661,-4.9763,-5.0304,-5.0574,-5.0947,-5.1725,-5.2469,-5.2976,-5.2976,-5.3585,-5.4363,-5.5108,-5.4837,-5.4634,-5.5141,-5.4634,-5.4329,-5.4837,-5.4296,-5.3957,-5.4228,-5.4193,-5.4154,-5.411,-5.392,-5.3632,-5.3425,-5.2425,-5.1701,-5.1459,-5.0735,-5.0459,-5.0769,-5.0493,-5.0562,-5.1114,-5.0804,-5.0804,-5.1114,-5.208,-5.2459,-5.2252,-5.3804,-5.4494,-2.3714,-2.5471,0.0,-2.8929,-3.215,-3.5757,-3.8937,0.0,0.0,0.0,-4.3922,-4.3048,-4.2411,0.0,0.0,0.0,0.0,0.0,0.0,0.0,0.0,0.0,0.0,0.0,0.0,0.0,0.0,0.0,0.0,0.0,0.0,0.0,0.0,0.0,-4.6439,-4.6499,-4.6229,-4.6591,-4.6786,-4.6786,-4.6786,-4.7259,-4.8139,-4.8443,-4.8714,-4.9018,-4.9018,-4.9018,-4.9052,-4.9492,-4.9661,-4.9729,-5.0473,-5.0777,-5.0845,-5.1589,-5.186,-5.1928,-5.2435,-5.2469,-5.2266,-5.1961,-5.1758,-5.1522,-5.0777,-5.0338,-4.9999,-4.956,-4.9221,-4.912,-4.956,-4.9661,-4.9932,-5.098,-5.1555,-5.186,-5.186,-5.2232,-5.2807,-5.3551,-5.3315,-5.3179,-5.3619,-5.3585,-5.3551,-5.3653,-5.3619,-5.3482,-5.3309,-5.3471,-5.3528,-5.3381,-5.306,-5.2942,-5.2942,-5.208,-5.1563,-5.1563,-5.0838,-5.0666,-5.108,-5.0666,-5.0528,-5.0666,-5.0528,-5.0666,-5.1114,-5.1839,-5.239,-5.2735,-5.3942,-5.4494,-2.5401,-2.7135,-2.9048,-3.1651,-3.4167,0.0,-4.1238,-4.276,-4.3572,-4.4418,0.0,-4.3538,-4.3538,0.0,0.0,0.0,0.0,0.0,0.0,0.0,0.0,0.0,0.0,0.0,0.0,0.0,0.0,0.0,0.0,0.0,0.0,0.0,0.0,0.0,-4.6244,-4.6278,-4.5602,-4.6244,-4.6583,0.0,-4.6583,-4.6616,-4.6718,-4.7462,-4.8206,-4.8917,-4.8917,-4.8951,-4.9018,-4.9018,-4.9018,-4.9086,-4.9729,-4.9999,-5.0067,-5.0845,-5.1116,-5.1116,-5.1183,-5.1657,-5.2097,-5.142,-5.1725,-5.2164,-5.142,-5.0777,-5.027,-5.0135,-4.9627,-4.9086,-4.9018,-4.9018,-4.9357,-5.071,-5.1014,-5.1014,-5.1014,-5.1014,-5.1217,-5.1961,-5.2097,-5.2131,-5.2198,-5.2807,-5.3044,-5.23,-5.294,-5.3275,-5.2595,-5.2814,-5.2729,-5.2042,-5.2027,-5.2114,-5.2114,-5.2046,-5.2011,-5.2011,-5.139,-5.1011,-5.1011,-5.1011,-5.07,-5.0011,-5.0666,-5.1011,-5.1011,-5.1839,-5.2597,-5.3322,-5.4115,-5.4494,-2.3712,-2.6228,0.0,-3.1651,-3.5723,-3.9512,-4.1068,-4.2016,-4.2929,-4.4282,-4.4451,-4.4316,0.0,0.0,0.0,0.0,0.0,0.0,0.0,0.0,0.0,0.0,0.0,0.0,0.0,0.0,0.0,0.0,0.0,0.0,0.0,0.0,0.0,-4.4823,-4.4959,-4.4993,-4.4823,-4.4959,-4.506,0.0,-4.506,-4.5365,-4.5974,-4.6684,-4.7428,-4.8173,-4.8173,-4.8477,-4.9018,-4.9018,-4.9018,-4.9018,-4.9187,-4.9255,-4.9323,-5.0067,-5.0338,-5.0405,-5.1014,-5.1319,-5.142,-5.1251,-5.1725,-5.2164,-5.142,-5.1488,-5.1589,-5.0405,-4.9965,-4.9729,-4.9154,-4.9018,-4.9086,-4.9424,-4.9492,-4.9492,-4.9492,-4.9492,-4.9695,-5.0439,-5.0574,-5.0744,-5.1352,-5.1589,-5.1657,-5.1488,-5.1719,-5.1945,-5.1936,-5.209,-5.2241,-5.2192,-5.1641,-5.1356,-5.1356,-5.0804,-5.0493,-5.0493,-5.0321,-5.0252,-5.0252,-5.0252,-5.0183,-5.0011,-5.0149,-5.0252,-5.0252,-5.1563,-5.2321,-5.2494,-5.3873,-5.4592,-2.4315,0.0,0.0,-3.4023,0.0,-3.9851,-4.0967,-4.1508,-4.2083,-4.3234,-4.347,0.0,0.0,0.0,0.0,0.0,0.0,0.0,0.0,0.0,0.0,0.0,0.0,0.0,0.0,0.0,0.0,0.0,0.0,0.0,0.0,-4.4587,-4.4587,-4.4587,-4.4587,-4.4587,-4.4587,-4.4587,-4.4587,-4.4587,-4.4587,-4.479,-4.5196,-4.6278,-4.6989,-4.7361,-4.7361,-4.78,-4.8477,-4.8477,-4.868,-4.9018,-4.9018,-4.9018,-4.9052,-4.9424,-4.956,-4.9627,-5.0033,-5.0371,-5.0676,-5.0676,-5.1183,-5.1725,-5.1319,-5.1488,-5.1623,-5.0845,-5.0642,-5.0473,-4.9729,-4.9526,-4.9424,-4.9086,-4.9018,-4.9018,-4.9018,-4.9018,-4.912,-4.9492,-4.956,-4.9695,-5.0101,-5.0439,-5.0811,-5.1312,-5.1473,-5.1526,-5.1275,-5.1424,-5.1443,-5.1183,-5.0804,-5.0562,-5.0562,-5.0218,-5.0011,-5.0011,-5.0011,-5.0011,-5.0011,-5.0011,-5.0011,-5.0011,-5.0011,-5.0183,-5.0528,-5.1666,-5.2425,-5.2804,-5.4039,-5.4717,-2.4842,0.0,-3.1461,-3.6299,-3.8261,0.0,-4.0527,-4.0933,-4.117,-4.1779,0.0,0.0,0.0,0.0,0.0,0.0,0.0,0.0,0.0,0.0,0.0,0.0,0.0,0.0,0.0,0.0,0.0,0.0,0.0,0.0,-4.4181,-4.4181,-4.4181,-4.4181,-4.4181,-4.4181,-4.4181,-4.4181,-4.4181,-4.4181,-4.4316,-4.4451,-4.4621,-4.5838,-4.6481,-4.6616,-4.6616,-4.7022,-4.7733,-4.7733,-4.8071,-4.8646,-4.8748,-4.8815,-4.8849,-4.8951,-4.9018,-4.9018,-4.9018,-4.939,-4.9898,-4.9898,-5.0405,-5.1014,-5.1014,-5.1116,-5.1183,-5.1048,-5.1116,-5.1048,-5.027,-5.0168,-5.0101,-4.9357,-4.9187,-4.9154,-4.9018,-4.9018,-4.9018,-4.9018,-4.9018,-4.9018,-4.9018,-4.9492,-5.0164,-5.0997,-5.1225,-5.1172,-5.0704,-5.0789,-5.07,-5.008,-5.0011,-5.0011,-5.0011,-5.0011,-5.0011,-5.0011,-5.0011,-5.0011,-5.0011,-5.0011,-5.0011,-5.0011,-5.0011,-5.0321,-5.0907,-5.1666,-5.2417,-5.3073,-5.4094,-5.4634,-2.2092,0.0,-3.1833,0.0,-3.7483,-3.9039,0.0,0.0,-4.0257,0.0,0.0,0.0,0.0,0.0,0.0,0.0,0.0,0.0,0.0,0.0,0.0,0.0,0.0,0.0,0.0,0.0,0.0,0.0,0.0,0.0,-4.2591,-4.2591,-4.2591,-4.2591,-4.2591,-4.2591,-4.2591,-4.2591,-4.2591,-4.2591,-4.3267,-4.3944,-4.4587,-4.479,-4.5229,-4.5838,-4.5838,-4.6278,-4.6955,-4.6955,-4.6989,-4.7158,-4.78,-4.8071,-4.8139,-4.8781,-4.9018,-4.9018,-4.9018,-4.9052,-4.9154,-4.9154,-4.9661,-5.0236,-5.0236,-5.071,-5.1082,-5.0439,-5.071,-5.1048,-5.027,-5.0574,-5.0879,-5.0135,-4.9932,-4.9763,-4.9154,-4.9018,-4.9018,-4.9018,-4.9018,-4.9018,-4.9018,-4.9086,-4.9249,-4.944,-4.9657,-4.9804,-4.988,-4.9997,-5.0114,-5.0011,-5.0011,-5.0011,-5.0011,-5.0011,-5.0011,-5.0011,-5.0011,-5.0011,-5.0011,-5.0011,-5.0011,-5.0011,-5.0011,-5.0045,-5.0149,-5.099,-5.1523,-5.1661,-5.3202,-5.4017,-2.3636,-2.757,-3.1433,0.0,-3.6366,-3.7313,-3.8193,0.0,-3.9478,0.0,0.0,0.0,0.0,0.0,0.0,0.0,0.0,0.0,0.0,0.0,0.0,0.0,0.0,0.0,0.0,0.0,0.0,0.0,0.0,-4.2286,-4.2286,-4.2286,-4.2286,-4.2286,-4.2286,-4.2286,-4.2286,-4.2286,-4.2286,-4.2286,-4.2625,-4.2963,-4.3301,-4.3741,-4.435,-4.506,-4.506,-4.55,-4.6177,-4.6177,-4.6413,-4.6819,-4.7158,-4.7564,-4.797,-4.8274,-4.8646,-4.9018,-4.9018,-4.9018,-4.9018,-4.9018,-4.9221,-4.9492,-4.9492,-4.9999,-5.0507,-5.0168,-5.0642,-5.115,-5.0811,-5.098,-5.115,-5.0811,-5.071,-5.0642,-5.0304,-4.9593,-4.9018,-4.9018,-4.9018,-4.9018,-4.9018,-4.9046,-4.9168,-4.935,-4.953,-4.9649,-4.986,-4.9952,-5.0011,-5.0011,-5.0011,-5.0011,-5.0011,-5.0011,-5.0011,-5.0011,-5.0011,-5.0011,-5.0011,-5.0011,-5.0011,-5.0011,-5.0011,-5.0068,-5.0092,-5.0876,-5.1338,-5.1431,-5.3171,-5.4056,0.0,0.0,-2.9678,-3.333,-3.4641,-3.5453,0.0,0.0,0.0,0.0,0.0,0.0,0.0,0.0,0.0,0.0,0.0,0.0,0.0,0.0,0.0,0.0,0.0,0.0,0.0,0.0,0.0,0.0,0.0,-4.1711,-4.1711,-4.1711,-4.1813,-4.2016,-4.2016,-4.2117,-4.2286,-4.2117,-4.2016,-4.2016,-4.2016,-4.2117,-4.232,-4.2861,-4.3538,-4.4282,-4.4485,-4.4891,-4.5432,-4.5432,-4.5737,-4.6244,-4.6447,-4.6853,-4.7394,-4.7767,-4.8274,-4.8714,-4.8714,-4.8714,-4.8714,-4.8714,-4.8714,-4.8781,-4.8951,-4.939,-4.983,-4.983,-5.0338,-5.0913,-5.0913,-5.1082,-5.1183,-5.098,-5.0913,-5.0913,-5.0913,-5.0067,-4.9221,-4.9052,-4.9018,-4.9018,-4.9046,-4.9107,-4.929,-4.953,-4.9649,-4.9767,-5.0011,-5.0011,-5.0011,-5.0011,-5.0011,-5.0011,-5.0011,-5.0011,-5.0011,-5.0011,-5.0011,-5.0011,-5.0011,-5.0011,-5.0011,-5.0034,-5.0034,-5.0092,-5.0171,-5.0783,-5.1176,-5.1324,-5.2857,-5.3579,0.0,-2.4368,0.0,-2.9576,-3.2049,-3.3982,0.0,0.0,0.0,0.0,0.0,0.0,0.0,0.0,0.0,0.0,0.0,0.0,0.0,0.0,0.0,0.0,0.0,0.0,0.0,0.0,0.0,0.0,0.0,-4.0189,-4.0189,-4.0189,-4.0527,-4.1238,-4.1271,-4.1576,-4.2286,-4.161,-4.1271,-4.1271,-4.1271,-4.161,-4.2286,-4.232,-4.276,-4.3504,-4.4248,-4.4587,-4.4654,-4.4654,-4.4654,-4.4756,-4.5466,-4.5805,-4.5974,-4.7394,-4.7936,-4.797,-4.797,-4.797,-4.797,-4.797,-4.797,-4.8105,-4.8781,-4.9018,-4.9052,-4.9052,-4.9593,-5.0135,-5.0135,-5.0676,-5.1048,-5.0304,-5.0135,-5.0135,-5.0135,-5.0101,-4.983,-4.9154,-4.9018,-4.9046,-4.9168,-4.9168,-4.929,-4.9649,-4.9708,-4.9767,-5.0011,-5.0011,-5.0011,-5.0011,-5.0011,-5.0011,-5.0011,-5.0011,-5.0011,-5.0011,-5.0011,-5.0011,-5.0011,-5.0011,-5.0034,-5.0206,-5.0206,-5.0171,-5.0171,-5.0488,-5.0655,-5.0655,-5.164,-5.2137,-2.1713,0.0,0.0,-2.7538,-2.9785,-3.1691,-3.2625,0.0,0.0,0.0,0.0,0.0,0.0,0.0,0.0,0.0,0.0,0.0,0.0,0.0,0.0,0.0,0.0,0.0,0.0,0.0,0.0,0.0,0.0,0.0,-4.0087,-4.0087,-4.0189,-4.0493,-4.0493,-4.0832,-4.1576,-4.1339,-4.1204,-4.1204,-4.0696,-4.0629,-4.0899,-4.1373,-4.1745,-4.2049,-4.2794,-4.3673,-4.4587,-4.4587,-4.4587,-4.4621,-4.4891,-4.5263,-4.5771,-4.6312,-4.709,-4.7834,-4.7361,-4.7496,-4.7936,-4.7936,-4.7936,-4.8071,-4.8781,-4.9018,-4.9018,-4.9018,-4.9187,-4.9492,-4.9965,-5.0304,-5.0541,-5.0777,-5.0811,-5.0676,-5.0202,-4.9729,-4.9323,-4.9052,-4.9046,-4.9168,-4.9168,-4.9411,-4.959,-4.9708,-4.9801,-4.9918,-5.0011,-5.0011,-5.0011,-5.0011,-5.0011,-5.0011,-5.0011,-5.0011,-5.0011,-5.0011,-5.0011,-5.0011,-5.0011,-5.0011,-5.0034,-5.0206,-5.0285,-5.0341,-5.0453,-5.053,-5.0675,-5.0819,-5.159,-5.2032,-2.0587,-2.2176,0.0,0.0,0.0,-2.9039,-3.1215,0.0,0.0,0.0,0.0,0.0,0.0,0.0,0.0,0.0,0.0,0.0,0.0,0.0,0.0,0.0,0.0,0.0,0.0,0.0,0.0,0.0,0.0,0.0,-3.9343,-3.958,-3.9715,-3.9715,-3.9952,-4.0324,-4.0832,-4.0832,-4.0832,-4.0832,-4.0324,-4.0087,-4.0087,-4.0595,-4.0967,-4.1238,-4.1711,-4.2794,-4.4181,-4.4181,-4.435,-4.4587,-4.4587,-4.4891,-4.5365,-4.5602,-4.6346,-4.7158,-4.6887,-4.7124,-4.753,-4.753,-4.753,-4.7665,-4.8409,-4.8646,-4.868,-4.8951,-4.9018,-4.912,-4.9593,-4.9729,-4.9864,-5.0371,-5.0473,-5.0338,-4.983,-4.9526,-4.9289,-4.9114,-4.9107,-4.9229,-4.935,-4.953,-4.9708,-4.9801,-4.9918,-5.0011,-5.0011,-5.0011,-5.0011,-5.0011,-5.0011,-5.0011,-5.0011,-5.0011,-5.0011,-5.0011,-5.0011,-5.0011,-5.0011,-5.0034,-5.0149,-5.0228,-5.0397,-5.0564,-5.0729,-5.0729,-5.0729,-5.0908,-5.14,-5.1786,0.0,0.0,0.0,0.0,0.0,0.0,0.0,0.0,0.0,0.0,0.0,0.0,0.0,0.0,0.0,0.0,0.0,0.0,0.0,0.0,0.0,0.0,0.0,0.0,0.0,0.0,0.0,0.0,0.0,-3.8734,-3.8024,-3.8633,-3.9005,-3.9005,-3.9715,-4.0087,-4.0087,-4.0054,-4.0054,-4.0087,-4.0054,-4.0054,-4.0087,-4.0087,-4.0493,-4.117,-4.117,-4.2016,-4.3369,-4.3403,-4.3876,-4.4553,-4.4587,-4.4587,-4.4688,-4.5399,-4.5703,-4.5805,-4.6481,-4.6752,-4.6786,-4.6786,-4.6819,-4.6955,-4.7733,-4.7936,-4.8105,-4.8815,-4.9018,-4.9018,-4.9018,-4.9018,-4.9018,-4.9018,-4.9018,-4.9018,-4.9018,-4.956,-4.9893,-4.9304,-4.9229,-4.935,-4.9649,-4.9708,-4.9801,-4.9952,-5.0011,-5.0011,-5.0011,-5.0011,-5.0011,-5.0011,-5.0011,-5.0011,-5.0011,-5.0011,-5.0011,-5.0011,-5.0011,-5.0011,-5.0011,-5.0149,-5.0228,-5.0397,-5.053,-5.0729,-5.0873,-5.0873,-5.0873,-5.0873,-5.0873,-5.1294,-1.943,0.0,0.0,0.0,0.0,0.0,0.0,0.0,0.0,0.0,0.0,0.0,0.0,0.0,0.0,0.0,0.0,0.0,0.0,0.0,0.0,0.0,0.0,0.0,0.0,0.0,0.0,0.0,-3.9648,-3.9681,-3.9478,-3.9174,-3.9005,-3.9005,-3.9208,-3.9309,-3.9309,-3.9309,-3.9546,-4.0054,-3.9546,-3.958,-4.0087,-4.0087,-4.0189,-4.0392,-4.0392,-4.0933,-4.1914,-4.2963,-4.3538,-4.3809,-4.435,-4.4587,-4.4587,-4.4823,-4.5229,-4.5669,-4.5297,-4.5906,-4.6786,-4.6786,-4.7158,-4.7733,-4.8477,-4.8714,-4.8748,-4.8951,-4.9018,-4.9018,-4.9018,-4.9018,-4.9018,-4.9018,-4.9018,-4.9018,-4.9018,-4.9215,-4.9406,-4.9202,-4.9411,-4.959,-4.9708,-4.9801,-4.9952,-5.0011,-5.0011,-5.0011,-5.0011,-5.0011,-5.0011,-5.0011,-5.0011,-5.0011,-5.0011,-5.0011,-5.0011,-5.0011,-5.0011,-5.0034,-5.0149,-5.0206,-5.0285,-5.053,-5.0585,-5.0729,-5.0873,-5.0873,-5.0873,-5.0873,-5.0873,-5.1013,-2.0532,-2.1118,-2.2108,0.0,0.0,0.0,0.0,-2.5949,0.0,0.0,0.0,0.0,0.0,0.0,0.0,0.0,0.0,0.0,0.0,0.0,0.0,0.0,0.0,0.0,0.0,0.0,0.0,-3.9208,-3.9445,-3.9664,-3.9747,-3.8986,-3.858,-3.8628,-3.858,-3.87,-3.9005,-3.87,-3.8903,-3.9614,-3.887,-3.8937,-3.9614,-3.9614,-3.9783,-4.0087,-4.0087,-4.0324,-4.0832,-4.2016,-4.2861,-4.347,-4.391,-4.4282,-4.4587,-4.4587,-4.4857,-4.5229,-4.5094,-4.5602,-4.638,-4.6684,-4.709,-4.7597,-4.8342,-4.8545,-4.8612,-4.8917,-4.9018,-4.9018,-4.9018,-4.9018,-4.9018,-4.9018,-4.9018,-4.9018,-4.9046,-4.9229,-4.935,-4.935,-4.953,-4.9708,-4.9801,-4.9918,-5.0011,-5.0011,-5.0011,-5.0011,-5.0011,-5.0011,-5.0011,-5.0011,-5.0011,-5.0011,-5.0011,-5.0011,-5.0011,-5.0092,-5.0092,-5.0149,-5.0285,-5.0341,-5.0453,-5.0585,-5.0675,-5.0819,-5.0873,-5.0873,-5.0873,-5.0873,-5.0873,-5.0873,-2.2212,-2.2315,-2.3143,-2.4419,-2.2763,0.0,-2.6592,-2.6212,0.0,0.0,0.0,0.0,0.0,0.0,0.0,0.0,0.0,0.0,0.0,0.0,0.0,0.0,0.0,0.0,0.0,-3.8282,-3.8744,-3.8004,-3.8614,-3.9137,-3.9336,-3.8526,-3.8119,-3.8214,-3.8051,-3.8227,-3.887,-3.8227,-3.8227,-3.887,-3.8227,-3.8261,-3.887,-3.8937,-3.9343,-3.9952,-4.0054,-4.0087,-4.0121,-4.0798,-4.1914,-4.32,-4.3369,-4.3842,-4.4451,-4.4553,-4.4643,-4.4744,-4.5331,-4.5693,-4.5862,-4.6506,-4.6844,-4.7115,-4.7759,-4.803,-4.8233,-4.8877,-4.908,-4.9018,-4.908,-4.908,-4.908,-4.908,-4.908,-4.9046,-4.9229,-4.935,-4.953,-4.953,-4.9649,-4.9801,-4.9952,-5.0011,-5.0011,-5.0011,-5.0011,-5.0011,-5.0011,-5.0011,-5.0011,-5.0011,-5.0011,-5.0011,-5.0011,-5.0011,-5.0092,-5.0171,-5.0228,-5.0285,-5.0397,-5.0564,-5.0585,-5.064,-5.0819,-5.0873,-5.0873,-5.0873,-5.0873,-5.0873,-5.0873,-5.0873,-2.3426,-2.346,-2.3495,-2.3219,0.0,0.0,-2.297,-2.3522,0.0,0.0,0.0,0.0,0.0,0.0,0.0,0.0,0.0,0.0,0.0,0.0,0.0,0.0,0.0,0.0,0.0,-3.8218,-3.8321,-3.8138,-3.8901,-3.9583,-4.0197,-3.9515,-3.9058,-3.8996,-3.8384,-3.8051,-3.8125,-3.799,-3.799,-3.8125,-3.799,-3.799,-3.8125,-3.8734,-3.9073,-3.9242,-3.9817,-4.0087,-4.0087,-4.0257,-4.0832,-4.1745,-4.2963,-4.3504,-4.3707,-4.435,-4.4699,-4.481,-4.4946,-4.5443,-4.6045,-4.6181,-4.7067,-4.8148,-4.8285,-4.8728,-4.924,-4.9376,-4.929,-4.9168,-4.935,-4.9411,-4.9411,-4.9411,-4.9411,-4.9411,-4.9411,-4.953,-4.9649,-4.9649,-4.9801,-4.9918,-5.0011,-5.0011,-5.0011,-5.0011,-5.0011,-5.0011,-5.0011,-5.0011,-5.0011,-5.0011,-5.0011,-5.0034,-5.0149,-5.0149,-5.0206,-5.0341,-5.0341,-5.0397,-5.053,-5.0585,-5.0675,-5.0819,-5.0873,-5.0873,-5.0873,-5.0873,-5.0873,-5.0873,-5.0873,-5.0873,-2.5178,-2.4971,-2.4971,-2.5005,0.0,0.0,0.0,0.0,0.0,0.0,0.0,0.0,0.0,0.0,0.0,0.0,0.0,0.0,0.0,0.0,0.0,0.0,0.0,0.0,0.0,-3.7877,-3.8277,-3.823,-3.8572,-3.8995,-3.9453,-3.944,-3.9392,-3.9358,-3.931,-3.9262,-3.92,-3.8826,-3.8656,-3.8622,-3.7874,-3.7657,-3.8018,-3.8357,-3.8647,-3.9039,-3.9883,-4.0188,-4.0188,-4.0288,-4.0492,-4.1002,-4.2339,-4.3152,-4.3647,-4.4393,-4.4776,-4.4886,-4.4886,-4.5179,-4.561,-4.5986,-4.6635,-4.7318,-4.7694,-4.8343,-4.9026,-4.9368,-4.9411,-4.935,-4.9471,-4.9471,-4.9471,-4.9471,-4.9471,-4.953,-4.959,-4.9649,-4.9708,-4.986,-4.9918,-5.0011,-5.0011,-5.0011,-5.0011,-5.0011,-5.0011,-5.0011,-5.0011,-5.0011,-5.0011,-5.0092,-5.0092,-5.0149,-5.0285,-5.0285,-5.0341,-5.0509,-5.0509,-5.0564,-5.0729,-5.0729,-5.0819,-5.0873,-5.0873,-5.0873,-5.0873,-5.0873,-5.0873,-5.0873,-5.0873,-5.0873,0.0,-2.6868,0.0,0.0,0.0,-2.4281,0.0,0.0,0.0,0.0,0.0,0.0,0.0,0.0,0.0,0.0,0.0,0.0,0.0,0.0,0.0,0.0,0.0,0.0,0.0,-3.6457,-3.7374,-3.8048,-3.7661,-3.7706,-3.838,-3.8951,-3.9247,-3.926,-3.9966,-4.0295,-4.028,-3.9836,-3.9529,-3.9358,-3.8128,-3.774,-3.8125,-3.8091,-3.8452,-3.9137,-3.9812,-4.0201,-4.0337,-4.0436,-4.0485,-4.0622,-4.1698,-4.2717,-4.3605,-4.4354,-4.4804,-4.5049,-4.5049,-4.5049,-4.5206,-4.5768,-4.6075,-4.6315,-4.7067,-4.782,-4.8573,-4.9213,-4.9428,-4.953,-4.9624,-4.9624,-4.9624,-4.9624,-4.9487,-4.9384,-4.9502,-4.9457,-4.9389,-4.9677,-4.9769,-4.9838,-4.9976,-5.0011,-5.0011,-5.0011,-5.0011,-5.0011,-5.0011,-5.0011,-5.0092,-5.0206,-5.0228,-5.0285,-5.0397,-5.0453,-5.0509,-5.0675,-5.0675,-5.0729,-5.0873,-5.0873,-5.0873,-5.0873,-5.0873,-5.0873,-5.0873,-5.0873,-5.0873,-5.0873,-5.0873,-5.0873,0.0,0.0,0.0,0.0,-2.7489,0.0,0.0,0.0,0.0,0.0,0.0,0.0,0.0,0.0,0.0,0.0,0.0,0.0,0.0,0.0,0.0,0.0,0.0,0.0,0.0,0.0,-3.3933,-3.7309,-3.569,-3.5725,-3.8456,-3.8618,-3.8642,-3.8551,-3.9225,-3.959,-3.9529,-4.0075,-4.0041,-3.9392,-3.9221,-3.8845,-3.8299,-3.823,-3.8594,-3.9344,-3.946,-3.987,-4.0485,-4.0485,-4.0485,-4.0554,-4.1358,-4.2142,-4.2893,-4.3731,-4.4521,-4.5177,-4.5177,-4.5264,-4.5371,-4.5474,-4.5991,-4.668,-4.7438,-4.8083,-4.8609,-4.8827,-4.9251,-4.9708,-4.986,-4.9952,-4.9952,-4.9952,-4.9401,-4.8885,-4.8885,-4.8368,-4.8127,-4.8838,-4.8976,-4.9183,-4.9873,-5.0011,-5.0011,-5.0011,-5.0011,-5.0011,-5.0011,-5.0092,-5.0171,-5.0171,-5.0285,-5.0453,-5.0585,-5.0585,-5.0675,-5.0873,-5.0873,-5.0873,-5.0873,-5.0873,-5.0873,-5.0873,-5.0873,-5.0873,-5.0873,-5.0873,-5.0873,-5.0873,-5.0873,-5.0873,0.0,0.0,0.0,0.0,0.0,0.0,-2.466,0.0,-2.3626,0.0,0.0,0.0,0.0,0.0,0.0,0.0,0.0,0.0,0.0,0.0,0.0,0.0,0.0,0.0,0.0,0.0,0.0,0.0,0.0,-3.3904,-3.649,-3.7042,-3.7456,-3.7851,-3.8573,-3.9193,-3.9593,-3.9903,-4.0109,-4.0246,-3.98,-3.9375,-3.9054,-3.8973,-3.8858,-3.8743,-3.9727,-4.0035,-3.9932,-4.0508,-4.0728,-4.0762,-4.1071,-4.1606,-4.2329,-4.358,-4.4284,-4.4751,-4.5146,-4.5371,-4.5423,-4.5423,-4.5665,-4.6079,-4.6837,-4.7231,-4.752,-4.8023,-4.8643,-4.9171,-4.9263,-4.9666,-5.0011,-5.0011,-4.9735,-4.9528,-4.9528,-4.9252,-4.9148,-4.9459,-4.9528,-4.9597,-4.9942,-5.0011,-5.0011,-5.0011,-5.0011,-5.0068,-5.0092,-5.0149,-5.0228,-5.0453,-5.0509,-5.062,-5.0729,-5.0729,-5.0819,-5.0873,-5.0873,-5.0873,-5.0873,-5.0873,-5.0873,-5.0873,-5.0873,-5.0873,-5.0873,-5.0873,-5.0873,-5.0873,-5.0873,-5.0873,-3.0351,0.0,0.0,0.0,0.0,0.0,0.0,0.0,0.0,0.0,0.0,0.0,0.0,0.0,0.0,0.0,0.0,0.0,0.0,0.0,0.0,0.0,0.0,0.0,0.0,0.0,0.0,0.0,0.0,0.0,-3.4421,-3.5283,-3.6042,-3.6835,-3.7801,-3.856,-3.9077,-3.9491,-3.9974,-4.056,-4.0181,-3.9996,-3.995,-3.9662,-3.9203,-3.8665,-3.9684,-3.9903,-3.9628,-4.0272,-4.0698,-4.0871,-4.0871,-4.1168,-4.1724,-4.3271,-4.4062,-4.4389,-4.5147,-4.5423,-4.5423,-4.5423,-4.5423,-4.5527,-4.6113,-4.6424,-4.6734,-4.7251,-4.7941,-4.8528,-4.8528,-4.8941,-4.939,-4.939,-4.9217,-4.9079,-4.9079,-4.8907,-4.8803,-4.9045,-4.9079,-4.9148,-4.9355,-4.9735,-5.0011,-5.0011,-4.9804,-4.978,-4.986,-4.9743,-4.9771,-4.9955,-5.022,-5.0414,-5.0557,-5.0768,-5.0873,-5.0873,-5.0873,-5.0873,-5.0873,-5.0873,-5.0873,-5.0873,-5.0873,-5.0873,-5.0873,-5.0873,-5.0873,-5.0873,-5.0873,-5.0819,0.0,0.0,0.0,-2.8454,0.0,0.0,0.0,0.0,-2.4936,0.0,0.0,0.0,0.0,0.0,-2.7378,-2.5928,0.0,0.0,0.0,0.0,0.0,0.0,0.0,0.0,0.0,0.0,0.0,0.0,0.0,0.0,-3.2766,-3.3731,-3.449,-3.5249,-3.6732,-3.7525,-3.756,-3.8974,-3.9698,-3.9733,-4.0491,-4.0836,-4.0802,-4.0043,-3.9698,-3.9629,-3.8939,-3.9043,-3.9698,-3.9733,-4.0181,-4.0871,-4.0871,-4.0905,-4.1112,-4.263,-4.3664,-4.4389,-4.5147,-4.5423,-4.5423,-4.5423,-4.5423,-4.5423,-4.5405,-4.601,-4.6596,-4.6631,-4.7182,-4.7769,-4.7769,-4.7769,-4.7803,-4.7803,-4.7251,-4.6734,-4.6734,-4.6113,-4.5803,-4.6562,-4.6734,-4.6941,-4.7665,-4.901,-5.0011,-5.0011,-4.9469,-4.9007,-4.9007,-4.8622,-4.8382,-4.8382,-4.9205,-4.9714,-4.9714,-5.0452,-5.0873,-5.0873,-5.0873,-5.0873,-5.0873,-5.0873,-5.0873,-5.0873,-5.0873,-5.0873,-5.0873,-5.0873,-5.0873,-5.0873,-5.0873,-5.062,0.0,0.0,-3.3973,-3.042,0.0,0.0,0.0,0.0,0.0,0.0,0.0,0.0,0.0,0.0,-2.6725,-2.5841,-2.5461,0.0,0.0,0.0,0.0,0.0,0.0,0.0,0.0,0.0,0.0,0.0,-2.7868,0.0,0.0,-3.3386,-3.4421,-3.518,-3.618,-3.6939,-3.7491,-3.7974,-3.8732,-3.9698,-3.9974,-4.0353,-4.0871,-4.0595,-4.0181,-3.9733,-3.9974,-3.9939,-3.9733,-4.025,-4.0629,-4.0871,-4.0871,-4.0871,-4.1009,-4.2009,-4.2871,-4.3733,-4.4975,-4.5423,-4.5423,-4.5423,-4.5423,-4.5423,-4.5423,-4.563,-4.5837,-4.5837,-4.6389,-4.6975,-4.6975,-4.7355,-4.77,-4.77,-4.7527,-4.7355,-4.7355,-4.7113,-4.701,-4.7286,-4.7375,-4.7533,-4.7775,-4.837,-4.8716,-4.8661,-4.8474,-4.8464,-4.8537,-4.8434,-4.8365,-4.8417,-4.8714,-4.8907,-4.8907,-4.9644,-5.0101,-5.0101,-5.0592,-5.0873,-5.0873,-5.0873,-5.0873,-5.0873,-5.0873,-5.0873,-5.0873,-5.0873,-5.0981,-5.1141,-5.1141,-5.0838,-3.4145,-3.4628,0.0,-3.1765,-3.0696,0.0,-2.6523,0.0,0.0,0.0,0.0,0.0,0.0,0.0,-2.7347,-2.6746,-2.5735,-2.4277,0.0,-2.1103,0.0,0.0,0.0,0.0,0.0,0.0,-2.4899,-2.7141,-2.6281,0.0,0.0,0.0,-3.3455,-3.4766,-3.5525,-3.6284,-3.7042,-3.7353,-3.8112,-3.9319,-3.956,-4.0112,-4.0871,-4.0871,-4.0457,-3.9733,-4.025,-4.0008,-3.9353,-4.0146,-4.0457,-4.0491,-4.0767,-4.0871,-4.0974,-4.1698,-4.2664,-4.3749,-4.4665,-4.5182,-4.5423,-4.5423,-4.5423,-4.5423,-4.5423,-4.5423,-4.5423,-4.5423,-4.5803,-4.6182,-4.6182,-4.6562,-4.6906,-4.6906,-4.6906,-4.6906,-4.6906,-4.6906,-4.6906,-4.6961,-4.7015,-4.7122,-4.7141,-4.7247,-4.7509,-4.7904,-4.7873,-4.777,-4.7876,-4.7735,-4.7611,-4.7662,-4.7959,-4.824,-4.8486,-4.8977,-4.9258,-4.9258,-4.975,-5.0171,-5.0452,-5.0452,-5.0592,-5.0873,-5.0873,-5.0927,-5.1034,-5.0753,-5.0769,-5.1028,-5.0845,-5.031]}]]